Wetterdaten: Montag, 30.01.2017
Datum Zeit Temp. A. Feuchte A. Luftdruck Regen Wind Richtung Richtung Sonnenschein ET UV Solar Taupunkt Windchill Windben Empfang
30.01.2017 00:00 -7,7 C 94 % 1026,5 hPa 0,0 l/m 3,2 km/h (1 Bft) O 84 0 min 0,000 mm 0,0 UV-I 0 W/m -8,5 C -7,7 C 4,8 km/h (1 Bft) 94,00 %
30.01.2017 00:02 -7,7 C 94 % 1026,5 hPa 0,0 l/m 1,8 km/h (1 Bft) O-NO 74 0 min 0,000 mm 0,0 UV-I 0 W/m -8,5 C -7,7 C 4,8 km/h (1 Bft) 100,00 %
30.01.2017 00:04 -7,7 C 94 % 1026,4 hPa 0,0 l/m 2,6 km/h (1 Bft) SO 136 0 min 0,000 mm 0,0 UV-I 0 W/m -8,5 C -7,7 C 4,8 km/h (1 Bft) 95,45 %
30.01.2017 00:06 -7,7 C 94 % 1026,4 hPa 0,0 l/m 1,2 km/h (1 Bft) O-SO 109 0 min 0,000 mm 0,0 UV-I 0 W/m -8,5 C -7,7 C 3,2 km/h (1 Bft) 97,56 %
30.01.2017 00:08 -7,7 C 94 % 1026,5 hPa 0,0 l/m 2,3 km/h (1 Bft) O-NO 68 0 min 0,000 mm 0,0 UV-I 0 W/m -8,5 C -7,7 C 4,8 km/h (1 Bft) 98,00 %
30.01.2017 00:10 -7,7 C 94 % 1026,4 hPa 0,0 l/m 2,4 km/h (1 Bft) O-NO 69 0 min 0,000 mm 0,0 UV-I 0 W/m -8,5 C -7,7 C 3,2 km/h (1 Bft) 98,00 %
30.01.2017 00:12 -7,7 C 94 % 1026,4 hPa 0,0 l/m 1,7 km/h (1 Bft) O-NO 68 0 min 0,000 mm 0,0 UV-I 0 W/m -8,5 C -7,7 C 3,2 km/h (1 Bft) 97,87 %
30.01.2017 00:14 -7,7 C 94 % 1026,5 hPa 0,0 l/m 1,2 km/h (1 Bft) O-NO 68 0 min 0,000 mm 0,0 UV-I 0 W/m -8,5 C -7,7 C 3,2 km/h (1 Bft) 94,00 %
30.01.2017 00:16 -7,7 C 94 % 1026,5 hPa 0,0 l/m 0,4 km/h (0 Bft) O-NO 68 0 min 0,000 mm 0,0 UV-I 0 W/m -8,5 C -7,7 C 1,6 km/h (1 Bft) 100,00 %
30.01.2017 00:18 -7,7 C 94 % 1026,4 hPa 0,0 l/m 0,2 km/h (0 Bft) O-NO 68 0 min 0,000 mm 0,0 UV-I 0 W/m -8,5 C -7,7 C 1,6 km/h (1 Bft) 95,74 %
30.01.2017 00:20 -7,7 C 94 % 1026,4 hPa 0,0 l/m 1,3 km/h (1 Bft) O 98 0 min 0,000 mm 0,0 UV-I 0 W/m -8,5 C -7,7 C 3,2 km/h (1 Bft) 97,87 %
30.01.2017 00:22 -7,7 C 94 % 1026,4 hPa 0,0 l/m 0,4 km/h (0 Bft) O 92 0 min 0,000 mm 0,0 UV-I 0 W/m -8,5 C -7,7 C 1,6 km/h (1 Bft) 100,00 %
30.01.2017 00:24 -7,7 C 94 % 1026,4 hPa 0,0 l/m 1,1 km/h (1 Bft) O 90 0 min 0,000 mm 0,0 UV-I 0 W/m -8,5 C -7,7 C 3,2 km/h (1 Bft) 94,00 %
30.01.2017 00:26 -7,7 C 94 % 1026,4 hPa 0,0 l/m 1,9 km/h (1 Bft) O-NO 67 0 min 0,000 mm 0,0 UV-I 0 W/m -8,5 C -7,7 C 3,2 km/h (1 Bft) 100,00 %
30.01.2017 00:28 -7,7 C 94 % 1026,4 hPa 0,0 l/m 2,9 km/h (1 Bft) O-NO 67 0 min 0,000 mm 0,0 UV-I 0 W/m -8,5 C -7,7 C 4,8 km/h (1 Bft) 94,29 %
30.01.2017 00:30 -7,7 C 94 % 1026,4 hPa 0,0 l/m 1,9 km/h (1 Bft) O-NO 70 0 min 0,000 mm 0,0 UV-I 0 W/m -8,5 C -7,7 C 3,2 km/h (1 Bft) 95,16 %
30.01.2017 00:32 -7,7 C 94 % 1026,4 hPa 0,0 l/m 2,1 km/h (1 Bft) O-NO 66 0 min 0,000 mm 0,0 UV-I 0 W/m -8,5 C -7,7 C 3,2 km/h (1 Bft) 96,00 %
30.01.2017 00:34 -7,7 C 94 % 1026,5 hPa 0,0 l/m 1,9 km/h (1 Bft) O-NO 64 0 min 0,000 mm 0,0 UV-I 0 W/m -8,5 C -7,7 C 3,2 km/h (1 Bft) 94,00 %
30.01.2017 00:36 -7,7 C 94 % 1026,4 hPa 0,0 l/m 1,2 km/h (1 Bft) O-NO 64 0 min 0,000 mm 0,0 UV-I 0 W/m -8,5 C -7,7 C 3,2 km/h (1 Bft) 97,73 %
30.01.2017 00:38 -7,7 C 94 % 1026,4 hPa 0,0 l/m 1,3 km/h (1 Bft) O-NO 71 0 min 0,000 mm 0,0 UV-I 0 W/m -8,5 C -7,7 C 1,6 km/h (1 Bft) 96,00 %
30.01.2017 00:40 -7,7 C 94 % 1026,4 hPa 0,0 l/m 0,5 km/h (0 Bft) O-NO 71 0 min 0,000 mm 0,0 UV-I 0 W/m -8,5 C -7,7 C 1,6 km/h (1 Bft) 94,74 %
30.01.2017 00:42 -7,7 C 94 % 1026,3 hPa 0,0 l/m 0,1 km/h (0 Bft) O-NO 71 0 min 0,000 mm 0,0 UV-I 0 W/m -8,5 C -7,7 C 1,6 km/h (1 Bft) 96,00 %
30.01.2017 00:44 -7,7 C 94 % 1026,3 hPa 0,0 l/m 1,4 km/h (1 Bft) O 86 0 min 0,000 mm 0,0 UV-I 0 W/m -8,5 C -7,7 C 3,2 km/h (1 Bft) 95,12 %
30.01.2017 00:46 -7,7 C 94 % 1026,2 hPa 0,0 l/m 1,6 km/h (1 Bft) O 89 0 min 0,000 mm 0,0 UV-I 0 W/m -8,5 C -7,7 C 3,2 km/h (1 Bft) 96,00 %
30.01.2017 00:48 -7,7 C 94 % 1026,2 hPa 0,0 l/m 1,9 km/h (1 Bft) O 85 0 min 0,000 mm 0,0 UV-I 0 W/m -8,5 C -7,7 C 3,2 km/h (1 Bft) 98,00 %
30.01.2017 00:50 -7,7 C 94 % 1026,3 hPa 0,0 l/m 1,8 km/h (1 Bft) O-NO 66 0 min 0,000 mm 0,0 UV-I 0 W/m -8,5 C -7,7 C 3,2 km/h (1 Bft) 97,37 %
30.01.2017 00:52 -7,8 C 94 % 1026,2 hPa 0,0 l/m 1,5 km/h (1 Bft) O-NO 70 0 min 0,000 mm 0,0 UV-I 0 W/m -8,6 C -7,8 C 3,2 km/h (1 Bft) 96,23 %
30.01.2017 00:54 -7,8 C 94 % 1026,1 hPa 0,0 l/m 1,5 km/h (1 Bft) O 92 0 min 0,000 mm 0,0 UV-I 0 W/m -8,6 C -7,8 C 3,2 km/h (1 Bft) 97,87 %
30.01.2017 00:56 -7,8 C 94 % 1026,1 hPa 0,0 l/m 0,8 km/h (0 Bft) O 92 0 min 0,000 mm 0,0 UV-I 0 W/m -8,6 C -7,8 C 1,6 km/h (1 Bft) 96,00 %
30.01.2017 00:58 -7,8 C 94 % 1026,2 hPa 0,0 l/m 2,1 km/h (1 Bft) O 93 0 min 0,000 mm 0,0 UV-I 0 W/m -8,6 C -7,8 C 3,2 km/h (1 Bft) 97,37 %
30.01.2017 01:00 -7,8 C 94 % 1026,2 hPa 0,0 l/m 1,4 km/h (1 Bft) NO 54 0 min 0,000 mm 0,0 UV-I 0 W/m -8,6 C -7,8 C 3,2 km/h (1 Bft) 98,11 %
30.01.2017 01:02 -7,8 C 94 % 1026,1 hPa 0,0 l/m 2,3 km/h (1 Bft) O-NO 62 0 min 0,000 mm 0,0 UV-I 0 W/m -8,6 C -7,8 C 3,2 km/h (1 Bft) 98,00 %
30.01.2017 01:04 -7,8 C 94 % 1026,1 hPa 0,0 l/m 2,1 km/h (1 Bft) O-NO 63 0 min 0,000 mm 0,0 UV-I 0 W/m -8,6 C -7,8 C 3,2 km/h (1 Bft) 98,00 %
30.01.2017 01:06 -7,8 C 94 % 1026,0 hPa 0,0 l/m 3,3 km/h (1 Bft) O-NO 64 0 min 0,000 mm 0,0 UV-I 0 W/m -8,6 C -7,8 C 4,8 km/h (1 Bft) 100,00 %
30.01.2017 01:08 -7,8 C 94 % 1026,0 hPa 0,0 l/m 2,5 km/h (1 Bft) O-NO 72 0 min 0,000 mm 0,0 UV-I 0 W/m -8,6 C -7,8 C 3,2 km/h (1 Bft) 97,87 %
30.01.2017 01:10 -7,8 C 94 % 1026,0 hPa 0,0 l/m 3,0 km/h (1 Bft) O-NO 76 0 min 0,000 mm 0,0 UV-I 0 W/m -8,6 C -7,8 C 4,8 km/h (1 Bft) 97,87 %
30.01.2017 01:12 -7,8 C 94 % 1026,1 hPa 0,0 l/m 2,5 km/h (1 Bft) O-NO 77 0 min 0,000 mm 0,0 UV-I 0 W/m -8,6 C -7,8 C 3,2 km/h (1 Bft) 95,74 %
30.01.2017 01:14 -7,8 C 94 % 1026,1 hPa 0,0 l/m 2,5 km/h (1 Bft) O-NO 68 0 min 0,000 mm 0,0 UV-I 0 W/m -8,6 C -7,8 C 4,8 km/h (1 Bft) 96,23 %
30.01.2017 01:16 -7,7 C 94 % 1026,1 hPa 0,0 l/m 3,3 km/h (1 Bft) NO 50 0 min 0,000 mm 0,0 UV-I 0 W/m -8,5 C -7,7 C 4,8 km/h (1 Bft) 94,00 %
30.01.2017 01:18 -7,7 C 94 % 1026,1 hPa 0,0 l/m 2,5 km/h (1 Bft) NO 44 0 min 0,000 mm 0,0 UV-I 0 W/m -8,5 C -7,7 C 4,8 km/h (1 Bft) 100,00 %
30.01.2017 01:20 -7,7 C 94 % 1026,0 hPa 0,0 l/m 3,1 km/h (1 Bft) O-NO 69 0 min 0,000 mm 0,0 UV-I 0 W/m -8,5 C -7,7 C 4,8 km/h (1 Bft) 100,00 %
30.01.2017 01:22 -7,7 C 94 % 1026,0 hPa 0,0 l/m 4,2 km/h (1 Bft) O-NO 59 0 min 0,000 mm 0,0 UV-I 0 W/m -8,5 C -7,7 C 6,4 km/h (2 Bft) 96,77 %
30.01.2017 01:24 -7,7 C 94 % 1026,0 hPa 0,0 l/m 3,5 km/h (1 Bft) O-NO 58 0 min 0,000 mm 0,0 UV-I 0 W/m -8,5 C -7,7 C 4,8 km/h (1 Bft) 97,87 %
30.01.2017 01:26 -7,7 C 94 % 1026,0 hPa 0,0 l/m 2,5 km/h (1 Bft) O-NO 65 0 min 0,000 mm 0,0 UV-I 0 W/m -8,5 C -7,7 C 4,8 km/h (1 Bft) 94,74 %
30.01.2017 01:28 -7,7 C 94 % 1026,1 hPa 0,0 l/m 2,7 km/h (1 Bft) NO 49 0 min 0,000 mm 0,0 UV-I 0 W/m -8,5 C -7,7 C 4,8 km/h (1 Bft) 97,87 %
30.01.2017 01:30 -7,7 C 94 % 1026,1 hPa 0,0 l/m 3,0 km/h (1 Bft) NO 44 0 min 0,000 mm 0,0 UV-I 0 W/m -8,5 C -7,7 C 4,8 km/h (1 Bft) 95,45 %
30.01.2017 01:32 -7,8 C 94 % 1026,2 hPa 0,0 l/m 3,1 km/h (1 Bft) NO 56 0 min 0,000 mm 0,0 UV-I 0 W/m -8,6 C -7,8 C 4,8 km/h (1 Bft) 98,31 %
30.01.2017 01:34 -7,7 C 94 % 1026,1 hPa 0,0 l/m 2,8 km/h (1 Bft) O 81 0 min 0,000 mm 0,0 UV-I 0 W/m -8,5 C -7,7 C 4,8 km/h (1 Bft) 97,56 %
30.01.2017 01:36 -7,8 C 94 % 1026,1 hPa 0,0 l/m 1,9 km/h (1 Bft) O-NO 73 0 min 0,000 mm 0,0 UV-I 0 W/m -8,6 C -7,8 C 3,2 km/h (1 Bft) 100,00 %
30.01.2017 01:38 -7,7 C 94 % 1026,2 hPa 0,0 l/m 2,3 km/h (1 Bft) O-NO 69 0 min 0,000 mm 0,0 UV-I 0 W/m -8,5 C -7,7 C 3,2 km/h (1 Bft) 97,37 %
30.01.2017 01:40 -7,8 C 94 % 1026,1 hPa 0,0 l/m 2,2 km/h (1 Bft) O-NO 70 0 min 0,000 mm 0,0 UV-I 0 W/m -8,6 C -7,8 C 4,8 km/h (1 Bft) 100,00 %
30.01.2017 01:42 -7,8 C 94 % 1026,1 hPa 0,0 l/m 3,6 km/h (1 Bft) O 92 0 min 0,000 mm 0,0 UV-I 0 W/m -8,6 C -7,8 C 4,8 km/h (1 Bft) 95,74 %
30.01.2017 01:44 -7,7 C 94 % 1026,1 hPa 0,0 l/m 2,6 km/h (1 Bft) O 84 0 min 0,000 mm 0,0 UV-I 0 W/m -8,5 C -7,7 C 4,8 km/h (1 Bft) 97,56 %
30.01.2017 01:46 -7,7 C 94 % 1026,1 hPa 0,0 l/m 1,6 km/h (1 Bft) O 79 0 min 0,000 mm 0,0 UV-I 0 W/m -8,5 C -7,7 C 3,2 km/h (1 Bft) 100,00 %
30.01.2017 01:48 -7,7 C 94 % 1026,1 hPa 0,0 l/m 2,5 km/h (1 Bft) O-NO 74 0 min 0,000 mm 0,0 UV-I 0 W/m -8,5 C -7,7 C 3,2 km/h (1 Bft) 97,62 %
30.01.2017 01:50 -7,7 C 94 % 1026,0 hPa 0,0 l/m 2,1 km/h (1 Bft) O-NO 69 0 min 0,000 mm 0,0 UV-I 0 W/m -8,5 C -7,7 C 3,2 km/h (1 Bft) 100,00 %
30.01.2017 01:52 -7,7 C 94 % 1026,0 hPa 0,0 l/m 2,5 km/h (1 Bft) O-NO 63 0 min 0,000 mm 0,0 UV-I 0 W/m -8,5 C -7,7 C 4,8 km/h (1 Bft) 96,00 %
30.01.2017 01:54 -7,7 C 94 % 1026,0 hPa 0,0 l/m 3,6 km/h (1 Bft) O-SO 105 0 min 0,000 mm 0,0 UV-I 0 W/m -8,5 C -7,7 C 6,4 km/h (2 Bft) 98,00 %
30.01.2017 01:56 -7,7 C 94 % 1026,0 hPa 0,0 l/m 2,5 km/h (1 Bft) O-NO 74 0 min 0,000 mm 0,0 UV-I 0 W/m -8,5 C -7,7 C 4,8 km/h (1 Bft) 100,00 %
30.01.2017 01:58 -7,7 C 94 % 1025,9 hPa 0,0 l/m 4,2 km/h (1 Bft) O-NO 68 0 min 0,000 mm 0,0 UV-I 0 W/m -8,5 C -7,7 C 6,4 km/h (2 Bft) 96,23 %
30.01.2017 02:00 -7,7 C 94 % 1025,9 hPa 0,0 l/m 2,8 km/h (1 Bft) O-NO 76 0 min 0,000 mm 0,0 UV-I 0 W/m -8,5 C -7,7 C 4,8 km/h (1 Bft) 100,00 %
30.01.2017 02:02 -7,7 C 94 % 1025,9 hPa 0,0 l/m 3,2 km/h (1 Bft) O-NO 69 0 min 0,000 mm 0,0 UV-I 0 W/m -8,5 C -7,7 C 4,8 km/h (1 Bft) 100,00 %
30.01.2017 02:04 -7,7 C 94 % 1025,9 hPa 0,0 l/m 2,6 km/h (1 Bft) O-NO 61 0 min 0,000 mm 0,0 UV-I 0 W/m -8,5 C -7,7 C 4,8 km/h (1 Bft) 100,00 %
30.01.2017 02:06 -7,7 C 94 % 1025,9 hPa 0,0 l/m 2,7 km/h (1 Bft) O-NO 60 0 min 0,000 mm 0,0 UV-I 0 W/m -8,5 C -7,7 C 3,2 km/h (1 Bft) 100,00 %
30.01.2017 02:08 -7,7 C 94 % 1025,9 hPa 0,0 l/m 2,7 km/h (1 Bft) O 98 0 min 0,000 mm 0,0 UV-I 0 W/m -8,5 C -7,7 C 3,2 km/h (1 Bft) 100,00 %
30.01.2017 02:10 -7,7 C 94 % 1025,9 hPa 0,0 l/m 2,0 km/h (1 Bft) O 81 0 min 0,000 mm 0,0 UV-I 0 W/m -8,5 C -7,7 C 3,2 km/h (1 Bft) 100,00 %
30.01.2017 02:12 -7,7 C 94 % 1025,8 hPa 0,0 l/m 2,4 km/h (1 Bft) O-NO 75 0 min 0,000 mm 0,0 UV-I 0 W/m -8,5 C -7,7 C 3,2 km/h (1 Bft) 100,00 %
30.01.2017 02:14 -7,7 C 94 % 1025,8 hPa 0,0 l/m 2,7 km/h (1 Bft) O-NO 62 0 min 0,000 mm 0,0 UV-I 0 W/m -8,5 C -7,7 C 4,8 km/h (1 Bft) 97,37 %
30.01.2017 02:16 -7,7 C 94 % 1025,8 hPa 0,0 l/m 2,6 km/h (1 Bft) O 92 0 min 0,000 mm 0,0 UV-I 0 W/m -8,5 C -7,7 C 4,8 km/h (1 Bft) 100,00 %
30.01.2017 02:18 -7,7 C 94 % 1025,8 hPa 0,0 l/m 2,3 km/h (1 Bft) O 87 0 min 0,000 mm 0,0 UV-I 0 W/m -8,5 C -7,7 C 3,2 km/h (1 Bft) 98,11 %
30.01.2017 02:20 -7,7 C 94 % 1025,8 hPa 0,0 l/m 2,4 km/h (1 Bft) NO 53 0 min 0,000 mm 0,0 UV-I 0 W/m -8,5 C -7,7 C 3,2 km/h (1 Bft) 92,68 %
30.01.2017 02:22 -7,7 C 94 % 1025,8 hPa 0,0 l/m 1,6 km/h (1 Bft) NO 51 0 min 0,000 mm 0,0 UV-I 0 W/m -8,5 C -7,7 C 3,2 km/h (1 Bft) 98,00 %
30.01.2017 02:24 -7,7 C 94 % 1025,9 hPa 0,0 l/m 2,0 km/h (1 Bft) O 82 0 min 0,000 mm 0,0 UV-I 0 W/m -8,5 C -7,7 C 4,8 km/h (1 Bft) 96,00 %
30.01.2017 02:26 -7,7 C 94 % 1025,9 hPa 0,0 l/m 2,4 km/h (1 Bft) NO 53 0 min 0,000 mm 0,0 UV-I 0 W/m -8,5 C -7,7 C 3,2 km/h (1 Bft) 97,87 %
30.01.2017 02:28 -7,7 C 94 % 1025,9 hPa 0,0 l/m 2,2 km/h (1 Bft) O-NO 69 0 min 0,000 mm 0,0 UV-I 0 W/m -8,5 C -7,7 C 3,2 km/h (1 Bft) 97,87 %
30.01.2017 02:30 -7,7 C 94 % 1025,9 hPa 0,0 l/m 1,6 km/h (1 Bft) O-NO 73 0 min 0,000 mm 0,0 UV-I 0 W/m -8,5 C -7,7 C 3,2 km/h (1 Bft) 97,73 %
30.01.2017 02:32 -7,7 C 94 % 1025,8 hPa 0,0 l/m 2,0 km/h (1 Bft) O-NO 63 0 min 0,000 mm 0,0 UV-I 0 W/m -8,5 C -7,7 C 3,2 km/h (1 Bft) 97,78 %
30.01.2017 02:34 -7,7 C 94 % 1025,8 hPa 0,0 l/m 2,6 km/h (1 Bft) O-NO 65 0 min 0,000 mm 0,0 UV-I 0 W/m -8,5 C -7,7 C 4,8 km/h (1 Bft) 94,00 %
30.01.2017 02:36 -7,7 C 94 % 1025,7 hPa 0,0 l/m 2,9 km/h (1 Bft) O-NO 75 0 min 0,000 mm 0,0 UV-I 0 W/m -8,5 C -7,7 C 4,8 km/h (1 Bft) 95,83 %
30.01.2017 02:38 -7,7 C 94 % 1025,7 hPa 0,0 l/m 2,4 km/h (1 Bft) O-NO 67 0 min 0,000 mm 0,0 UV-I 0 W/m -8,5 C -7,7 C 3,2 km/h (1 Bft) 95,74 %
30.01.2017 02:40 -7,7 C 94 % 1025,7 hPa 0,0 l/m 2,8 km/h (1 Bft) O 79 0 min 0,000 mm 0,0 UV-I 0 W/m -8,5 C -7,7 C 4,8 km/h (1 Bft) 97,87 %
30.01.2017 02:42 -7,7 C 94 % 1025,7 hPa 0,0 l/m 2,0 km/h (1 Bft) NO 53 0 min 0,000 mm 0,0 UV-I 0 W/m -8,5 C -7,7 C 4,8 km/h (1 Bft) 97,37 %
30.01.2017 02:44 -7,7 C 94 % 1025,6 hPa 0,0 l/m 2,2 km/h (1 Bft) O-NO 59 0 min 0,000 mm 0,0 UV-I 0 W/m -8,5 C -7,7 C 3,2 km/h (1 Bft) 94,00 %
30.01.2017 02:46 -7,7 C 94 % 1025,6 hPa 0,0 l/m 2,0 km/h (1 Bft) O 97 0 min 0,000 mm 0,0 UV-I 0 W/m -8,5 C -7,7 C 4,8 km/h (1 Bft) 94,34 %
30.01.2017 02:48 -7,7 C 94 % 1025,6 hPa 0,0 l/m 1,6 km/h (1 Bft) SO 130 0 min 0,000 mm 0,0 UV-I 0 W/m -8,5 C -7,7 C 3,2 km/h (1 Bft) 97,14 %
30.01.2017 02:50 -7,7 C 94 % 1025,5 hPa 0,0 l/m 2,6 km/h (1 Bft) O-SO 106 0 min 0,000 mm 0,0 UV-I 0 W/m -8,5 C -7,7 C 3,2 km/h (1 Bft) 98,21 %
30.01.2017 02:52 -7,7 C 94 % 1025,5 hPa 0,0 l/m 2,0 km/h (1 Bft) O 101 0 min 0,000 mm 0,0 UV-I 0 W/m -8,5 C -7,7 C 3,2 km/h (1 Bft) 95,74 %
30.01.2017 02:54 -7,7 C 94 % 1025,6 hPa 0,0 l/m 1,3 km/h (1 Bft) O-SO 119 0 min 0,000 mm 0,0 UV-I 0 W/m -8,5 C -7,7 C 3,2 km/h (1 Bft) 95,74 %
30.01.2017 02:56 -7,7 C 94 % 1025,6 hPa 0,0 l/m 1,0 km/h (0 Bft) O-NO 71 0 min 0,000 mm 0,0 UV-I 0 W/m -8,5 C -7,7 C 3,2 km/h (1 Bft) 96,00 %
30.01.2017 02:58 -7,7 C 94 % 1025,5 hPa 0,0 l/m 3,0 km/h (1 Bft) O-NO 64 0 min 0,000 mm 0,0 UV-I 0 W/m -8,5 C -7,7 C 4,8 km/h (1 Bft) 97,56 %
30.01.2017 03:00 -7,7 C 94 % 1025,5 hPa 0,0 l/m 2,9 km/h (1 Bft) O 79 0 min 0,000 mm 0,0 UV-I 0 W/m -8,5 C -7,7 C 4,8 km/h (1 Bft) 96,67 %
30.01.2017 03:02 -7,7 C 94 % 1025,5 hPa 0,0 l/m 3,4 km/h (1 Bft) O-NO 78 0 min 0,000 mm 0,0 UV-I 0 W/m -8,5 C -7,7 C 4,8 km/h (1 Bft) 92,54 %
30.01.2017 03:04 -7,7 C 94 % 1025,4 hPa 0,0 l/m 1,6 km/h (1 Bft) O 86 0 min 0,000 mm 0,0 UV-I 0 W/m -8,5 C -7,7 C 3,2 km/h (1 Bft) 95,12 %
30.01.2017 03:06 -7,6 C 94 % 1025,4 hPa 0,0 l/m 3,2 km/h (1 Bft) O-NO 73 0 min 0,000 mm 0,0 UV-I 0 W/m -8,4 C -7,6 C 4,8 km/h (1 Bft) 95,74 %
30.01.2017 03:08 -7,7 C 94 % 1025,5 hPa 0,0 l/m 3,4 km/h (1 Bft) O-NO 63 0 min 0,000 mm 0,0 UV-I 0 W/m -8,5 C -7,7 C 6,4 km/h (2 Bft) 90,48 %
30.01.2017 03:10 -7,7 C 94 % 1025,5 hPa 0,0 l/m 3,0 km/h (1 Bft) O-NO 61 0 min 0,000 mm 0,0 UV-I 0 W/m -8,5 C -7,7 C 6,4 km/h (2 Bft) 100,00 %
30.01.2017 03:12 -7,7 C 94 % 1025,4 hPa 0,0 l/m 2,2 km/h (1 Bft) O-NO 69 0 min 0,000 mm 0,0 UV-I 0 W/m -8,5 C -7,7 C 4,8 km/h (1 Bft) 100,00 %
30.01.2017 03:14 -7,7 C 94 % 1025,4 hPa 0,0 l/m 3,0 km/h (1 Bft) O-NO 66 0 min 0,000 mm 0,0 UV-I 0 W/m -8,5 C -7,7 C 4,8 km/h (1 Bft) 100,00 %
30.01.2017 03:16 -7,7 C 94 % 1025,4 hPa 0,0 l/m 1,8 km/h (1 Bft) O-NO 61 0 min 0,000 mm 0,0 UV-I 0 W/m -8,5 C -7,7 C 3,2 km/h (1 Bft) 97,44 %
30.01.2017 03:18 -7,7 C 94 % 1025,4 hPa 0,0 l/m 3,2 km/h (1 Bft) O-NO 64 0 min 0,000 mm 0,0 UV-I 0 W/m -8,5 C -7,7 C 4,8 km/h (1 Bft) 98,00 %
30.01.2017 03:20 -7,7 C 94 % 1025,4 hPa 0,0 l/m 1,8 km/h (1 Bft) O-NO 60 0 min 0,000 mm 0,0 UV-I 0 W/m -8,5 C -7,7 C 3,2 km/h (1 Bft) 100,00 %
30.01.2017 03:22 -7,7 C 94 % 1025,4 hPa 0,0 l/m 2,2 km/h (1 Bft) NO 46 0 min 0,000 mm 0,0 UV-I 0 W/m -8,5 C -7,7 C 3,2 km/h (1 Bft) 100,00 %
30.01.2017 03:24 -7,7 C 94 % 1025,4 hPa 0,0 l/m 1,9 km/h (1 Bft) O-NO 61 0 min 0,000 mm 0,0 UV-I 0 W/m -8,5 C -7,7 C 4,8 km/h (1 Bft) 94,29 %
30.01.2017 03:26 -7,7 C 94 % 1025,4 hPa 0,0 l/m 3,0 km/h (1 Bft) O-NO 64 0 min 0,000 mm 0,0 UV-I 0 W/m -8,5 C -7,7 C 4,8 km/h (1 Bft) 98,11 %
30.01.2017 03:28 -7,7 C 94 % 1025,4 hPa 0,0 l/m 2,2 km/h (1 Bft) NO 54 0 min 0,000 mm 0,0 UV-I 0 W/m -8,5 C -7,7 C 4,8 km/h (1 Bft) 100,00 %
30.01.2017 03:30 -7,7 C 94 % 1025,5 hPa 0,0 l/m 2,1 km/h (1 Bft) NO 51 0 min 0,000 mm 0,0 UV-I 0 W/m -8,5 C -7,7 C 4,8 km/h (1 Bft) 96,00 %
30.01.2017 03:32 -7,7 C 94 % 1025,4 hPa 0,0 l/m 2,2 km/h (1 Bft) NO 53 0 min 0,000 mm 0,0 UV-I 0 W/m -8,5 C -7,7 C 3,2 km/h (1 Bft) 100,00 %
30.01.2017 03:34 -7,8 C 94 % 1025,4 hPa 0,0 l/m 2,7 km/h (1 Bft) O-NO 63 0 min 0,000 mm 0,0 UV-I 0 W/m -8,6 C -7,8 C 4,8 km/h (1 Bft) 96,92 %
30.01.2017 03:36 -7,8 C 94 % 1025,4 hPa 0,0 l/m 2,5 km/h (1 Bft) O-NO 67 0 min 0,000 mm 0,0 UV-I 0 W/m -8,6 C -7,8 C 3,2 km/h (1 Bft) 100,00 %
30.01.2017 03:38 -7,8 C 94 % 1025,4 hPa 0,0 l/m 3,0 km/h (1 Bft) O-NO 76 0 min 0,000 mm 0,0 UV-I 0 W/m -8,6 C -7,8 C 4,8 km/h (1 Bft) 97,37 %
30.01.2017 03:40 -7,8 C 94 % 1025,3 hPa 0,0 l/m 2,4 km/h (1 Bft) O-NO 75 0 min 0,000 mm 0,0 UV-I 0 W/m -8,6 C -7,8 C 3,2 km/h (1 Bft) 98,00 %
30.01.2017 03:42 -7,8 C 94 % 1025,3 hPa 0,0 l/m 2,0 km/h (1 Bft) O-NO 74 0 min 0,000 mm 0,0 UV-I 0 W/m -8,6 C -7,8 C 3,2 km/h (1 Bft) 98,00 %
30.01.2017 03:44 -7,8 C 94 % 1025,3 hPa 0,0 l/m 0,8 km/h (0 Bft) O-NO 74 0 min 0,000 mm 0,0 UV-I 0 W/m -8,6 C -7,8 C 1,6 km/h (1 Bft) 100,00 %
30.01.2017 03:46 -7,8 C 94 % 1025,3 hPa 0,0 l/m 1,7 km/h (1 Bft) NO 56 0 min 0,000 mm 0,0 UV-I 0 W/m -8,6 C -7,8 C 4,8 km/h (1 Bft) 100,00 %
30.01.2017 03:48 -7,8 C 94 % 1025,3 hPa 0,0 l/m 2,2 km/h (1 Bft) O-NO 74 0 min 0,000 mm 0,0 UV-I 0 W/m -8,6 C -7,8 C 3,2 km/h (1 Bft) 96,36 %
30.01.2017 03:50 -7,8 C 94 % 1025,4 hPa 0,0 l/m 1,8 km/h (1 Bft) O-NO 74 0 min 0,000 mm 0,0 UV-I 0 W/m -8,6 C -7,8 C 3,2 km/h (1 Bft) 100,00 %
30.01.2017 03:52 -7,8 C 94 % 1025,4 hPa 0,0 l/m 1,0 km/h (0 Bft) O-NO 74 0 min 0,000 mm 0,0 UV-I 0 W/m -8,6 C -7,8 C 3,2 km/h (1 Bft) 100,00 %
30.01.2017 03:54 -7,8 C 94 % 1025,4 hPa 0,0 l/m 2,1 km/h (1 Bft) O 84 0 min 0,000 mm 0,0 UV-I 0 W/m -8,6 C -7,8 C 3,2 km/h (1 Bft) 97,44 %
30.01.2017 03:56 -7,7 C 94 % 1025,3 hPa 0,0 l/m 1,7 km/h (1 Bft) O-SO 113 0 min 0,000 mm 0,0 UV-I 0 W/m -8,5 C -7,7 C 3,2 km/h (1 Bft) 96,23 %
30.01.2017 03:58 -7,7 C 94 % 1025,3 hPa 0,0 l/m 1,7 km/h (1 Bft) O-NO 78 0 min 0,000 mm 0,0 UV-I 0 W/m -8,5 C -7,7 C 3,2 km/h (1 Bft) 100,00 %
30.01.2017 04:00 -7,7 C 94 % 1025,2 hPa 0,0 l/m 1,8 km/h (1 Bft) O 99 0 min 0,000 mm 0,0 UV-I 0 W/m -8,5 C -7,7 C 3,2 km/h (1 Bft) 94,64 %
30.01.2017 04:02 -7,7 C 94 % 1025,2 hPa 0,0 l/m 1,4 km/h (1 Bft) O 79 0 min 0,000 mm 0,0 UV-I 0 W/m -8,5 C -7,7 C 3,2 km/h (1 Bft) 100,00 %
30.01.2017 04:04 -7,7 C 94 % 1025,2 hPa 0,0 l/m 1,3 km/h (1 Bft) O 80 0 min 0,000 mm 0,0 UV-I 0 W/m -8,5 C -7,7 C 3,2 km/h (1 Bft) 97,56 %
30.01.2017 04:06 -7,7 C 94 % 1025,3 hPa 0,0 l/m 1,0 km/h (0 Bft) O-NO 76 0 min 0,000 mm 0,0 UV-I 0 W/m -8,5 C -7,7 C 3,2 km/h (1 Bft) 97,87 %
30.01.2017 04:08 -7,7 C 94 % 1025,2 hPa 0,0 l/m 1,8 km/h (1 Bft) O 92 0 min 0,000 mm 0,0 UV-I 0 W/m -8,5 C -7,7 C 3,2 km/h (1 Bft) 97,87 %
30.01.2017 04:10 -7,7 C 94 % 1025,2 hPa 0,0 l/m 0,9 km/h (0 Bft) O 98 0 min 0,000 mm 0,0 UV-I 0 W/m -8,5 C -7,7 C 3,2 km/h (1 Bft) 95,12 %
30.01.2017 04:12 -7,7 C 94 % 1025,2 hPa 0,0 l/m 2,0 km/h (1 Bft) O-NO 77 0 min 0,000 mm 0,0 UV-I 0 W/m -8,5 C -7,7 C 3,2 km/h (1 Bft) 100,00 %
30.01.2017 04:14 -7,7 C 94 % 1025,2 hPa 0,0 l/m 1,8 km/h (1 Bft) O-SO 116 0 min 0,000 mm 0,0 UV-I 0 W/m -8,5 C -7,7 C 3,2 km/h (1 Bft) 98,00 %
30.01.2017 04:16 -7,7 C 94 % 1025,2 hPa 0,0 l/m 1,8 km/h (1 Bft) O-SO 103 0 min 0,000 mm 0,0 UV-I 0 W/m -8,5 C -7,7 C 3,2 km/h (1 Bft) 100,00 %
30.01.2017 04:18 -7,7 C 94 % 1025,1 hPa 0,0 l/m 3,1 km/h (1 Bft) O 96 0 min 0,000 mm 0,0 UV-I 0 W/m -8,5 C -7,7 C 3,2 km/h (1 Bft) 98,00 %
30.01.2017 04:20 -7,7 C 94 % 1025,1 hPa 0,0 l/m 2,2 km/h (1 Bft) O-NO 78 0 min 0,000 mm 0,0 UV-I 0 W/m -8,5 C -7,7 C 3,2 km/h (1 Bft) 98,00 %
30.01.2017 04:22 -7,7 C 94 % 1025,2 hPa 0,0 l/m 1,2 km/h (1 Bft) O-SO 112 0 min 0,000 mm 0,0 UV-I 0 W/m -8,5 C -7,7 C 3,2 km/h (1 Bft) 97,37 %
30.01.2017 04:24 -7,7 C 94 % 1025,2 hPa 0,0 l/m 1,9 km/h (1 Bft) O-NO 75 0 min 0,000 mm 0,0 UV-I 0 W/m -8,5 C -7,7 C 4,8 km/h (1 Bft) 96,43 %
30.01.2017 04:26 -7,7 C 94 % 1025,2 hPa 0,0 l/m 2,5 km/h (1 Bft) NO 50 0 min 0,000 mm 0,0 UV-I 0 W/m -8,5 C -7,7 C 4,8 km/h (1 Bft) 96,00 %
30.01.2017 04:28 -7,7 C 94 % 1025,2 hPa 0,0 l/m 1,4 km/h (1 Bft) O-NO 57 0 min 0,000 mm 0,0 UV-I 0 W/m -8,5 C -7,7 C 3,2 km/h (1 Bft) 94,44 %
30.01.2017 04:30 -7,7 C 94 % 1025,2 hPa 0,0 l/m 0,7 km/h (0 Bft) O-NO 57 0 min 0,000 mm 0,0 UV-I 0 W/m -8,5 C -7,7 C 1,6 km/h (1 Bft) 96,55 %
30.01.2017 04:32 -7,7 C 94 % 1025,2 hPa 0,0 l/m 0,7 km/h (0 Bft) O-NO 57 0 min 0,000 mm 0,0 UV-I 0 W/m -8,5 C -7,7 C 1,6 km/h (1 Bft) 97,87 %
30.01.2017 04:34 -7,7 C 94 % 1025,2 hPa 0,0 l/m 1,1 km/h (1 Bft) O 80 0 min 0,000 mm 0,0 UV-I 0 W/m -8,5 C -7,7 C 3,2 km/h (1 Bft) 97,22 %
30.01.2017 04:36 -7,7 C 94 % 1025,1 hPa 0,0 l/m 1,1 km/h (1 Bft) O 91 0 min 0,000 mm 0,0 UV-I 0 W/m -8,5 C -7,7 C 1,6 km/h (1 Bft) 98,11 %
30.01.2017 04:38 -7,7 C 94 % 1025,1 hPa 0,0 l/m 2,0 km/h (1 Bft) O-NO 76 0 min 0,000 mm 0,0 UV-I 0 W/m -8,5 C -7,7 C 4,8 km/h (1 Bft) 97,56 %
30.01.2017 04:40 -7,6 C 94 % 1025,0 hPa 0,0 l/m 3,1 km/h (1 Bft) O-NO 75 0 min 0,000 mm 0,0 UV-I 0 W/m -8,4 C -7,6 C 4,8 km/h (1 Bft) 98,11 %
30.01.2017 04:42 -7,7 C 94 % 1025,1 hPa 0,0 l/m 3,1 km/h (1 Bft) O-NO 76 0 min 0,000 mm 0,0 UV-I 0 W/m -8,5 C -7,7 C 4,8 km/h (1 Bft) 96,00 %
30.01.2017 04:44 -7,6 C 94 % 1025,1 hPa 0,0 l/m 1,5 km/h (1 Bft) O-NO 69 0 min 0,000 mm 0,0 UV-I 0 W/m -8,4 C -7,6 C 3,2 km/h (1 Bft) 97,73 %
30.01.2017 04:46 -7,6 C 94 % 1025,1 hPa 0,0 l/m 1,8 km/h (1 Bft) O-NO 69 0 min 0,000 mm 0,0 UV-I 0 W/m -8,4 C -7,6 C 3,2 km/h (1 Bft) 90,24 %
30.01.2017 04:48 -7,7 C 94 % 1025,2 hPa 0,0 l/m 1,8 km/h (1 Bft) O-NO 66 0 min 0,000 mm 0,0 UV-I 0 W/m -8,5 C -7,7 C 3,2 km/h (1 Bft) 94,00 %
30.01.2017 04:50 -7,7 C 94 % 1025,1 hPa 0,0 l/m 0,6 km/h (0 Bft) O-NO 68 0 min 0,000 mm 0,0 UV-I 0 W/m -8,5 C -7,7 C 3,2 km/h (1 Bft) 94,34 %
30.01.2017 04:52 -7,7 C 94 % 1025,2 hPa 0,0 l/m 1,1 km/h (1 Bft) O-NO 66 0 min 0,000 mm 0,0 UV-I 0 W/m -8,5 C -7,7 C 3,2 km/h (1 Bft) 93,18 %
30.01.2017 04:54 -7,6 C 94 % 1025,1 hPa 0,0 l/m 1,9 km/h (1 Bft) O-NO 66 0 min 0,000 mm 0,0 UV-I 0 W/m -8,4 C -7,6 C 4,8 km/h (1 Bft) 95,74 %
30.01.2017 04:56 -7,6 C 94 % 1025,1 hPa 0,0 l/m 2,5 km/h (1 Bft) O-NO 74 0 min 0,000 mm 0,0 UV-I 0 W/m -8,4 C -7,6 C 3,2 km/h (1 Bft) 95,12 %
30.01.2017 04:58 -7,6 C 94 % 1025,1 hPa 0,0 l/m 3,3 km/h (1 Bft) O-NO 78 0 min 0,000 mm 0,0 UV-I 0 W/m -8,4 C -7,6 C 4,8 km/h (1 Bft) 98,11 %
30.01.2017 05:00 -7,7 C 94 % 1025,1 hPa 0,0 l/m 2,5 km/h (1 Bft) O 84 0 min 0,000 mm 0,0 UV-I 0 W/m -8,5 C -7,7 C 3,2 km/h (1 Bft) 94,74 %
30.01.2017 05:02 -7,7 C 94 % 1025,1 hPa 0,0 l/m 0,8 km/h (0 Bft) O-NO 77 0 min 0,000 mm 0,0 UV-I 0 W/m -8,5 C -7,7 C 3,2 km/h (1 Bft) 98,11 %
30.01.2017 05:04 -7,7 C 94 % 1025,1 hPa 0,0 l/m 2,6 km/h (1 Bft) O 96 0 min 0,000 mm 0,0 UV-I 0 W/m -8,5 C -7,7 C 4,8 km/h (1 Bft) 94,00 %
30.01.2017 05:06 -7,7 C 94 % 1025,0 hPa 0,0 l/m 2,8 km/h (1 Bft) O-NO 74 0 min 0,000 mm 0,0 UV-I 0 W/m -8,5 C -7,7 C 4,8 km/h (1 Bft) 94,74 %
30.01.2017 05:08 -7,7 C 94 % 1025,1 hPa 0,0 l/m 3,6 km/h (1 Bft) O-NO 69 0 min 0,000 mm 0,0 UV-I 0 W/m -8,5 C -7,7 C 4,8 km/h (1 Bft) 96,23 %
30.01.2017 05:10 -7,7 C 94 % 1025,0 hPa 0,0 l/m 3,3 km/h (1 Bft) O 89 0 min 0,000 mm 0,0 UV-I 0 W/m -8,5 C -7,7 C 4,8 km/h (1 Bft) 95,24 %
30.01.2017 05:12 -7,7 C 94 % 1024,9 hPa 0,0 l/m 3,5 km/h (1 Bft) NO 56 0 min 0,000 mm 0,0 UV-I 0 W/m -8,5 C -7,7 C 4,8 km/h (1 Bft) 98,18 %
30.01.2017 05:14 -7,7 C 94 % 1024,9 hPa 0,0 l/m 3,4 km/h (1 Bft) O-NO 67 0 min 0,000 mm 0,0 UV-I 0 W/m -8,5 C -7,7 C 4,8 km/h (1 Bft) 97,62 %
30.01.2017 05:16 -7,7 C 94 % 1025,0 hPa 0,0 l/m 3,0 km/h (1 Bft) NO 52 0 min 0,000 mm 0,0 UV-I 0 W/m -8,5 C -7,7 C 4,8 km/h (1 Bft) 97,73 %
30.01.2017 05:18 -7,7 C 94 % 1024,9 hPa 0,0 l/m 2,5 km/h (1 Bft) O-NO 74 0 min 0,000 mm 0,0 UV-I 0 W/m -8,5 C -7,7 C 4,8 km/h (1 Bft) 98,00 %
30.01.2017 05:20 -7,7 C 94 % 1024,9 hPa 0,0 l/m 3,5 km/h (1 Bft) O-NO 58 0 min 0,000 mm 0,0 UV-I 0 W/m -8,5 C -7,7 C 4,8 km/h (1 Bft) 96,00 %
30.01.2017 05:22 -7,7 C 94 % 1024,8 hPa 0,0 l/m 2,9 km/h (1 Bft) O-NO 57 0 min 0,000 mm 0,0 UV-I 0 W/m -8,5 C -7,7 C 4,8 km/h (1 Bft) 97,37 %
30.01.2017 05:24 -7,7 C 94 % 1024,8 hPa 0,0 l/m 2,6 km/h (1 Bft) O-NO 57 0 min 0,000 mm 0,0 UV-I 0 W/m -8,5 C -7,7 C 4,8 km/h (1 Bft) 95,74 %
30.01.2017 05:26 -7,7 C 94 % 1024,8 hPa 0,0 l/m 4,1 km/h (1 Bft) O-NO 60 0 min 0,000 mm 0,0 UV-I 0 W/m -8,5 C -7,7 C 4,8 km/h (1 Bft) 98,21 %
30.01.2017 05:28 -7,7 C 94 % 1024,8 hPa 0,0 l/m 4,3 km/h (1 Bft) O-NO 65 0 min 0,000 mm 0,0 UV-I 0 W/m -8,5 C -7,7 C 6,4 km/h (2 Bft) 97,37 %
30.01.2017 05:30 -7,7 C 94 % 1024,8 hPa 0,0 l/m 3,6 km/h (1 Bft) O-NO 71 0 min 0,000 mm 0,0 UV-I 0 W/m -8,5 C -7,7 C 4,8 km/h (1 Bft) 100,00 %
30.01.2017 05:32 -7,7 C 94 % 1024,8 hPa 0,0 l/m 2,9 km/h (1 Bft) O 88 0 min 0,000 mm 0,0 UV-I 0 W/m -8,5 C -7,7 C 6,4 km/h (2 Bft) 100,00 %
30.01.2017 05:34 -7,7 C 94 % 1024,9 hPa 0,0 l/m 2,4 km/h (1 Bft) O-NO 71 0 min 0,000 mm 0,0 UV-I 0 W/m -8,5 C -7,7 C 4,8 km/h (1 Bft) 98,39 %
30.01.2017 05:36 -7,7 C 94 % 1024,9 hPa 0,0 l/m 3,3 km/h (1 Bft) NO 40 0 min 0,000 mm 0,0 UV-I 0 W/m -8,5 C -7,7 C 4,8 km/h (1 Bft) 98,00 %
30.01.2017 05:38 -7,7 C 94 % 1024,9 hPa 0,0 l/m 3,1 km/h (1 Bft) O-SO 113 0 min 0,000 mm 0,0 UV-I 0 W/m -8,5 C -7,7 C 4,8 km/h (1 Bft) 100,00 %
30.01.2017 05:40 -7,7 C 94 % 1024,9 hPa 0,0 l/m 1,9 km/h (1 Bft) NO 52 0 min 0,000 mm 0,0 UV-I 0 W/m -8,5 C -7,7 C 3,2 km/h (1 Bft) 97,56 %
30.01.2017 05:42 -7,7 C 94 % 1024,9 hPa 0,0 l/m 2,9 km/h (1 Bft) O-NO 76 0 min 0,000 mm 0,0 UV-I 0 W/m -8,5 C -7,7 C 4,8 km/h (1 Bft) 100,00 %
30.01.2017 05:44 -7,7 C 94 % 1024,8 hPa 0,0 l/m 2,6 km/h (1 Bft) O-NO 73 0 min 0,000 mm 0,0 UV-I 0 W/m -8,5 C -7,7 C 4,8 km/h (1 Bft) 95,45 %
30.01.2017 05:46 -7,7 C 94 % 1024,9 hPa 0,0 l/m 2,0 km/h (1 Bft) O-SO 107 0 min 0,000 mm 0,0 UV-I 0 W/m -8,5 C -7,7 C 3,2 km/h (1 Bft) 97,73 %
30.01.2017 05:48 -7,7 C 94 % 1024,9 hPa 0,0 l/m 1,5 km/h (1 Bft) O 100 0 min 0,000 mm 0,0 UV-I 0 W/m -8,5 C -7,7 C 3,2 km/h (1 Bft) 94,00 %
30.01.2017 05:50 -7,7 C 94 % 1024,8 hPa 0,0 l/m 0,6 km/h (0 Bft) O 85 0 min 0,000 mm 0,0 UV-I 0 W/m -8,5 C -7,7 C 1,6 km/h (1 Bft) 100,00 %
30.01.2017 05:52 -7,7 C 94 % 1024,8 hPa 0,0 l/m 0,7 km/h (0 Bft) O-SO 106 0 min 0,000 mm 0,0 UV-I 0 W/m -8,5 C -7,7 C 3,2 km/h (1 Bft) 97,87 %
30.01.2017 05:54 -7,7 C 94 % 1024,8 hPa 0,0 l/m 0,4 km/h (0 Bft) O-NO 73 0 min 0,000 mm 0,0 UV-I 0 W/m -8,5 C -7,7 C 1,6 km/h (1 Bft) 100,00 %
30.01.2017 05:56 -7,7 C 94 % 1024,8 hPa 0,0 l/m 0,8 km/h (0 Bft) O-NO 74 0 min 0,000 mm 0,0 UV-I 0 W/m -8,5 C -7,7 C 3,2 km/h (1 Bft) 96,23 %
30.01.2017 05:58 -7,7 C 94 % 1024,7 hPa 0,0 l/m 0,6 km/h (0 Bft) SO 125 0 min 0,000 mm 0,0 UV-I 0 W/m -8,5 C -7,7 C 1,6 km/h (1 Bft) 98,11 %
30.01.2017 06:00 -7,7 C 94 % 1024,7 hPa 0,0 l/m 0,6 km/h (0 Bft) O 86 0 min 0,000 mm 0,0 UV-I 0 W/m -8,5 C -7,7 C 1,6 km/h (1 Bft) 100,00 %
30.01.2017 06:02 -7,7 C 94 % 1024,8 hPa 0,0 l/m 2,0 km/h (1 Bft) O-NO 72 0 min 0,000 mm 0,0 UV-I 0 W/m -8,5 C -7,7 C 3,2 km/h (1 Bft) 98,11 %
30.01.2017 06:04 -7,7 C 94 % 1024,7 hPa 0,0 l/m 0,9 km/h (0 Bft) O-NO 76 0 min 0,000 mm 0,0 UV-I 0 W/m -8,5 C -7,7 C 3,2 km/h (1 Bft) 100,00 %
30.01.2017 06:06 -7,7 C 94 % 1024,7 hPa 0,0 l/m 2,2 km/h (1 Bft) O 81 0 min 0,000 mm 0,0 UV-I 0 W/m -8,5 C -7,7 C 3,2 km/h (1 Bft) 97,37 %
30.01.2017 06:08 -7,7 C 94 % 1024,7 hPa 0,0 l/m 2,9 km/h (1 Bft) O 82 0 min 0,000 mm 0,0 UV-I 0 W/m -8,5 C -7,7 C 4,8 km/h (1 Bft) 98,00 %
30.01.2017 06:10 -7,7 C 94 % 1024,7 hPa 0,0 l/m 2,5 km/h (1 Bft) O-NO 67 0 min 0,000 mm 0,0 UV-I 0 W/m -8,5 C -7,7 C 4,8 km/h (1 Bft) 100,00 %
30.01.2017 06:12 -7,7 C 94 % 1024,6 hPa 0,0 l/m 0,7 km/h (0 Bft) O-NO 67 0 min 0,000 mm 0,0 UV-I 0 W/m -8,5 C -7,7 C 1,6 km/h (1 Bft) 97,37 %
30.01.2017 06:14 -7,6 C 94 % 1024,7 hPa 0,0 l/m 2,5 km/h (1 Bft) O 83 0 min 0,000 mm 0,0 UV-I 0 W/m -8,4 C -7,6 C 4,8 km/h (1 Bft) 100,00 %
30.01.2017 06:16 -7,6 C 94 % 1024,6 hPa 0,0 l/m 2,4 km/h (1 Bft) O-NO 70 0 min 0,000 mm 0,0 UV-I 0 W/m -8,4 C -7,6 C 3,2 km/h (1 Bft) 95,45 %
30.01.2017 06:18 -7,6 C 94 % 1024,6 hPa 0,0 l/m 4,1 km/h (1 Bft) O-NO 69 0 min 0,000 mm 0,0 UV-I 0 W/m -8,4 C -7,6 C 6,4 km/h (2 Bft) 100,00 %
30.01.2017 06:20 -7,6 C 94 % 1024,6 hPa 0,0 l/m 3,7 km/h (1 Bft) NO 55 0 min 0,000 mm 0,0 UV-I 0 W/m -8,4 C -7,6 C 4,8 km/h (1 Bft) 100,00 %
30.01.2017 06:22 -7,6 C 94 % 1024,6 hPa 0,0 l/m 4,6 km/h (1 Bft) O-NO 69 0 min 0,000 mm 0,0 UV-I 0 W/m -8,4 C -7,6 C 6,4 km/h (2 Bft) 100,00 %
30.01.2017 06:24 -7,6 C 94 % 1024,7 hPa 0,0 l/m 3,2 km/h (1 Bft) O-NO 60 0 min 0,000 mm 0,0 UV-I 0 W/m -8,4 C -7,6 C 4,8 km/h (1 Bft) 100,00 %
30.01.2017 06:26 -7,6 C 94 % 1024,6 hPa 0,0 l/m 2,4 km/h (1 Bft) O-NO 73 0 min 0,000 mm 0,0 UV-I 0 W/m -8,4 C -7,6 C 3,2 km/h (1 Bft) 98,11 %
30.01.2017 06:28 -7,6 C 94 % 1024,5 hPa 0,0 l/m 2,6 km/h (1 Bft) O 82 0 min 0,000 mm 0,0 UV-I 0 W/m -8,4 C -7,6 C 4,8 km/h (1 Bft) 100,00 %
30.01.2017 06:30 -7,6 C 94 % 1024,6 hPa 0,0 l/m 2,5 km/h (1 Bft) O 88 0 min 0,000 mm 0,0 UV-I 0 W/m -8,4 C -7,6 C 4,8 km/h (1 Bft) 97,96 %
30.01.2017 06:32 -7,6 C 94 % 1024,6 hPa 0,0 l/m 1,6 km/h (1 Bft) O-NO 67 0 min 0,000 mm 0,0 UV-I 0 W/m -8,4 C -7,6 C 3,2 km/h (1 Bft) 98,00 %
30.01.2017 06:34 -7,6 C 94 % 1024,6 hPa 0,0 l/m 0,2 km/h (0 Bft) O 98 0 min 0,000 mm 0,0 UV-I 0 W/m -8,4 C -7,6 C 1,6 km/h (1 Bft) 95,83 %
30.01.2017 06:36 -7,6 C 94 % 1024,6 hPa 0,0 l/m 0,7 km/h (0 Bft) O 80 0 min 0,000 mm 0,0 UV-I 0 W/m -8,4 C -7,6 C 3,2 km/h (1 Bft) 95,74 %
30.01.2017 06:38 -7,6 C 94 % 1024,5 hPa 0,0 l/m 2,7 km/h (1 Bft) O-NO 69 0 min 0,000 mm 0,0 UV-I 0 W/m -8,4 C -7,6 C 4,8 km/h (1 Bft) 97,56 %
30.01.2017 06:40 -7,6 C 94 % 1024,4 hPa 0,0 l/m 1,7 km/h (1 Bft) O 82 0 min 0,000 mm 0,0 UV-I 0 W/m -8,4 C -7,6 C 3,2 km/h (1 Bft) 100,00 %
30.01.2017 06:42 -7,6 C 94 % 1024,4 hPa 0,0 l/m 2,3 km/h (1 Bft) O-NO 71 0 min 0,000 mm 0,0 UV-I 0 W/m -8,4 C -7,6 C 4,8 km/h (1 Bft) 96,00 %
30.01.2017 06:44 -7,6 C 94 % 1024,5 hPa 0,0 l/m 3,0 km/h (1 Bft) O-NO 77 0 min 0,000 mm 0,0 UV-I 0 W/m -8,4 C -7,6 C 4,8 km/h (1 Bft) 96,00 %
30.01.2017 06:46 -7,6 C 94 % 1024,5 hPa 0,0 l/m 1,9 km/h (1 Bft) O 84 0 min 0,000 mm 0,0 UV-I 0 W/m -8,4 C -7,6 C 3,2 km/h (1 Bft) 93,18 %
30.01.2017 06:48 -7,6 C 94 % 1024,4 hPa 0,0 l/m 2,0 km/h (1 Bft) O 90 0 min 0,000 mm 0,0 UV-I 0 W/m -8,4 C -7,6 C 3,2 km/h (1 Bft) 90,57 %
30.01.2017 06:50 -7,6 C 94 % 1024,4 hPa 0,0 l/m 2,0 km/h (1 Bft) O 92 0 min 0,000 mm 0,0 UV-I 0 W/m -8,4 C -7,6 C 3,2 km/h (1 Bft) 97,37 %
30.01.2017 06:52 -7,6 C 94 % 1024,4 hPa 0,0 l/m 2,7 km/h (1 Bft) O-SO 106 0 min 0,000 mm 0,0 UV-I 0 W/m -8,4 C -7,6 C 4,8 km/h (1 Bft) 95,12 %
30.01.2017 06:54 -7,6 C 94 % 1024,5 hPa 0,0 l/m 1,9 km/h (1 Bft) O 90 0 min 0,000 mm 0,0 UV-I 0 W/m -8,4 C -7,6 C 3,2 km/h (1 Bft) 98,08 %
30.01.2017 06:56 -7,6 C 94 % 1024,5 hPa 0,0 l/m 4,0 km/h (1 Bft) O 79 0 min 0,000 mm 0,0 UV-I 0 W/m -8,4 C -7,6 C 6,4 km/h (2 Bft) 95,45 %
30.01.2017 06:58 -7,6 C 94 % 1024,5 hPa 0,0 l/m 4,4 km/h (1 Bft) NO 53 0 min 0,000 mm 0,0 UV-I 0 W/m -8,4 C -7,6 C 6,4 km/h (2 Bft) 96,61 %
30.01.2017 07:00 -7,6 C 94 % 1024,5 hPa 0,0 l/m 2,5 km/h (1 Bft) O-NO 73 0 min 0,000 mm 0,0 UV-I 0 W/m -8,4 C -7,6 C 4,8 km/h (1 Bft) 94,29 %
30.01.2017 07:03 -7,6 C 94 % 1024,6 hPa 0,0 l/m 3,0 km/h (1 Bft) NO 54 0 min 0,000 mm 0,0 UV-I 0 W/m -8,4 C -7,6 C 4,8 km/h (1 Bft) 94,81 %
30.01.2017 07:04 -7,6 C 94 % 1024,6 hPa 0,0 l/m 2,4 km/h (1 Bft) NO 55 0 min 0,000 mm 0,0 UV-I 0 W/m -8,4 C -7,6 C 3,2 km/h (1 Bft) 96,15 %
30.01.2017 07:06 -7,6 C 94 % 1024,6 hPa 0,0 l/m 2,3 km/h (1 Bft) NO 46 0 min 0,000 mm 0,0 UV-I 0 W/m -8,4 C -7,6 C 4,8 km/h (1 Bft) 93,62 %
30.01.2017 07:08 -7,6 C 94 % 1024,6 hPa 0,0 l/m 2,4 km/h (1 Bft) O-NO 61 0 min 0,000 mm 0,0 UV-I 0 W/m -8,4 C -7,6 C 4,8 km/h (1 Bft) 97,56 %
30.01.2017 07:10 -7,6 C 94 % 1024,6 hPa 0,0 l/m 2,6 km/h (1 Bft) O-NO 73 0 min 0,000 mm 0,0 UV-I 0 W/m -8,4 C -7,6 C 4,8 km/h (1 Bft) 94,34 %
30.01.2017 07:12 -7,6 C 94 % 1024,6 hPa 0,0 l/m 2,6 km/h (1 Bft) O-NO 57 0 min 0,000 mm 0,0 UV-I 0 W/m -8,4 C -7,6 C 4,8 km/h (1 Bft) 92,86 %
30.01.2017 07:14 -7,6 C 94 % 1024,6 hPa 0,0 l/m 2,8 km/h (1 Bft) O-NO 57 0 min 0,000 mm 0,0 UV-I 0 W/m -8,4 C -7,6 C 4,8 km/h (1 Bft) 97,73 %
30.01.2017 07:16 -7,6 C 94 % 1024,5 hPa 0,0 l/m 4,0 km/h (1 Bft) O-NO 64 0 min 0,000 mm 0,0 UV-I 0 W/m -8,4 C -7,6 C 4,8 km/h (1 Bft) 95,12 %
30.01.2017 07:18 -7,6 C 94 % 1024,6 hPa 0,0 l/m 3,7 km/h (1 Bft) O-NO 59 0 min 0,000 mm 0,0 UV-I 0 W/m -8,4 C -7,6 C 6,4 km/h (2 Bft) 94,34 %
30.01.2017 07:20 -7,6 C 94 % 1024,6 hPa 0,0 l/m 4,2 km/h (1 Bft) O 88 0 min 0,000 mm 0,0 UV-I 0 W/m -8,4 C -7,6 C 6,4 km/h (2 Bft) 93,62 %
30.01.2017 07:22 -7,6 C 94 % 1024,5 hPa 0,0 l/m 3,0 km/h (1 Bft) O-NO 68 0 min 0,000 mm 0,0 UV-I 0 W/m -8,4 C -7,6 C 4,8 km/h (1 Bft) 94,00 %
30.01.2017 07:24 -7,6 C 94 % 1024,5 hPa 0,0 l/m 4,1 km/h (1 Bft) O 80 0 min 0,000 mm 0,0 UV-I 0 W/m -8,4 C -7,6 C 6,4 km/h (2 Bft) 97,73 %
30.01.2017 07:26 -7,6 C 94 % 1024,4 hPa 0,0 l/m 3,1 km/h (1 Bft) O-NO 67 0 min 0,000 mm 0,0 UV-I 0 W/m -8,4 C -7,6 C 4,8 km/h (1 Bft) 100,00 %
30.01.2017 07:28 -7,6 C 94 % 1024,5 hPa 0,0 l/m 3,4 km/h (1 Bft) O-NO 67 0 min 0,000 mm 0,0 UV-I 3 W/m -8,4 C -7,6 C 4,8 km/h (1 Bft) 100,00 %
30.01.2017 07:30 -7,6 C 94 % 1024,4 hPa 0,0 l/m 2,4 km/h (1 Bft) O-NO 60 0 min 0,000 mm 0,0 UV-I 5 W/m -8,4 C -7,6 C 3,2 km/h (1 Bft) 100,00 %
30.01.2017 07:32 -7,6 C 94 % 1024,5 hPa 0,0 l/m 1,2 km/h (1 Bft) O-NO 76 0 min 0,000 mm 0,0 UV-I 5 W/m -8,4 C -7,6 C 3,2 km/h (1 Bft) 98,00 %
30.01.2017 07:34 -7,6 C 94 % 1024,6 hPa 0,0 l/m 2,6 km/h (1 Bft) O-NO 62 0 min 0,000 mm 0,0 UV-I 5 W/m -8,4 C -7,6 C 4,8 km/h (1 Bft) 95,74 %
30.01.2017 07:36 -7,6 C 94 % 1024,6 hPa 0,0 l/m 2,3 km/h (1 Bft) O-NO 69 0 min 0,000 mm 0,0 UV-I 5 W/m -8,4 C -7,6 C 4,8 km/h (1 Bft) 96,00 %
30.01.2017 07:38 -7,6 C 94 % 1024,6 hPa 0,0 l/m 1,9 km/h (1 Bft) O-NO 78 0 min 0,000 mm 0,0 UV-I 5 W/m -8,4 C -7,6 C 3,2 km/h (1 Bft) 100,00 %
30.01.2017 07:40 -7,6 C 94 % 1024,6 hPa 0,0 l/m 1,9 km/h (1 Bft) O-SO 117 0 min 0,000 mm 0,0 UV-I 5 W/m -8,4 C -7,6 C 3,2 km/h (1 Bft) 100,00 %
30.01.2017 07:42 -7,5 C 94 % 1024,7 hPa 0,0 l/m 0,3 km/h (0 Bft) O-SO 117 0 min 0,000 mm 0,0 UV-I 7 W/m -8,3 C -7,5 C 1,6 km/h (1 Bft) 97,87 %
30.01.2017 07:44 -7,5 C 94 % 1024,7 hPa 0,0 l/m 0,9 km/h (0 Bft) O-NO 71 0 min 0,000 mm 0,0 UV-I 7 W/m -8,3 C -7,5 C 3,2 km/h (1 Bft) 97,87 %
30.01.2017 07:46 -7,5 C 94 % 1024,7 hPa 0,0 l/m 1,7 km/h (1 Bft) NO 44 0 min 0,000 mm 0,0 UV-I 7 W/m -8,3 C -7,5 C 3,2 km/h (1 Bft) 100,00 %
30.01.2017 07:48 -7,5 C 94 % 1024,6 hPa 0,0 l/m 1,4 km/h (1 Bft) NO 38 0 min 0,000 mm 0,0 UV-I 7 W/m -8,3 C -7,5 C 3,2 km/h (1 Bft) 95,74 %
30.01.2017 07:50 -7,4 C 94 % 1024,6 hPa 0,0 l/m 1,9 km/h (1 Bft) NO 43 0 min 0,000 mm 0,0 UV-I 9 W/m -8,2 C -7,4 C 3,2 km/h (1 Bft) 97,73 %
30.01.2017 07:52 -7,4 C 94 % 1024,6 hPa 0,0 l/m 2,4 km/h (1 Bft) O-NO 65 0 min 0,000 mm 0,0 UV-I 9 W/m -8,2 C -7,4 C 3,2 km/h (1 Bft) 93,62 %
30.01.2017 07:54 -7,4 C 94 % 1024,6 hPa 0,0 l/m 1,5 km/h (1 Bft) O-NO 63 0 min 0,000 mm 0,0 UV-I 10 W/m -8,2 C -7,4 C 3,2 km/h (1 Bft) 100,00 %
30.01.2017 07:56 -7,4 C 94 % 1024,6 hPa 0,0 l/m 2,2 km/h (1 Bft) O-NO 67 0 min 0,000 mm 0,0 UV-I 11 W/m -8,2 C -7,4 C 3,2 km/h (1 Bft) 100,00 %
30.01.2017 07:58 -7,4 C 94 % 1024,6 hPa 0,0 l/m 2,5 km/h (1 Bft) O-NO 58 0 min 0,000 mm 0,0 UV-I 11 W/m -8,2 C -7,4 C 4,8 km/h (1 Bft) 98,00 %
30.01.2017 08:00 -7,4 C 94 % 1024,6 hPa 0,0 l/m 1,9 km/h (1 Bft) NO 42 0 min 0,000 mm 0,0 UV-I 11 W/m -8,2 C -7,4 C 3,2 km/h (1 Bft) 100,00 %
30.01.2017 08:02 -7,4 C 94 % 1024,6 hPa 0,0 l/m 2,8 km/h (1 Bft) O-NO 67 0 min 0,000 mm 0,0 UV-I 12 W/m -8,2 C -7,4 C 4,8 km/h (1 Bft) 100,00 %
30.01.2017 08:04 -7,4 C 94 % 1024,5 hPa 0,0 l/m 3,3 km/h (1 Bft) O-NO 59 0 min 0,000 mm 0,0 UV-I 13 W/m -8,2 C -7,4 C 4,8 km/h (1 Bft) 95,74 %
30.01.2017 08:06 -7,4 C 94 % 1024,5 hPa 0,0 l/m 2,9 km/h (1 Bft) NO 54 0 min 0,000 mm 0,0 UV-I 14 W/m -8,2 C -7,4 C 4,8 km/h (1 Bft) 95,74 %
30.01.2017 08:08 -7,4 C 94 % 1024,5 hPa 0,0 l/m 2,9 km/h (1 Bft) O-NO 58 0 min 0,000 mm 0,0 UV-I 15 W/m -8,2 C -7,4 C 4,8 km/h (1 Bft) 100,00 %
30.01.2017 08:10 -7,4 C 94 % 1024,6 hPa 0,0 l/m 3,9 km/h (1 Bft) O-NO 59 0 min 0,000 mm 0,0 UV-I 17 W/m -8,2 C -7,4 C 4,8 km/h (1 Bft) 100,00 %
30.01.2017 08:12 -7,4 C 94 % 1024,5 hPa 0,0 l/m 3,3 km/h (1 Bft) NO 44 0 min 0,000 mm 0,0 UV-I 18 W/m -8,2 C -7,4 C 4,8 km/h (1 Bft) 100,00 %
30.01.2017 08:14 -7,4 C 94 % 1024,6 hPa 0,0 l/m 2,6 km/h (1 Bft) NO 43 0 min 0,000 mm 0,0 UV-I 18 W/m -8,2 C -7,4 C 4,8 km/h (1 Bft) 98,11 %
30.01.2017 08:16 -7,4 C 94 % 1024,6 hPa 0,0 l/m 2,8 km/h (1 Bft) O-NO 64 0 min 0,000 mm 0,0 UV-I 19 W/m -8,2 C -7,4 C 4,8 km/h (1 Bft) 97,56 %
30.01.2017 08:18 -7,4 C 94 % 1024,6 hPa 0,0 l/m 2,9 km/h (1 Bft) O-NO 60 0 min 0,000 mm 0,0 UV-I 20 W/m -8,2 C -7,4 C 3,2 km/h (1 Bft) 100,00 %
30.01.2017 08:20 -7,4 C 94 % 1024,6 hPa 0,0 l/m 2,8 km/h (1 Bft) NO 55 0 min 0,000 mm 0,0 UV-I 21 W/m -8,2 C -7,4 C 4,8 km/h (1 Bft) 100,00 %
30.01.2017 08:22 -7,4 C 94 % 1024,6 hPa 0,0 l/m 3,7 km/h (1 Bft) O-NO 64 0 min 0,000 mm 0,0 UV-I 21 W/m -8,2 C -7,4 C 4,8 km/h (1 Bft) 100,00 %
30.01.2017 08:24 -7,4 C 94 % 1024,6 hPa 0,0 l/m 2,1 km/h (1 Bft) NO 55 0 min 0,000 mm 0,0 UV-I 23 W/m -8,2 C -7,4 C 4,8 km/h (1 Bft) 98,21 %
30.01.2017 08:26 -7,4 C 94 % 1024,6 hPa 0,0 l/m 2,0 km/h (1 Bft) O-NO 61 0 min 0,000 mm 0,0 UV-I 25 W/m -8,2 C -7,4 C 3,2 km/h (1 Bft) 100,00 %
30.01.2017 08:28 -7,4 C 94 % 1024,5 hPa 0,0 l/m 2,4 km/h (1 Bft) O-NO 78 0 min 0,000 mm 0,0 UV-I 26 W/m -8,2 C -7,4 C 4,8 km/h (1 Bft) 96,43 %
30.01.2017 08:30 -7,4 C 94 % 1024,6 hPa 0,0 l/m 4,2 km/h (1 Bft) NO 55 0 min 0,000 mm 0,0 UV-I 28 W/m -8,2 C -7,4 C 6,4 km/h (2 Bft) 100,00 %
30.01.2017 08:32 -7,4 C 94 % 1024,5 hPa 0,0 l/m 3,4 km/h (1 Bft) O-NO 74 0 min 0,000 mm 0,0 UV-I 28 W/m -8,2 C -7,4 C 4,8 km/h (1 Bft) 100,00 %
30.01.2017 08:34 -7,4 C 94 % 1024,5 hPa 0,0 l/m 2,9 km/h (1 Bft) NO 49 0 min 0,000 mm 0,0 UV-I 29 W/m -8,2 C -7,4 C 4,8 km/h (1 Bft) 100,00 %
30.01.2017 08:36 -7,4 C 94 % 1024,5 hPa 0,0 l/m 3,7 km/h (1 Bft) O-NO 78 0 min 0,000 mm 0,0 UV-I 30 W/m -8,2 C -7,4 C 4,8 km/h (1 Bft) 95,83 %
30.01.2017 08:38 -7,4 C 94 % 1024,5 hPa 0,0 l/m 3,5 km/h (1 Bft) NO 42 0 min 0,000 mm 0,0 UV-I 32 W/m -8,2 C -7,4 C 4,8 km/h (1 Bft) 100,00 %
30.01.2017 08:40 -7,4 C 94 % 1024,6 hPa 0,0 l/m 4,0 km/h (1 Bft) O-NO 61 0 min 0,000 mm 0,0 UV-I 35 W/m -8,2 C -7,4 C 6,4 km/h (2 Bft) 100,00 %
30.01.2017 08:42 -7,4 C 94 % 1024,6 hPa 0,0 l/m 4,4 km/h (1 Bft) O 80 0 min 0,000 mm 0,0 UV-I 39 W/m -8,2 C -7,4 C 6,4 km/h (2 Bft) 100,00 %
30.01.2017 08:44 -7,5 C 94 % 1024,5 hPa 0,0 l/m 3,7 km/h (1 Bft) O-NO 69 0 min 0,000 mm 0,0 UV-I 39 W/m -8,3 C -7,5 C 6,4 km/h (2 Bft) 100,00 %
30.01.2017 08:46 -7,5 C 94 % 1024,5 hPa 0,0 l/m 2,8 km/h (1 Bft) O-SO 105 0 min 0,000 mm 0,0 UV-I 40 W/m -8,3 C -7,5 C 4,8 km/h (1 Bft) 97,56 %
30.01.2017 08:48 -7,5 C 94 % 1024,5 hPa 0,0 l/m 2,6 km/h (1 Bft) O 82 0 min 0,000 mm 0,0 UV-I 40 W/m -8,3 C -7,5 C 4,8 km/h (1 Bft) 98,11 %
30.01.2017 08:50 -7,5 C 94 % 1024,5 hPa 0,0 l/m 2,0 km/h (1 Bft) O 88 0 min 0,000 mm 0,0 UV-I 42 W/m -8,3 C -7,5 C 3,2 km/h (1 Bft) 96,00 %
30.01.2017 08:52 -7,5 C 94 % 1024,5 hPa 0,0 l/m 3,1 km/h (1 Bft) O-NO 73 0 min 0,000 mm 0,0 UV-I 42 W/m -8,3 C -7,5 C 4,8 km/h (1 Bft) 95,74 %
30.01.2017 08:54 -7,4 C 94 % 1024,5 hPa 0,0 l/m 2,5 km/h (1 Bft) O-NO 60 0 min 0,000 mm 0,0 UV-I 43 W/m -8,2 C -7,4 C 3,2 km/h (1 Bft) 97,56 %
30.01.2017 08:56 -7,4 C 94 % 1024,4 hPa 0,0 l/m 3,3 km/h (1 Bft) O-NO 69 0 min 0,000 mm 0,0 UV-I 46 W/m -8,2 C -7,4 C 4,8 km/h (1 Bft) 97,56 %
30.01.2017 08:58 -7,4 C 94 % 1024,5 hPa 0,0 l/m 2,8 km/h (1 Bft) O-NO 61 0 min 0,000 mm 0,0 UV-I 47 W/m -8,2 C -7,4 C 3,2 km/h (1 Bft) 96,23 %
30.01.2017 09:00 -7,4 C 94 % 1024,4 hPa 0,0 l/m 2,6 km/h (1 Bft) O-NO 65 0 min 0,000 mm 0,0 UV-I 49 W/m -8,2 C -7,4 C 4,8 km/h (1 Bft) 96,23 %
30.01.2017 09:02 -7,4 C 94 % 1024,4 hPa 0,0 l/m 1,6 km/h (1 Bft) O-NO 60 0 min 0,000 mm 0,0 UV-I 50 W/m -8,2 C -7,4 C 3,2 km/h (1 Bft) 96,00 %
30.01.2017 09:04 -7,4 C 94 % 1024,4 hPa 0,0 l/m 1,9 km/h (1 Bft) O-NO 61 0 min 0,000 mm 0,0 UV-I 52 W/m -8,2 C -7,4 C 3,2 km/h (1 Bft) 94,74 %
30.01.2017 09:06 -7,3 C 94 % 1024,4 hPa 0,0 l/m 1,4 km/h (1 Bft) O 93 0 min 0,000 mm 0,0 UV-I 52 W/m -8,1 C -7,3 C 3,2 km/h (1 Bft) 96,00 %
30.01.2017 09:08 -7,3 C 94 % 1024,4 hPa 0,0 l/m 0,5 km/h (0 Bft) O 93 0 min 0,000 mm 0,0 UV-I 51 W/m -8,1 C -7,3 C 1,6 km/h (1 Bft) 97,87 %
30.01.2017 09:10 -7,3 C 94 % 1024,4 hPa 0,0 l/m 1,1 km/h (1 Bft) O-NO 65 0 min 0,000 mm 0,0 UV-I 52 W/m -8,1 C -7,3 C 3,2 km/h (1 Bft) 98,11 %
30.01.2017 09:12 -7,3 C 94 % 1024,4 hPa 0,0 l/m 2,2 km/h (1 Bft) O-NO 58 0 min 0,000 mm 0,0 UV-I 52 W/m -8,1 C -7,3 C 4,8 km/h (1 Bft) 97,73 %
30.01.2017 09:14 -7,3 C 94 % 1024,3 hPa 0,0 l/m 3,3 km/h (1 Bft) O-NO 71 0 min 0,000 mm 0,0 UV-I 53 W/m -8,1 C -7,3 C 4,8 km/h (1 Bft) 97,62 %
30.01.2017 09:16 -7,3 C 94 % 1024,3 hPa 0,0 l/m 2,4 km/h (1 Bft) NO 41 0 min 0,000 mm 0,0 UV-I 54 W/m -8,1 C -7,3 C 4,8 km/h (1 Bft) 96,00 %
30.01.2017 09:18 -7,3 C 94 % 1024,3 hPa 0,0 l/m 2,7 km/h (1 Bft) O-NO 74 0 min 0,000 mm 0,0 UV-I 54 W/m -8,1 C -7,3 C 4,8 km/h (1 Bft) 93,62 %
30.01.2017 09:20 -7,3 C 94 % 1024,3 hPa 0,0 l/m 2,3 km/h (1 Bft) NO 53 0 min 0,000 mm 0,0 UV-I 55 W/m -8,1 C -7,3 C 3,2 km/h (1 Bft) 97,56 %
30.01.2017 09:22 -7,3 C 94 % 1024,3 hPa 0,0 l/m 1,0 km/h (0 Bft) O-NO 57 0 min 0,000 mm 0,0 UV-I 56 W/m -8,1 C -7,3 C 3,2 km/h (1 Bft) 97,87 %
30.01.2017 09:24 -7,3 C 94 % 1024,3 hPa 0,0 l/m 1,4 km/h (1 Bft) O-NO 58 0 min 0,000 mm 0,0 UV-I 57 W/m -8,1 C -7,3 C 3,2 km/h (1 Bft) 97,73 %
30.01.2017 09:26 -7,3 C 94 % 1024,2 hPa 0,0 l/m 3,4 km/h (1 Bft) O-NO 58 0 min 0,000 mm 0,0 UV-I 61 W/m -8,1 C -7,3 C 4,8 km/h (1 Bft) 98,11 %
30.01.2017 09:28 -7,3 C 94 % 1024,2 hPa 0,0 l/m 2,5 km/h (1 Bft) O-NO 57 0 min 0,000 mm 0,0 UV-I 62 W/m -8,1 C -7,3 C 4,8 km/h (1 Bft) 95,74 %
30.01.2017 09:30 -7,2 C 94 % 1024,2 hPa 0,0 l/m 3,0 km/h (1 Bft) O-NO 71 0 min 0,000 mm 0,0 UV-I 63 W/m -8,0 C -7,2 C 4,8 km/h (1 Bft) 98,11 %
30.01.2017 09:32 -7,2 C 94 % 1024,2 hPa 0,0 l/m 3,5 km/h (1 Bft) NO 55 0 min 0,000 mm 0,0 UV-I 66 W/m -8,0 C -7,2 C 4,8 km/h (1 Bft) 100,00 %
30.01.2017 09:34 -7,2 C 94 % 1024,2 hPa 0,0 l/m 3,2 km/h (1 Bft) N-NO 28 0 min 0,000 mm 0,0 UV-I 67 W/m -8,0 C -7,2 C 4,8 km/h (1 Bft) 100,00 %
30.01.2017 09:36 -7,2 C 94 % 1024,2 hPa 0,0 l/m 3,9 km/h (1 Bft) NO 51 0 min 0,000 mm 0,0 UV-I 69 W/m -8,0 C -7,2 C 4,8 km/h (1 Bft) 98,11 %
30.01.2017 09:38 -7,2 C 94 % 1024,2 hPa 0,0 l/m 2,6 km/h (1 Bft) NO 45 0 min 0,000 mm 0,0 UV-I 70 W/m -8,0 C -7,2 C 4,8 km/h (1 Bft) 100,00 %
30.01.2017 09:40 -7,2 C 94 % 1024,2 hPa 0,0 l/m 3,5 km/h (1 Bft) O-NO 66 0 min 0,000 mm 0,0 UV-I 70 W/m -8,0 C -7,2 C 4,8 km/h (1 Bft) 95,12 %
30.01.2017 09:42 -7,2 C 94 % 1024,2 hPa 0,0 l/m 4,1 km/h (1 Bft) NO 38 0 min 0,000 mm 0,0 UV-I 73 W/m -8,0 C -7,2 C 4,8 km/h (1 Bft) 95,45 %
30.01.2017 09:44 -7,2 C 94 % 1024,2 hPa 0,0 l/m 3,5 km/h (1 Bft) NO 51 0 min 0,000 mm 0,0 UV-I 76 W/m -8,0 C -7,2 C 4,8 km/h (1 Bft) 100,00 %
30.01.2017 09:46 -7,3 C 94 % 1024,2 hPa 0,0 l/m 4,4 km/h (1 Bft) NO 55 0 min 0,000 mm 0,0 UV-I 74 W/m -8,1 C -7,3 C 6,4 km/h (2 Bft) 100,00 %
30.01.2017 09:48 -7,3 C 94 % 1024,2 hPa 0,0 l/m 6,0 km/h (2 Bft) O-NO 57 0 min 0,000 mm 0,0 UV-I 77 W/m -8,1 C -7,3 C 8,0 km/h (2 Bft) 100,00 %
30.01.2017 09:50 -7,3 C 94 % 1024,2 hPa 0,0 l/m 6,1 km/h (2 Bft) NO 55 0 min 0,000 mm 0,0 UV-I 78 W/m -8,1 C -7,3 C 8,0 km/h (2 Bft) 100,00 %
30.01.2017 09:52 -7,3 C 94 % 1024,2 hPa 0,0 l/m 4,4 km/h (1 Bft) NO 55 0 min 0,000 mm 0,0 UV-I 79 W/m -8,1 C -7,3 C 6,4 km/h (2 Bft) 100,00 %
30.01.2017 09:54 -7,3 C 94 % 1024,1 hPa 0,0 l/m 4,6 km/h (1 Bft) NO 40 0 min 0,000 mm 0,0 UV-I 81 W/m -8,1 C -7,3 C 8,0 km/h (2 Bft) 100,00 %
30.01.2017 09:56 -7,3 C 94 % 1024,1 hPa 0,0 l/m 5,3 km/h (1 Bft) O-NO 62 0 min 0,000 mm 0,0 UV-I 83 W/m -8,1 C -7,3 C 8,0 km/h (2 Bft) 100,00 %
30.01.2017 09:58 -7,3 C 94 % 1024,1 hPa 0,0 l/m 6,1 km/h (2 Bft) O-NO 57 0 min 0,000 mm 0,0 UV-I 83 W/m -8,1 C -7,3 C 9,7 km/h (2 Bft) 100,00 %
30.01.2017 10:00 -7,4 C 94 % 1024,1 hPa 0,0 l/m 6,7 km/h (2 Bft) O-NO 60 0 min 0,000 mm 0,0 UV-I 85 W/m -8,2 C -7,8 C 11,3 km/h (2 Bft) 98,11 %
30.01.2017 10:02 -7,4 C 94 % 1024,1 hPa 0,0 l/m 5,4 km/h (1 Bft) O-NO 69 0 min 0,025 mm 0,0 UV-I 87 W/m -8,2 C -7,4 C 6,4 km/h (2 Bft) 100,00 %
30.01.2017 10:04 -7,4 C 94 % 1024,1 hPa 0,0 l/m 4,9 km/h (1 Bft) O-NO 65 0 min 0,000 mm 0,0 UV-I 88 W/m -8,2 C -7,4 C 11,3 km/h (2 Bft) 98,11 %
30.01.2017 10:06 -7,3 C 94 % 1024,1 hPa 0,0 l/m 4,2 km/h (1 Bft) NO 51 0 min 0,000 mm 0,0 UV-I 83 W/m -8,1 C -7,3 C 6,4 km/h (2 Bft) 100,00 %
30.01.2017 10:08 -7,3 C 94 % 1024,1 hPa 0,0 l/m 6,4 km/h (2 Bft) O-NO 65 0 min 0,000 mm 0,0 UV-I 80 W/m -8,1 C -7,2 C 9,7 km/h (2 Bft) 100,00 %
30.01.2017 10:10 -7,3 C 94 % 1024,1 hPa 0,0 l/m 5,6 km/h (1 Bft) NO 49 0 min 0,000 mm 0,0 UV-I 85 W/m -8,1 C -7,3 C 8,0 km/h (2 Bft) 100,00 %
30.01.2017 10:12 -7,3 C 94 % 1024,1 hPa 0,0 l/m 5,6 km/h (1 Bft) O-NO 67 0 min 0,000 mm 0,0 UV-I 93 W/m -8,1 C -7,3 C 8,0 km/h (2 Bft) 100,00 %
30.01.2017 10:14 -7,3 C 94 % 1024,0 hPa 0,0 l/m 5,3 km/h (1 Bft) O 85 0 min 0,000 mm 0,0 UV-I 100 W/m -8,1 C -7,3 C 8,0 km/h (2 Bft) 100,00 %
30.01.2017 10:16 -7,3 C 94 % 1024,0 hPa 0,0 l/m 3,7 km/h (1 Bft) O-NO 63 0 min 0,000 mm 0,0 UV-I 104 W/m -8,1 C -7,3 C 6,4 km/h (2 Bft) 97,37 %
30.01.2017 10:18 -7,3 C 94 % 1024,0 hPa 0,0 l/m 5,8 km/h (2 Bft) NO 53 0 min 0,000 mm 0,0 UV-I 104 W/m -8,1 C -7,3 C 9,7 km/h (2 Bft) 100,00 %
30.01.2017 10:20 -7,3 C 94 % 1024,0 hPa 0,0 l/m 4,9 km/h (1 Bft) O-NO 59 0 min 0,000 mm 0,0 UV-I 105 W/m -8,1 C -7,3 C 8,0 km/h (2 Bft) 100,00 %
30.01.2017 10:22 -7,3 C 94 % 1024,0 hPa 0,0 l/m 5,9 km/h (2 Bft) O-SO 115 0 min 0,000 mm 0,0 UV-I 108 W/m -8,1 C -7,3 C 9,7 km/h (2 Bft) 100,00 %
30.01.2017 10:24 -7,2 C 94 % 1023,9 hPa 0,0 l/m 5,7 km/h (1 Bft) SO 127 0 min 0,000 mm 0,0 UV-I 111 W/m -8,0 C -7,2 C 8,0 km/h (2 Bft) 100,00 %
30.01.2017 10:26 -7,3 C 94 % 1023,9 hPa 0,0 l/m 5,0 km/h (1 Bft) O 86 0 min 0,000 mm 0,0 UV-I 109 W/m -8,1 C -7,3 C 8,0 km/h (2 Bft) 98,00 %
30.01.2017 10:28 -7,3 C 94 % 1024,0 hPa 0,0 l/m 4,6 km/h (1 Bft) O-NO 69 0 min 0,000 mm 0,0 UV-I 105 W/m -8,1 C -7,3 C 6,4 km/h (2 Bft) 100,00 %
30.01.2017 10:30 -7,3 C 94 % 1023,9 hPa 0,0 l/m 2,9 km/h (1 Bft) NO 50 0 min 0,000 mm 0,0 UV-I 104 W/m -8,1 C -7,3 C 4,8 km/h (1 Bft) 100,00 %
30.01.2017 10:32 -7,2 C 94 % 1023,9 hPa 0,0 l/m 4,4 km/h (1 Bft) O 82 0 min 0,000 mm 0,0 UV-I 106 W/m -8,0 C -7,2 C 6,4 km/h (2 Bft) 100,00 %
30.01.2017 10:34 -7,2 C 94 % 1023,9 hPa 0,0 l/m 5,7 km/h (1 Bft) O-NO 75 0 min 0,000 mm 0,0 UV-I 109 W/m -8,0 C -7,2 C 8,0 km/h (2 Bft) 100,00 %
30.01.2017 10:36 -7,2 C 94 % 1023,9 hPa 0,0 l/m 6,4 km/h (2 Bft) O-NO 78 0 min 0,000 mm 0,0 UV-I 109 W/m -8,0 C -7,1 C 11,3 km/h (2 Bft) 100,00 %
30.01.2017 10:38 -7,2 C 94 % 1023,8 hPa 0,0 l/m 7,1 km/h (2 Bft) O-NO 77 0 min 0,000 mm 0,0 UV-I 109 W/m -8,0 C -8,1 C 11,3 km/h (2 Bft) 98,31 %
30.01.2017 10:40 -7,2 C 94 % 1023,9 hPa 0,0 l/m 5,5 km/h (1 Bft) O-NO 66 0 min 0,000 mm 0,0 UV-I 108 W/m -8,0 C -7,2 C 8,0 km/h (2 Bft) 100,00 %
30.01.2017 10:42 -7,2 C 94 % 1023,9 hPa 0,0 l/m 5,0 km/h (1 Bft) NO 55 0 min 0,000 mm 0,0 UV-I 104 W/m -8,0 C -7,2 C 8,0 km/h (2 Bft) 100,00 %
30.01.2017 10:44 -7,2 C 94 % 1023,8 hPa 0,0 l/m 7,6 km/h (2 Bft) NO 51 0 min 0,000 mm 0,0 UV-I 102 W/m -8,0 C -8,7 C 9,7 km/h (2 Bft) 100,00 %
30.01.2017 10:46 -7,2 C 94 % 1023,9 hPa 0,0 l/m 6,7 km/h (2 Bft) NO 47 0 min 0,000 mm 0,0 UV-I 105 W/m -8,0 C -7,6 C 11,3 km/h (2 Bft) 100,00 %
30.01.2017 10:48 -7,2 C 94 % 1023,8 hPa 0,0 l/m 7,0 km/h (2 Bft) NO 53 0 min 0,000 mm 0,0 UV-I 107 W/m -8,0 C -8,0 C 9,7 km/h (2 Bft) 97,56 %
30.01.2017 10:50 -7,2 C 94 % 1023,8 hPa 0,0 l/m 6,6 km/h (2 Bft) O-NO 58 0 min 0,000 mm 0,0 UV-I 110 W/m -8,0 C -7,4 C 9,7 km/h (2 Bft) 94,34 %
30.01.2017 10:52 -7,3 C 94 % 1023,8 hPa 0,0 l/m 11,4 km/h (2 Bft) O-NO 77 0 min 0,000 mm 0,4 UV-I 115 W/m -8,1 C -12,9 C 14,5 km/h (3 Bft) 97,73 %
30.01.2017 10:54 -7,3 C 94 % 1023,7 hPa 0,0 l/m 8,5 km/h (2 Bft) NO 54 0 min 0,000 mm 0,5 UV-I 114 W/m -8,1 C -9,9 C 12,9 km/h (3 Bft) 95,12 %
30.01.2017 10:56 -7,3 C 94 % 1023,7 hPa 0,0 l/m 9,5 km/h (2 Bft) NO 50 0 min 0,000 mm 0,5 UV-I 118 W/m -8,1 C -11,0 C 12,9 km/h (3 Bft) 98,00 %
30.01.2017 10:58 -7,3 C 94 % 1023,7 hPa 0,0 l/m 7,9 km/h (2 Bft) O-NO 63 0 min 0,000 mm 0,5 UV-I 122 W/m -8,1 C -9,2 C 9,7 km/h (2 Bft) 98,00 %
30.01.2017 11:00 -7,4 C 94 % 1023,7 hPa 0,0 l/m 8,2 km/h (2 Bft) O-NO 57 0 min 0,026 mm 0,5 UV-I 121 W/m -8,2 C -9,7 C 11,3 km/h (2 Bft) 94,74 %
30.01.2017 11:02 -7,4 C 94 % 1023,7 hPa 0,0 l/m 6,6 km/h (2 Bft) NO 44 0 min 0,000 mm 0,5 UV-I 119 W/m -8,2 C -7,6 C 9,7 km/h (2 Bft) 97,37 %
30.01.2017 11:04 -7,3 C 94 % 1023,7 hPa 0,0 l/m 8,0 km/h (2 Bft) NO 55 0 min 0,000 mm 0,5 UV-I 120 W/m -8,1 C -9,3 C 12,9 km/h (3 Bft) 98,11 %
30.01.2017 11:06 -7,4 C 94 % 1023,7 hPa 0,0 l/m 7,9 km/h (2 Bft) O 88 0 min 0,000 mm 0,5 UV-I 123 W/m -8,2 C -9,3 C 12,9 km/h (3 Bft) 96,61 %
30.01.2017 11:08 -7,4 C 94 % 1023,7 hPa 0,0 l/m 9,0 km/h (2 Bft) O-NO 77 0 min 0,000 mm 0,5 UV-I 127 W/m -8,2 C -10,6 C 12,9 km/h (3 Bft) 96,00 %
30.01.2017 11:10 -7,3 C 94 % 1023,6 hPa 0,0 l/m 8,3 km/h (2 Bft) O-NO 69 0 min 0,000 mm 0,5 UV-I 128 W/m -8,1 C -9,7 C 12,9 km/h (3 Bft) 97,56 %
30.01.2017 11:12 -7,3 C 94 % 1023,6 hPa 0,0 l/m 8,6 km/h (2 Bft) O-NO 78 0 min 0,000 mm 0,5 UV-I 129 W/m -8,1 C -10,0 C 11,3 km/h (2 Bft) 95,24 %
30.01.2017 11:14 -7,3 C 94 % 1023,6 hPa 0,0 l/m 6,1 km/h (2 Bft) O 101 0 min 0,000 mm 0,5 UV-I 128 W/m -8,1 C -7,3 C 9,7 km/h (2 Bft) 96,15 %
30.01.2017 11:16 -7,3 C 94 % 1023,5 hPa 0,0 l/m 6,1 km/h (2 Bft) O-NO 70 0 min 0,000 mm 0,5 UV-I 127 W/m -8,1 C -7,3 C 8,0 km/h (2 Bft) 98,00 %
30.01.2017 11:18 -7,3 C 94 % 1023,4 hPa 0,0 l/m 7,1 km/h (2 Bft) O-NO 65 0 min 0,000 mm 0,5 UV-I 130 W/m -8,1 C -8,2 C 12,9 km/h (3 Bft) 97,62 %
30.01.2017 11:20 -7,3 C 94 % 1023,5 hPa 0,0 l/m 6,1 km/h (2 Bft) O-NO 78 0 min 0,000 mm 0,5 UV-I 134 W/m -8,1 C -7,3 C 9,7 km/h (2 Bft) 98,00 %
30.01.2017 11:22 -7,2 C 94 % 1023,5 hPa 0,0 l/m 5,5 km/h (1 Bft) O-NO 62 0 min 0,000 mm 0,5 UV-I 133 W/m -8,0 C -7,2 C 8,0 km/h (2 Bft) 97,56 %
30.01.2017 11:24 -7,2 C 94 % 1023,4 hPa 0,0 l/m 5,0 km/h (1 Bft) NO 53 0 min 0,000 mm 0,5 UV-I 129 W/m -8,0 C -7,2 C 6,4 km/h (2 Bft) 98,11 %
30.01.2017 11:26 -7,2 C 94 % 1023,4 hPa 0,0 l/m 6,1 km/h (2 Bft) NO 55 0 min 0,000 mm 0,5 UV-I 129 W/m -8,0 C -7,2 C 8,0 km/h (2 Bft) 97,56 %
30.01.2017 11:28 -7,2 C 94 % 1023,4 hPa 0,0 l/m 5,2 km/h (1 Bft) O-NO 71 0 min 0,000 mm 0,5 UV-I 132 W/m -8,0 C -7,2 C 8,0 km/h (2 Bft) 98,11 %
30.01.2017 11:30 -7,2 C 94 % 1023,3 hPa 0,0 l/m 5,4 km/h (1 Bft) O-NO 64 0 min 0,000 mm 0,6 UV-I 134 W/m -8,0 C -7,2 C 8,0 km/h (2 Bft) 100,00 %
30.01.2017 11:32 -7,2 C 94 % 1023,3 hPa 0,0 l/m 5,0 km/h (1 Bft) O-NO 62 0 min 0,000 mm 0,6 UV-I 136 W/m -8,0 C -7,2 C 8,0 km/h (2 Bft) 100,00 %
30.01.2017 11:34 -7,2 C 94 % 1023,3 hPa 0,0 l/m 5,2 km/h (1 Bft) O-NO 62 0 min 0,000 mm 0,6 UV-I 137 W/m -8,0 C -7,2 C 8,0 km/h (2 Bft) 100,00 %
30.01.2017 11:36 -7,2 C 94 % 1023,2 hPa 0,0 l/m 7,5 km/h (2 Bft) O-NO 64 0 min 0,000 mm 0,6 UV-I 142 W/m -8,0 C -8,6 C 11,3 km/h (2 Bft) 100,00 %
30.01.2017 11:38 -7,2 C 94 % 1023,2 hPa 0,0 l/m 6,7 km/h (2 Bft) O-NO 69 0 min 0,000 mm 0,6 UV-I 148 W/m -8,0 C -7,6 C 8,0 km/h (2 Bft) 100,00 %
30.01.2017 11:40 -7,2 C 94 % 1023,2 hPa 0,0 l/m 4,3 km/h (1 Bft) NO 54 0 min 0,000 mm 0,6 UV-I 141 W/m -8,0 C -7,2 C 6,4 km/h (2 Bft) 97,73 %
30.01.2017 11:42 -7,2 C 94 % 1023,1 hPa 0,0 l/m 5,4 km/h (1 Bft) O-NO 70 0 min 0,000 mm 0,6 UV-I 140 W/m -8,0 C -7,2 C 11,3 km/h (2 Bft) 100,00 %
30.01.2017 11:44 -7,2 C 94 % 1023,0 hPa 0,0 l/m 6,3 km/h (2 Bft) O-NO 74 0 min 0,000 mm 0,6 UV-I 137 W/m -8,0 C -7,2 C 9,7 km/h (2 Bft) 100,00 %
30.01.2017 11:46 -7,2 C 94 % 1023,0 hPa 0,0 l/m 9,3 km/h (2 Bft) O-NO 74 0 min 0,000 mm 0,6 UV-I 138 W/m -8,0 C -10,7 C 12,9 km/h (3 Bft) 100,00 %
30.01.2017 11:48 -7,2 C 94 % 1023,0 hPa 0,0 l/m 6,9 km/h (2 Bft) NO 50 0 min 0,000 mm 0,6 UV-I 137 W/m -8,0 C -7,8 C 12,9 km/h (3 Bft) 100,00 %
30.01.2017 11:50 -7,1 C 94 % 1023,0 hPa 0,0 l/m 6,4 km/h (2 Bft) N-NO 28 0 min 0,000 mm 0,6 UV-I 135 W/m -7,9 C -7,0 C 9,7 km/h (2 Bft) 100,00 %
30.01.2017 11:52 -7,1 C 94 % 1022,9 hPa 0,0 l/m 6,4 km/h (2 Bft) O-NO 66 0 min 0,000 mm 0,6 UV-I 136 W/m -7,9 C -7,0 C 9,7 km/h (2 Bft) 100,00 %
30.01.2017 11:54 -7,1 C 94 % 1022,9 hPa 0,0 l/m 6,7 km/h (2 Bft) O-NO 69 0 min 0,000 mm 0,6 UV-I 139 W/m -7,9 C -7,5 C 8,0 km/h (2 Bft) 100,00 %
30.01.2017 11:56 -7,1 C 94 % 1022,9 hPa 0,0 l/m 4,8 km/h (1 Bft) NO 55 0 min 0,000 mm 0,6 UV-I 139 W/m -7,9 C -7,1 C 8,0 km/h (2 Bft) 100,00 %
30.01.2017 11:58 -7,0 C 94 % 1022,9 hPa 0,0 l/m 5,2 km/h (1 Bft) O-NO 72 0 min 0,000 mm 0,6 UV-I 136 W/m -7,8 C -7,0 C 8,0 km/h (2 Bft) 100,00 %
30.01.2017 12:00 -6,9 C 94 % 1022,9 hPa 0,0 l/m 5,2 km/h (1 Bft) O-NO 60 0 min 0,025 mm 0,6 UV-I 134 W/m -7,7 C -6,9 C 8,0 km/h (2 Bft) 100,00 %
30.01.2017 12:02 -6,9 C 94 % 1022,9 hPa 0,0 l/m 5,3 km/h (1 Bft) O-NO 62 0 min 0,000 mm 0,5 UV-I 129 W/m -7,7 C -6,9 C 8,0 km/h (2 Bft) 98,00 %
30.01.2017 12:04 -6,9 C 94 % 1022,9 hPa 0,0 l/m 6,5 km/h (2 Bft) O-NO 62 0 min 0,000 mm 0,6 UV-I 133 W/m -7,7 C -7,0 C 9,7 km/h (2 Bft) 100,00 %
30.01.2017 12:06 -6,9 C 94 % 1022,9 hPa 0,0 l/m 6,5 km/h (2 Bft) O-NO 61 0 min 0,000 mm 0,6 UV-I 134 W/m -7,7 C -7,0 C 8,0 km/h (2 Bft) 100,00 %
30.01.2017 12:08 -6,9 C 94 % 1022,8 hPa 0,0 l/m 7,2 km/h (2 Bft) NO 46 0 min 0,000 mm 0,6 UV-I 131 W/m -7,7 C -7,9 C 9,7 km/h (2 Bft) 100,00 %
30.01.2017 12:10 -6,9 C 94 % 1022,7 hPa 0,0 l/m 7,4 km/h (2 Bft) NO 51 0 min 0,000 mm 0,6 UV-I 135 W/m -7,7 C -8,2 C 9,7 km/h (2 Bft) 100,00 %
30.01.2017 12:12 -6,9 C 94 % 1022,7 hPa 0,0 l/m 7,8 km/h (2 Bft) NO 41 0 min 0,000 mm 0,6 UV-I 137 W/m -7,7 C -8,7 C 11,3 km/h (2 Bft) 100,00 %
30.01.2017 12:14 -6,9 C 94 % 1022,7 hPa 0,0 l/m 7,2 km/h (2 Bft) O-NO 70 0 min 0,000 mm 0,6 UV-I 139 W/m -7,7 C -7,9 C 11,3 km/h (2 Bft) 98,00 %
30.01.2017 12:16 -6,9 C 94 % 1022,6 hPa 0,0 l/m 5,6 km/h (1 Bft) NO 36 0 min 0,000 mm 0,6 UV-I 138 W/m -7,7 C -6,9 C 8,0 km/h (2 Bft) 100,00 %
30.01.2017 12:18 -6,9 C 94 % 1022,6 hPa 0,0 l/m 6,3 km/h (2 Bft) O-NO 71 0 min 0,000 mm 0,6 UV-I 136 W/m -7,7 C -6,9 C 9,7 km/h (2 Bft) 100,00 %
30.01.2017 12:20 -6,9 C 94 % 1022,6 hPa 0,0 l/m 6,1 km/h (2 Bft) NO 55 0 min 0,000 mm 0,6 UV-I 139 W/m -7,7 C -6,9 C 9,7 km/h (2 Bft) 100,00 %
30.01.2017 12:22 -6,9 C 94 % 1022,6 hPa 0,0 l/m 4,5 km/h (1 Bft) O-NO 58 0 min 0,000 mm 0,6 UV-I 134 W/m -7,7 C -6,9 C 6,4 km/h (2 Bft) 97,87 %
30.01.2017 12:24 -6,8 C 94 % 1022,6 hPa 0,0 l/m 6,1 km/h (2 Bft) O-NO 76 0 min 0,000 mm 0,6 UV-I 132 W/m -7,6 C -6,8 C 11,3 km/h (2 Bft) 100,00 %
30.01.2017 12:26 -6,8 C 94 % 1022,6 hPa 0,0 l/m 8,2 km/h (2 Bft) O-NO 78 0 min 0,000 mm 0,6 UV-I 140 W/m -7,6 C -9,0 C 12,9 km/h (3 Bft) 100,00 %
30.01.2017 12:28 -6,9 C 94 % 1022,5 hPa 0,0 l/m 8,5 km/h (2 Bft) O 86 0 min 0,000 mm 0,6 UV-I 140 W/m -7,7 C -9,5 C 12,9 km/h (3 Bft) 100,00 %
30.01.2017 12:30 -6,9 C 94 % 1022,5 hPa 0,0 l/m 8,7 km/h (2 Bft) NO 46 0 min 0,000 mm 0,6 UV-I 143 W/m -7,7 C -9,7 C 14,5 km/h (3 Bft) 100,00 %
30.01.2017 12:32 -6,9 C 94 % 1022,5 hPa 0,0 l/m 5,6 km/h (1 Bft) O-NO 65 0 min 0,000 mm 0,6 UV-I 148 W/m -7,7 C -6,9 C 9,7 km/h (2 Bft) 100,00 %
30.01.2017 12:34 -6,9 C 94 % 1022,4 hPa 0,0 l/m 8,2 km/h (2 Bft) O 93 0 min 0,000 mm 0,6 UV-I 154 W/m -7,7 C -9,1 C 14,5 km/h (3 Bft) 100,00 %
30.01.2017 12:36 -6,9 C 94 % 1022,4 hPa 0,0 l/m 10,4 km/h (2 Bft) O-NO 62 0 min 0,000 mm 0,6 UV-I 153 W/m -7,7 C -11,5 C 14,5 km/h (3 Bft) 100,00 %
30.01.2017 12:38 -6,8 C 94 % 1022,3 hPa 0,0 l/m 9,3 km/h (2 Bft) O-NO 62 0 min 0,000 mm 0,6 UV-I 154 W/m -7,6 C -10,2 C 14,5 km/h (3 Bft) 100,00 %
30.01.2017 12:40 -6,8 C 94 % 1022,1 hPa 0,0 l/m 9,1 km/h (2 Bft) O 88 0 min 0,000 mm 0,6 UV-I 157 W/m -7,6 C -10,0 C 14,5 km/h (3 Bft) 100,00 %
30.01.2017 12:42 -6,8 C 94 % 1022,1 hPa 0,0 l/m 8,0 km/h (2 Bft) O-NO 64 0 min 0,000 mm 0,6 UV-I 156 W/m -7,6 C -8,8 C 12,9 km/h (3 Bft) 100,00 %
30.01.2017 12:44 -6,8 C 94 % 1022,2 hPa 0,0 l/m 9,1 km/h (2 Bft) O-NO 74 0 min 0,000 mm 0,6 UV-I 155 W/m -7,6 C -10,0 C 14,5 km/h (3 Bft) 100,00 %
30.01.2017 12:46 -6,8 C 94 % 1022,1 hPa 0,0 l/m 8,5 km/h (2 Bft) O-NO 64 0 min 0,000 mm 0,6 UV-I 155 W/m -7,6 C -9,4 C 12,9 km/h (3 Bft) 92,11 %
30.01.2017 12:48 -6,8 C 94 % 1022,0 hPa 0,0 l/m 7,6 km/h (2 Bft) O-NO 67 0 min 0,000 mm 0,6 UV-I 155 W/m -7,6 C -8,3 C 12,9 km/h (3 Bft) 96,23 %
30.01.2017 12:50 -6,7 C 94 % 1022,1 hPa 0,0 l/m 6,7 km/h (2 Bft) O-NO 77 0 min 0,000 mm 0,6 UV-I 159 W/m -7,5 C -7,1 C 11,3 km/h (2 Bft) 97,73 %
30.01.2017 12:52 -6,7 C 95 % 1022,0 hPa 0,0 l/m 6,3 km/h (2 Bft) O-NO 69 0 min 0,000 mm 0,6 UV-I 158 W/m -7,4 C -6,7 C 12,9 km/h (3 Bft) 96,23 %
30.01.2017 12:54 -6,6 C 94 % 1022,0 hPa 0,0 l/m 6,9 km/h (2 Bft) O-NO 72 0 min 0,000 mm 0,6 UV-I 156 W/m -7,4 C -7,2 C 11,3 km/h (2 Bft) 97,73 %
30.01.2017 12:56 -6,6 C 94 % 1022,1 hPa 0,0 l/m 6,2 km/h (2 Bft) O-NO 74 0 min 0,000 mm 0,6 UV-I 155 W/m -7,4 C -6,6 C 11,3 km/h (2 Bft) 97,56 %
30.01.2017 12:58 -6,6 C 94 % 1022,1 hPa 0,0 l/m 5,2 km/h (1 Bft) O-NO 63 0 min 0,000 mm 0,6 UV-I 150 W/m -7,4 C -6,6 C 8,0 km/h (2 Bft) 96,00 %
30.01.2017 13:00 -6,6 C 94 % 1022,1 hPa 0,0 l/m 5,7 km/h (1 Bft) O-NO 65 0 min 0,000 mm 0,6 UV-I 150 W/m -7,4 C -6,6 C 8,0 km/h (2 Bft) 98,11 %
30.01.2017 13:03 -6,6 C 94 % 1022,0 hPa 0,0 l/m 7,6 km/h (2 Bft) O-NO 69 0 min 0,026 mm 0,6 UV-I 146 W/m -7,4 C -8,1 C 12,9 km/h (3 Bft) 96,61 %
30.01.2017 13:04 -6,6 C 94 % 1022,0 hPa 0,0 l/m 6,9 km/h (2 Bft) O-NO 57 0 min 0,000 mm 0,6 UV-I 148 W/m -7,4 C -7,2 C 11,3 km/h (2 Bft) 100,00 %
30.01.2017 13:06 -6,6 C 94 % 1021,9 hPa 0,0 l/m 7,3 km/h (2 Bft) O-NO 67 0 min 0,000 mm 0,6 UV-I 146 W/m -7,4 C -7,7 C 11,3 km/h (2 Bft) 92,86 %
30.01.2017 13:08 -6,6 C 94 % 1021,9 hPa 0,0 l/m 6,7 km/h (2 Bft) NO 55 0 min 0,000 mm 0,5 UV-I 143 W/m -7,4 C -7,0 C 11,3 km/h (2 Bft) 97,73 %
30.01.2017 13:10 -6,6 C 94 % 1021,9 hPa 0,0 l/m 4,7 km/h (1 Bft) O-NO 58 0 min 0,000 mm 0,5 UV-I 142 W/m -7,4 C -6,6 C 6,4 km/h (2 Bft) 95,12 %
30.01.2017 13:12 -6,6 C 94 % 1021,9 hPa 0,0 l/m 5,6 km/h (1 Bft) O 86 0 min 0,000 mm 0,5 UV-I 139 W/m -7,4 C -6,6 C 12,9 km/h (3 Bft) 98,00 %
30.01.2017 13:14 -6,6 C 94 % 1021,8 hPa 0,0 l/m 9,1 km/h (2 Bft) O-NO 57 0 min 0,000 mm 0,5 UV-I 136 W/m -7,4 C -9,8 C 12,9 km/h (3 Bft) 95,74 %
30.01.2017 13:16 -6,6 C 94 % 1021,8 hPa 0,0 l/m 6,3 km/h (2 Bft) O-NO 69 0 min 0,000 mm 0,5 UV-I 136 W/m -7,4 C -6,6 C 9,7 km/h (2 Bft) 100,00 %
30.01.2017 13:18 -6,6 C 94 % 1021,8 hPa 0,0 l/m 7,3 km/h (2 Bft) O-NO 78 0 min 0,000 mm 0,5 UV-I 135 W/m -7,4 C -7,7 C 12,9 km/h (3 Bft) 98,18 %
30.01.2017 13:20 -6,6 C 94 % 1021,8 hPa 0,0 l/m 9,6 km/h (2 Bft) O-NO 61 0 min 0,000 mm 0,5 UV-I 143 W/m -7,4 C -10,3 C 14,5 km/h (3 Bft) 100,00 %
30.01.2017 13:22 -6,6 C 94 % 1021,7 hPa 0,0 l/m 10,5 km/h (2 Bft) O-NO 71 0 min 0,000 mm 0,5 UV-I 148 W/m -7,4 C -11,2 C 12,9 km/h (3 Bft) 98,00 %
30.01.2017 13:24 -6,6 C 94 % 1021,7 hPa 0,0 l/m 9,3 km/h (2 Bft) O-NO 78 0 min 0,000 mm 0,5 UV-I 150 W/m -7,4 C -10,0 C 12,9 km/h (3 Bft) 96,00 %
30.01.2017 13:26 -6,6 C 94 % 1021,6 hPa 0,0 l/m 11,9 km/h (2 Bft) O-NO 76 0 min 0,000 mm 0,5 UV-I 155 W/m -7,4 C -12,5 C 17,7 km/h (3 Bft) 100,00 %
30.01.2017 13:28 -6,6 C 94 % 1021,5 hPa 0,0 l/m 12,7 km/h (3 Bft) O 83 0 min 0,000 mm 0,5 UV-I 159 W/m -7,4 C -13,2 C 16,1 km/h (3 Bft) 98,11 %
30.01.2017 13:30 -6,6 C 94 % 1021,5 hPa 0,0 l/m 12,4 km/h (3 Bft) O-NO 60 0 min 0,000 mm 0,6 UV-I 159 W/m -7,4 C -12,9 C 17,7 km/h (3 Bft) 97,37 %
30.01.2017 13:32 -6,6 C 94 % 1021,5 hPa 0,0 l/m 12,3 km/h (3 Bft) O-NO 70 0 min 0,000 mm 0,5 UV-I 155 W/m -7,4 C -12,9 C 16,1 km/h (3 Bft) 100,00 %
30.01.2017 13:34 -6,6 C 94 % 1021,5 hPa 0,0 l/m 8,5 km/h (2 Bft) O-NO 69 0 min 0,000 mm 0,5 UV-I 152 W/m -7,4 C -9,2 C 16,1 km/h (3 Bft) 100,00 %
30.01.2017 13:36 -6,6 C 94 % 1021,5 hPa 0,0 l/m 8,2 km/h (2 Bft) O-NO 73 0 min 0,000 mm 0,5 UV-I 152 W/m -7,4 C -8,8 C 11,3 km/h (2 Bft) 100,00 %
30.01.2017 13:38 -6,6 C 94 % 1021,5 hPa 0,0 l/m 7,6 km/h (2 Bft) O 79 0 min 0,000 mm 0,5 UV-I 155 W/m -7,4 C -8,1 C 11,3 km/h (2 Bft) 100,00 %
30.01.2017 13:40 -6,5 C 94 % 1021,5 hPa 0,0 l/m 6,2 km/h (2 Bft) O-NO 69 0 min 0,000 mm 0,5 UV-I 149 W/m -7,3 C -6,5 C 9,7 km/h (2 Bft) 100,00 %
30.01.2017 13:42 -6,5 C 94 % 1021,5 hPa 0,0 l/m 7,6 km/h (2 Bft) NO 56 0 min 0,000 mm 0,5 UV-I 140 W/m -7,3 C -8,0 C 12,9 km/h (3 Bft) 100,00 %
30.01.2017 13:44 -6,5 C 94 % 1021,4 hPa 0,0 l/m 7,7 km/h (2 Bft) O-NO 59 0 min 0,000 mm 0,5 UV-I 141 W/m -7,3 C -8,1 C 16,1 km/h (3 Bft) 100,00 %
30.01.2017 13:46 -6,5 C 94 % 1021,4 hPa 0,0 l/m 10,7 km/h (2 Bft) NO 41 0 min 0,000 mm 0,5 UV-I 145 W/m -7,3 C -11,3 C 17,7 km/h (3 Bft) 100,00 %
30.01.2017 13:48 -6,5 C 94 % 1021,3 hPa 0,0 l/m 9,9 km/h (2 Bft) O-NO 59 0 min 0,000 mm 0,5 UV-I 129 W/m -7,3 C -10,5 C 17,7 km/h (3 Bft) 100,00 %
30.01.2017 13:50 -6,5 C 94 % 1021,3 hPa 0,0 l/m 9,7 km/h (2 Bft) N-NO 32 0 min 0,000 mm 0,5 UV-I 141 W/m -7,3 C -10,3 C 14,5 km/h (3 Bft) 100,00 %
30.01.2017 13:52 -6,5 C 94 % 1021,3 hPa 0,0 l/m 9,6 km/h (2 Bft) O-NO 58 0 min 0,000 mm 0,5 UV-I 131 W/m -7,3 C -10,2 C 16,1 km/h (3 Bft) 100,00 %
30.01.2017 13:54 -6,6 C 94 % 1021,2 hPa 0,0 l/m 9,1 km/h (2 Bft) O-NO 70 0 min 0,000 mm 0,3 UV-I 120 W/m -7,4 C -9,8 C 12,9 km/h (3 Bft) 98,11 %
30.01.2017 13:56 -6,6 C 94 % 1021,3 hPa 0,0 l/m 9,9 km/h (2 Bft) O-NO 59 0 min 0,000 mm 0,0 UV-I 117 W/m -7,4 C -10,6 C 14,5 km/h (3 Bft) 100,00 %
30.01.2017 13:58 -6,6 C 94 % 1021,3 hPa 0,0 l/m 10,3 km/h (2 Bft) NO 54 0 min 0,000 mm 0,0 UV-I 113 W/m -7,4 C -11,0 C 17,7 km/h (3 Bft) 100,00 %
30.01.2017 14:00 -6,6 C 94 % 1021,3 hPa 0,0 l/m 15,3 km/h (3 Bft) O-NO 76 0 min 0,025 mm 0,0 UV-I 112 W/m -7,4 C -15,2 C 19,3 km/h (3 Bft) 100,00 %
30.01.2017 14:02 -6,7 C 94 % 1021,3 hPa 0,0 l/m 13,6 km/h (3 Bft) O-NO 62 0 min 0,000 mm 0,0 UV-I 96 W/m -7,5 C -14,0 C 17,7 km/h (3 Bft) 100,00 %
30.01.2017 14:04 -6,7 C 94 % 1021,2 hPa 0,0 l/m 11,7 km/h (2 Bft) O-NO 71 0 min 0,000 mm 0,0 UV-I 99 W/m -7,5 C -12,5 C 16,1 km/h (3 Bft) 100,00 %
30.01.2017 14:06 -6,7 C 94 % 1021,2 hPa 0,0 l/m 12,9 km/h (3 Bft) O-SO 115 0 min 0,000 mm 0,0 UV-I 104 W/m -7,5 C -13,5 C 16,1 km/h (3 Bft) 100,00 %
30.01.2017 14:09 -6,7 C 94 % 1021,1 hPa 0,0 l/m 14,5 km/h (3 Bft) O 82 0 min 0,000 mm 0,0 UV-I 111 W/m -7,5 C -14,7 C 20,9 km/h (4 Bft) 98,57 %
30.01.2017 14:10 -6,7 C 94 % 1021,1 hPa 0,0 l/m 17,4 km/h (3 Bft) O 93 0 min 0,000 mm 0,0 UV-I 118 W/m -7,5 C -16,7 C 19,3 km/h (3 Bft) 100,00 %
30.01.2017 14:12 -6,7 C 94 % 1021,0 hPa 0,0 l/m 15,2 km/h (3 Bft) O-NO 71 0 min 0,000 mm 0,0 UV-I 116 W/m -7,5 C -15,2 C 20,9 km/h (4 Bft) 100,00 %
30.01.2017 14:14 -6,7 C 94 % 1021,0 hPa 0,0 l/m 14,7 km/h (3 Bft) O-NO 59 0 min 0,000 mm 0,0 UV-I 118 W/m -7,5 C -14,9 C 19,3 km/h (3 Bft) 100,00 %
30.01.2017 14:16 -6,7 C 94 % 1021,0 hPa 0,0 l/m 10,1 km/h (2 Bft) O-NO 69 0 min 0,000 mm 0,0 UV-I 120 W/m -7,5 C -11,0 C 17,7 km/h (3 Bft) 100,00 %
30.01.2017 14:18 -6,7 C 94 % 1021,0 hPa 0,0 l/m 11,1 km/h (2 Bft) O-NO 59 0 min 0,000 mm 0,0 UV-I 122 W/m -7,5 C -11,9 C 17,7 km/h (3 Bft) 98,21 %
30.01.2017 14:20 -6,7 C 94 % 1020,9 hPa 0,0 l/m 12,9 km/h (3 Bft) O-NO 69 0 min 0,000 mm 0,0 UV-I 123 W/m -7,5 C -13,5 C 16,1 km/h (3 Bft) 100,00 %
30.01.2017 14:22 -6,6 C 94 % 1020,9 hPa 0,0 l/m 12,4 km/h (3 Bft) O-NO 61 0 min 0,000 mm 0,0 UV-I 121 W/m -7,4 C -12,9 C 16,1 km/h (3 Bft) 100,00 %
30.01.2017 14:24 -6,6 C 94 % 1020,8 hPa 0,0 l/m 12,8 km/h (3 Bft) O-NO 75 0 min 0,000 mm 0,0 UV-I 121 W/m -7,4 C -13,3 C 19,3 km/h (3 Bft) 100,00 %
30.01.2017 14:26 -6,6 C 94 % 1020,8 hPa 0,0 l/m 15,2 km/h (3 Bft) O-NO 72 0 min 0,000 mm 0,0 UV-I 123 W/m -7,4 C -15,1 C 20,9 km/h (4 Bft) 100,00 %
30.01.2017 14:29 -6,7 C 94 % 1020,8 hPa 0,0 l/m 15,5 km/h (3 Bft) NO 47 0 min 0,000 mm 0,0 UV-I 124 W/m -7,5 C -15,5 C 22,5 km/h (4 Bft) 98,59 %
30.01.2017 14:30 -6,7 C 94 % 1020,8 hPa 0,0 l/m 16,6 km/h (3 Bft) O-NO 58 0 min 0,000 mm 0,0 UV-I 121 W/m -7,5 C -16,2 C 17,7 km/h (3 Bft) 95,65 %
30.01.2017 14:32 -6,7 C 94 % 1020,8 hPa 0,0 l/m 12,7 km/h (3 Bft) O-NO 67 0 min 0,000 mm 0,0 UV-I 120 W/m -7,5 C -13,3 C 16,1 km/h (3 Bft) 97,44 %
30.01.2017 14:34 -6,7 C 94 % 1020,8 hPa 0,0 l/m 11,5 km/h (2 Bft) O-NO 65 0 min 0,000 mm 0,0 UV-I 119 W/m -7,5 C -12,3 C 17,7 km/h (3 Bft) 100,00 %
30.01.2017 14:36 -6,7 C 94 % 1020,8 hPa 0,0 l/m 8,8 km/h (2 Bft) N-NO 33 0 min 0,000 mm 0,0 UV-I 119 W/m -7,5 C -9,6 C 12,9 km/h (3 Bft) 100,00 %
30.01.2017 14:38 -6,7 C 94 % 1020,8 hPa 0,0 l/m 11,7 km/h (2 Bft) O-NO 62 0 min 0,000 mm 0,0 UV-I 117 W/m -7,5 C -12,5 C 16,1 km/h (3 Bft) 94,87 %
30.01.2017 14:40 -6,7 C 94 % 1020,8 hPa 0,0 l/m 11,3 km/h (2 Bft) NO 49 0 min 0,000 mm 0,0 UV-I 116 W/m -7,5 C -12,1 C 16,1 km/h (3 Bft) 98,21 %
30.01.2017 14:42 -6,7 C 94 % 1020,8 hPa 0,0 l/m 11,0 km/h (2 Bft) O-NO 61 0 min 0,000 mm 0,0 UV-I 112 W/m -7,5 C -11,8 C 16,1 km/h (3 Bft) 95,12 %
30.01.2017 14:44 -6,7 C 94 % 1020,8 hPa 0,0 l/m 9,9 km/h (2 Bft) NO 54 0 min 0,000 mm 0,0 UV-I 109 W/m -7,5 C -10,8 C 14,5 km/h (3 Bft) 95,74 %
30.01.2017 14:46 -6,7 C 94 % 1020,8 hPa 0,0 l/m 10,6 km/h (2 Bft) O-NO 64 0 min 0,000 mm 0,0 UV-I 105 W/m -7,5 C -11,4 C 16,1 km/h (3 Bft) 96,43 %
30.01.2017 14:48 -6,7 C 94 % 1020,8 hPa 0,0 l/m 9,7 km/h (2 Bft) O-NO 66 0 min 0,000 mm 0,0 UV-I 96 W/m -7,5 C -10,5 C 16,1 km/h (3 Bft) 97,37 %
30.01.2017 14:50 -6,7 C 94 % 1020,8 hPa 0,0 l/m 11,4 km/h (2 Bft) O-NO 61 0 min 0,000 mm 0,0 UV-I 90 W/m -7,5 C -12,2 C 16,1 km/h (3 Bft) 98,11 %
30.01.2017 14:52 -6,7 C 94 % 1020,8 hPa 0,0 l/m 12,1 km/h (2 Bft) O 84 0 min 0,000 mm 0,0 UV-I 90 W/m -7,5 C -12,8 C 17,7 km/h (3 Bft) 95,45 %
30.01.2017 14:54 -6,6 C 94 % 1020,7 hPa 0,0 l/m 11,9 km/h (2 Bft) O 86 0 min 0,000 mm 0,0 UV-I 93 W/m -7,4 C -12,5 C 16,1 km/h (3 Bft) 100,00 %
30.01.2017 14:56 -6,6 C 94 % 1020,7 hPa 0,0 l/m 10,7 km/h (2 Bft) NO 55 0 min 0,000 mm 0,0 UV-I 89 W/m -7,4 C -11,4 C 14,5 km/h (3 Bft) 94,00 %
30.01.2017 14:58 -6,6 C 94 % 1020,7 hPa 0,0 l/m 12,1 km/h (2 Bft) O-NO 74 0 min 0,000 mm 0,0 UV-I 86 W/m -7,4 C -12,7 C 16,1 km/h (3 Bft) 98,08 %
30.01.2017 15:00 -6,6 C 94 % 1020,7 hPa 0,0 l/m 10,7 km/h (2 Bft) O-NO 65 0 min 0,000 mm 0,0 UV-I 89 W/m -7,4 C -11,4 C 17,7 km/h (3 Bft) 91,43 %
30.01.2017 15:02 -6,6 C 94 % 1020,7 hPa 0,0 l/m 11,4 km/h (2 Bft) O-NO 65 0 min 0,025 mm 0,0 UV-I 87 W/m -7,4 C -12,1 C 17,7 km/h (3 Bft) 98,18 %
30.01.2017 15:04 -6,6 C 94 % 1020,7 hPa 0,0 l/m 9,8 km/h (2 Bft) O 82 0 min 0,000 mm 0,0 UV-I 84 W/m -7,4 C -10,5 C 16,1 km/h (3 Bft) 95,45 %
30.01.2017 15:06 -6,6 C 94 % 1020,7 hPa 0,0 l/m 10,4 km/h (2 Bft) O-NO 65 0 min 0,000 mm 0,0 UV-I 83 W/m -7,4 C -11,1 C 16,1 km/h (3 Bft) 98,21 %
30.01.2017 15:08 -6,6 C 94 % 1020,7 hPa 0,0 l/m 8,5 km/h (2 Bft) O-NO 72 0 min 0,000 mm 0,0 UV-I 81 W/m -7,4 C -9,2 C 12,9 km/h (3 Bft) 97,56 %
30.01.2017 15:10 -6,7 C 94 % 1020,6 hPa 0,0 l/m 10,6 km/h (2 Bft) O 85 0 min 0,000 mm 0,0 UV-I 81 W/m -7,5 C -11,4 C 14,5 km/h (3 Bft) 98,11 %
30.01.2017 15:12 -6,6 C 94 % 1020,6 hPa 0,0 l/m 13,6 km/h (3 Bft) O-NO 71 0 min 0,000 mm 0,0 UV-I 82 W/m -7,4 C -13,9 C 17,7 km/h (3 Bft) 100,00 %
30.01.2017 15:14 -6,6 C 94 % 1020,6 hPa 0,0 l/m 14,9 km/h (3 Bft) O-NO 72 0 min 0,000 mm 0,0 UV-I 83 W/m -7,4 C -14,9 C 20,9 km/h (4 Bft) 95,74 %
30.01.2017 15:16 -6,6 C 94 % 1020,5 hPa 0,0 l/m 11,6 km/h (2 Bft) O-NO 60 0 min 0,000 mm 0,0 UV-I 83 W/m -7,4 C -12,2 C 16,1 km/h (3 Bft) 100,00 %
30.01.2017 15:18 -6,6 C 94 % 1020,5 hPa 0,0 l/m 12,9 km/h (3 Bft) O 82 0 min 0,000 mm 0,0 UV-I 79 W/m -7,4 C -13,4 C 17,7 km/h (3 Bft) 97,62 %
30.01.2017 15:20 -6,6 C 94 % 1020,5 hPa 0,0 l/m 11,5 km/h (2 Bft) O 81 0 min 0,000 mm 0,0 UV-I 75 W/m -7,4 C -12,2 C 17,7 km/h (3 Bft) 98,00 %
30.01.2017 15:22 -6,6 C 94 % 1020,5 hPa 0,0 l/m 8,6 km/h (2 Bft) O 92 0 min 0,000 mm 0,0 UV-I 74 W/m -7,4 C -9,3 C 12,9 km/h (3 Bft) 98,00 %
30.01.2017 15:24 -6,6 C 94 % 1020,6 hPa 0,0 l/m 8,8 km/h (2 Bft) O-NO 64 0 min 0,000 mm 0,0 UV-I 72 W/m -7,4 C -9,5 C 12,9 km/h (3 Bft) 100,00 %
30.01.2017 15:26 -6,6 C 94 % 1020,6 hPa 0,0 l/m 7,3 km/h (2 Bft) O-NO 63 0 min 0,000 mm 0,0 UV-I 70 W/m -7,4 C -7,7 C 12,9 km/h (3 Bft) 97,37 %
30.01.2017 15:28 -6,6 C 94 % 1020,5 hPa 0,0 l/m 11,9 km/h (2 Bft) O-NO 77 0 min 0,000 mm 0,0 UV-I 72 W/m -7,4 C -12,5 C 19,3 km/h (3 Bft) 97,87 %
30.01.2017 15:30 -6,6 C 94 % 1020,4 hPa 0,0 l/m 13,3 km/h (3 Bft) O-NO 76 0 min 0,000 mm 0,0 UV-I 74 W/m -7,4 C -13,7 C 16,1 km/h (3 Bft) 95,74 %
30.01.2017 15:32 -6,6 C 94 % 1020,3 hPa 0,0 l/m 13,6 km/h (3 Bft) O-NO 63 0 min 0,000 mm 0,0 UV-I 71 W/m -7,4 C -13,9 C 20,9 km/h (4 Bft) 100,00 %
30.01.2017 15:34 -6,6 C 94 % 1020,3 hPa 0,0 l/m 11,7 km/h (2 Bft) O-NO 61 0 min 0,000 mm 0,0 UV-I 68 W/m -7,4 C -12,3 C 16,1 km/h (3 Bft) 98,11 %
30.01.2017 15:36 -6,6 C 94 % 1020,4 hPa 0,0 l/m 10,9 km/h (2 Bft) O-NO 71 0 min 0,000 mm 0,0 UV-I 66 W/m -7,4 C -11,6 C 16,1 km/h (3 Bft) 95,12 %
30.01.2017 15:38 -6,6 C 94 % 1020,4 hPa 0,0 l/m 8,2 km/h (2 Bft) O-NO 63 0 min 0,000 mm 0,0 UV-I 63 W/m -7,4 C -8,8 C 14,5 km/h (3 Bft) 100,00 %
30.01.2017 15:40 -6,6 C 94 % 1020,5 hPa 0,0 l/m 12,0 km/h (2 Bft) O-NO 68 0 min 0,000 mm 0,0 UV-I 61 W/m -7,4 C -12,6 C 16,1 km/h (3 Bft) 100,00 %
30.01.2017 15:42 -6,6 C 94 % 1020,5 hPa 0,0 l/m 12,1 km/h (2 Bft) O-NO 74 0 min 0,000 mm 0,0 UV-I 60 W/m -7,4 C -12,7 C 14,5 km/h (3 Bft) 100,00 %
30.01.2017 15:44 -6,6 C 94 % 1020,4 hPa 0,0 l/m 8,9 km/h (2 Bft) O 85 0 min 0,000 mm 0,0 UV-I 56 W/m -7,4 C -9,6 C 12,9 km/h (3 Bft) 100,00 %
30.01.2017 15:46 -6,6 C 94 % 1020,4 hPa 0,0 l/m 8,9 km/h (2 Bft) NO 41 0 min 0,000 mm 0,0 UV-I 53 W/m -7,4 C -9,6 C 12,9 km/h (3 Bft) 96,23 %
30.01.2017 15:48 -6,6 C 95 % 1020,3 hPa 0,0 l/m 10,2 km/h (2 Bft) NO 52 0 min 0,000 mm 0,0 UV-I 53 W/m -7,3 C -10,9 C 16,1 km/h (3 Bft) 95,12 %
30.01.2017 15:50 -6,6 C 94 % 1020,3 hPa 0,0 l/m 9,0 km/h (2 Bft) O-NO 63 0 min 0,000 mm 0,0 UV-I 53 W/m -7,4 C -9,7 C 12,9 km/h (3 Bft) 100,00 %
30.01.2017 15:52 -6,6 C 94 % 1020,3 hPa 0,0 l/m 11,1 km/h (2 Bft) O-NO 70 0 min 0,000 mm 0,0 UV-I 53 W/m -7,4 C -11,8 C 14,5 km/h (3 Bft) 100,00 %
30.01.2017 15:54 -6,6 C 94 % 1020,4 hPa 0,0 l/m 10,7 km/h (2 Bft) O-NO 65 0 min 0,000 mm 0,0 UV-I 52 W/m -7,4 C -11,4 C 14,5 km/h (3 Bft) 100,00 %
30.01.2017 15:56 -6,6 C 94 % 1020,4 hPa 0,0 l/m 9,8 km/h (2 Bft) O-NO 68 0 min 0,000 mm 0,0 UV-I 49 W/m -7,4 C -10,5 C 14,5 km/h (3 Bft) 97,92 %
30.01.2017 15:58 -6,6 C 94 % 1020,4 hPa 0,0 l/m 8,9 km/h (2 Bft) O-NO 63 0 min 0,000 mm 0,0 UV-I 45 W/m -7,4 C -9,6 C 14,5 km/h (3 Bft) 98,00 %
30.01.2017 16:00 -6,6 C 95 % 1020,4 hPa 0,0 l/m 8,2 km/h (2 Bft) NO 49 0 min 0,000 mm 0,0 UV-I 43 W/m -7,3 C -8,8 C 12,9 km/h (3 Bft) 100,00 %
30.01.2017 16:02 -6,5 C 95 % 1020,3 hPa 0,0 l/m 11,1 km/h (2 Bft) O-NO 67 0 min 0,026 mm 0,0 UV-I 41 W/m -7,2 C -11,7 C 17,7 km/h (3 Bft) 100,00 %
30.01.2017 16:04 -6,6 C 95 % 1020,4 hPa 0,0 l/m 13,2 km/h (3 Bft) NO 56 0 min 0,000 mm 0,0 UV-I 40 W/m -7,3 C -13,6 C 17,7 km/h (3 Bft) 98,21 %
30.01.2017 16:06 -6,6 C 94 % 1020,4 hPa 0,0 l/m 10,9 km/h (2 Bft) O-NO 57 0 min 0,000 mm 0,0 UV-I 39 W/m -7,4 C -11,6 C 14,5 km/h (3 Bft) 100,00 %
30.01.2017 16:08 -6,6 C 94 % 1020,4 hPa 0,0 l/m 11,3 km/h (2 Bft) O-NO 57 0 min 0,000 mm 0,0 UV-I 37 W/m -7,4 C -12,0 C 16,1 km/h (3 Bft) 100,00 %
30.01.2017 16:10 -6,6 C 94 % 1020,4 hPa 0,0 l/m 9,7 km/h (2 Bft) NO 46 0 min 0,000 mm 0,0 UV-I 35 W/m -7,4 C -10,4 C 14,5 km/h (3 Bft) 100,00 %
30.01.2017 16:12 -6,6 C 94 % 1020,4 hPa 0,0 l/m 7,4 km/h (2 Bft) O-NO 78 0 min 0,000 mm 0,0 UV-I 34 W/m -7,4 C -7,9 C 12,9 km/h (3 Bft) 97,87 %
30.01.2017 16:14 -6,6 C 94 % 1020,3 hPa 0,0 l/m 9,0 km/h (2 Bft) NO 46 0 min 0,000 mm 0,0 UV-I 35 W/m -7,4 C -9,7 C 14,5 km/h (3 Bft) 98,00 %
30.01.2017 16:16 -6,6 C 94 % 1020,3 hPa 0,0 l/m 10,2 km/h (2 Bft) O-NO 57 0 min 0,000 mm 0,0 UV-I 35 W/m -7,4 C -10,9 C 16,1 km/h (3 Bft) 100,00 %
30.01.2017 16:18 -6,6 C 95 % 1020,3 hPa 0,0 l/m 12,5 km/h (3 Bft) O-NO 69 0 min 0,000 mm 0,0 UV-I 33 W/m -7,3 C -13,0 C 16,1 km/h (3 Bft) 96,23 %
30.01.2017 16:20 -6,6 C 95 % 1020,3 hPa 0,0 l/m 11,4 km/h (2 Bft) O-NO 71 0 min 0,000 mm 0,0 UV-I 33 W/m -7,3 C -12,1 C 16,1 km/h (3 Bft) 100,00 %
30.01.2017 16:22 -6,6 C 95 % 1020,4 hPa 0,0 l/m 7,1 km/h (2 Bft) O-NO 76 0 min 0,000 mm 0,0 UV-I 30 W/m -7,3 C -7,5 C 12,9 km/h (3 Bft) 100,00 %
30.01.2017 16:24 -6,6 C 95 % 1020,4 hPa 0,0 l/m 6,7 km/h (2 Bft) O-NO 57 0 min 0,000 mm 0,0 UV-I 26 W/m -7,3 C -7,0 C 9,7 km/h (2 Bft) 100,00 %
30.01.2017 16:26 -6,6 C 95 % 1020,4 hPa 0,0 l/m 5,8 km/h (2 Bft) O-NO 66 0 min 0,000 mm 0,0 UV-I 24 W/m -7,3 C -6,6 C 9,7 km/h (2 Bft) 100,00 %
30.01.2017 16:28 -6,6 C 95 % 1020,5 hPa 0,0 l/m 4,1 km/h (1 Bft) O-NO 70 0 min 0,000 mm 0,0 UV-I 22 W/m -7,3 C -6,6 C 8,0 km/h (2 Bft) 100,00 %
30.01.2017 16:30 -6,6 C 95 % 1020,5 hPa 0,0 l/m 3,9 km/h (1 Bft) O-NO 63 0 min 0,000 mm 0,0 UV-I 20 W/m -7,3 C -6,6 C 4,8 km/h (1 Bft) 100,00 %
30.01.2017 16:32 -6,6 C 95 % 1020,5 hPa 0,0 l/m 5,6 km/h (1 Bft) O-NO 63 0 min 0,000 mm 0,0 UV-I 18 W/m -7,3 C -6,6 C 8,0 km/h (2 Bft) 98,21 %
30.01.2017 16:34 -6,6 C 95 % 1020,4 hPa 0,0 l/m 6,9 km/h (2 Bft) NO 42 0 min 0,000 mm 0,0 UV-I 15 W/m -7,3 C -7,2 C 8,0 km/h (2 Bft) 100,00 %
30.01.2017 16:36 -6,6 C 95 % 1020,4 hPa 0,0 l/m 6,9 km/h (2 Bft) O-NO 64 0 min 0,000 mm 0,0 UV-I 13 W/m -7,3 C -7,2 C 9,7 km/h (2 Bft) 100,00 %
30.01.2017 16:38 -6,6 C 95 % 1020,4 hPa 0,0 l/m 8,0 km/h (2 Bft) O-NO 61 0 min 0,000 mm 0,0 UV-I 13 W/m -7,3 C -8,6 C 11,3 km/h (2 Bft) 100,00 %
30.01.2017 16:40 -6,6 C 95 % 1020,4 hPa 0,0 l/m 6,7 km/h (2 Bft) O-NO 75 0 min 0,000 mm 0,0 UV-I 12 W/m -7,3 C -7,0 C 8,0 km/h (2 Bft) 98,46 %
30.01.2017 16:42 -6,6 C 95 % 1020,4 hPa 0,0 l/m 8,4 km/h (2 Bft) O-NO 61 0 min 0,000 mm 0,0 UV-I 12 W/m -7,3 C -9,0 C 14,5 km/h (3 Bft) 95,74 %
30.01.2017 16:44 -6,6 C 95 % 1020,4 hPa 0,0 l/m 7,4 km/h (2 Bft) NO 56 0 min 0,000 mm 0,0 UV-I 11 W/m -7,3 C -7,9 C 12,9 km/h (3 Bft) 97,14 %
30.01.2017 16:46 -6,6 C 95 % 1020,4 hPa 0,0 l/m 10,0 km/h (2 Bft) O-NO 65 0 min 0,000 mm 0,0 UV-I 12 W/m -7,3 C -10,7 C 14,5 km/h (3 Bft) 98,11 %
30.01.2017 16:48 -6,6 C 95 % 1020,4 hPa 0,0 l/m 9,9 km/h (2 Bft) NO 55 2 min 0,000 mm 0,0 UV-I 11 W/m -7,3 C -10,6 C 14,5 km/h (3 Bft) 98,11 %
30.01.2017 16:50 -6,6 C 94 % 1020,5 hPa 0,0 l/m 11,2 km/h (2 Bft) O-NO 61 0 min 0,000 mm 0,0 UV-I 10 W/m -7,4 C -11,9 C 14,5 km/h (3 Bft) 89,47 %
30.01.2017 16:52 -6,6 C 94 % 1020,5 hPa 0,0 l/m 12,7 km/h (3 Bft) O 84 0 min 0,000 mm 0,0 UV-I 9 W/m -7,4 C -13,2 C 17,7 km/h (3 Bft) 94,64 %
30.01.2017 16:54 -6,6 C 94 % 1020,5 hPa 0,0 l/m 8,5 km/h (2 Bft) O 97 0 min 0,000 mm 0,0 UV-I 7 W/m -7,4 C -9,2 C 14,5 km/h (3 Bft) 97,56 %
30.01.2017 16:56 -6,7 C 94 % 1020,5 hPa 0,0 l/m 5,6 km/h (1 Bft) O-NO 71 0 min 0,000 mm 0,0 UV-I 7 W/m -7,5 C -6,7 C 9,7 km/h (2 Bft) 98,11 %
30.01.2017 16:58 -6,6 C 94 % 1020,4 hPa 0,0 l/m 8,1 km/h (2 Bft) O-NO 59 0 min 0,000 mm 0,0 UV-I 6 W/m -7,4 C -8,7 C 12,9 km/h (3 Bft) 94,74 %
30.01.2017 17:00 -6,7 C 94 % 1020,4 hPa 0,0 l/m 9,0 km/h (2 Bft) O-NO 57 0 min 0,000 mm 0,0 UV-I 5 W/m -7,5 C -9,8 C 12,9 km/h (3 Bft) 98,00 %
30.01.2017 17:02 -6,6 C 94 % 1020,4 hPa 0,0 l/m 8,1 km/h (2 Bft) O-NO 61 0 min 0,000 mm 0,0 UV-I 5 W/m -7,4 C -8,7 C 9,7 km/h (2 Bft) 97,50 %
30.01.2017 17:04 -6,7 C 94 % 1020,3 hPa 0,0 l/m 11,0 km/h (2 Bft) O-NO 61 0 min 0,000 mm 0,0 UV-I 5 W/m -7,5 C -11,8 C 14,5 km/h (3 Bft) 96,23 %
30.01.2017 17:06 -6,7 C 94 % 1020,3 hPa 0,0 l/m 12,4 km/h (3 Bft) O-NO 77 0 min 0,000 mm 0,0 UV-I 5 W/m -7,5 C -13,1 C 17,7 km/h (3 Bft) 95,12 %
30.01.2017 17:08 -6,7 C 94 % 1020,3 hPa 0,0 l/m 10,6 km/h (2 Bft) NO 46 0 min 0,000 mm 0,0 UV-I 0 W/m -7,5 C -11,4 C 16,1 km/h (3 Bft) 98,21 %
30.01.2017 17:10 -6,6 C 94 % 1020,4 hPa 0,0 l/m 10,3 km/h (2 Bft) O 86 0 min 0,000 mm 0,0 UV-I 0 W/m -7,4 C -11,0 C 14,5 km/h (3 Bft) 96,00 %
30.01.2017 17:12 -6,7 C 94 % 1020,4 hPa 0,0 l/m 7,9 km/h (2 Bft) O-NO 78 0 min 0,000 mm 0,0 UV-I 0 W/m -7,5 C -8,6 C 12,9 km/h (3 Bft) 100,00 %
30.01.2017 17:14 -6,7 C 94 % 1020,4 hPa 0,0 l/m 7,9 km/h (2 Bft) O-NO 72 0 min 0,000 mm 0,0 UV-I 0 W/m -7,5 C -8,6 C 9,7 km/h (2 Bft) 95,92 %
30.01.2017 17:16 -6,7 C 94 % 1020,4 hPa 0,0 l/m 6,3 km/h (2 Bft) O-NO 67 0 min 0,000 mm 0,0 UV-I 0 W/m -7,5 C -6,7 C 8,0 km/h (2 Bft) 98,00 %
30.01.2017 17:18 -6,7 C 94 % 1020,4 hPa 0,0 l/m 8,2 km/h (2 Bft) NO 53 0 min 0,000 mm 0,0 UV-I 0 W/m -7,5 C -8,9 C 12,9 km/h (3 Bft) 100,00 %
30.01.2017 17:20 -6,7 C 94 % 1020,4 hPa 0,0 l/m 8,9 km/h (2 Bft) O 90 0 min 0,000 mm 0,0 UV-I 0 W/m -7,5 C -9,7 C 12,9 km/h (3 Bft) 97,62 %
30.01.2017 17:22 -6,7 C 94 % 1020,3 hPa 0,0 l/m 7,8 km/h (2 Bft) O-NO 61 0 min 0,000 mm 0,0 UV-I 0 W/m -7,5 C -8,4 C 11,3 km/h (2 Bft) 97,56 %
30.01.2017 17:24 -6,7 C 94 % 1020,4 hPa 0,0 l/m 7,4 km/h (2 Bft) O-NO 67 0 min 0,000 mm 0,0 UV-I 0 W/m -7,5 C -8,0 C 12,9 km/h (3 Bft) 98,21 %
30.01.2017 17:26 -6,7 C 94 % 1020,4 hPa 0,0 l/m 7,5 km/h (2 Bft) O 80 0 min 0,000 mm 0,0 UV-I 0 W/m -7,5 C -8,1 C 12,9 km/h (3 Bft) 100,00 %
30.01.2017 17:29 -6,7 C 94 % 1020,3 hPa 0,0 l/m 6,6 km/h (2 Bft) NO 46 0 min 0,000 mm 0,0 UV-I 0 W/m -7,5 C -6,9 C 12,9 km/h (3 Bft) 98,68 %
30.01.2017 17:30 -6,7 C 94 % 1020,3 hPa 0,0 l/m 7,7 km/h (2 Bft) O-NO 64 0 min 0,000 mm 0,0 UV-I 0 W/m -7,5 C -8,3 C 9,7 km/h (2 Bft) 100,00 %
30.01.2017 17:32 -6,7 C 94 % 1020,3 hPa 0,0 l/m 8,1 km/h (2 Bft) O-NO 71 0 min 0,000 mm 0,0 UV-I 0 W/m -7,5 C -8,8 C 12,9 km/h (3 Bft) 100,00 %
30.01.2017 17:34 -6,7 C 94 % 1020,3 hPa 0,0 l/m 8,2 km/h (2 Bft) O-NO 63 0 min 0,000 mm 0,0 UV-I 0 W/m -7,5 C -8,9 C 12,9 km/h (3 Bft) 97,56 %
30.01.2017 17:36 -6,7 C 94 % 1020,3 hPa 0,0 l/m 7,1 km/h (2 Bft) O-NO 71 0 min 0,000 mm 0,0 UV-I 0 W/m -7,5 C -7,6 C 11,3 km/h (2 Bft) 96,00 %
30.01.2017 17:38 -6,7 C 94 % 1020,3 hPa 0,0 l/m 7,1 km/h (2 Bft) O-NO 69 0 min 0,000 mm 0,0 UV-I 0 W/m -7,5 C -7,6 C 11,3 km/h (2 Bft) 96,43 %
30.01.2017 17:40 -6,7 C 94 % 1020,2 hPa 0,0 l/m 8,1 km/h (2 Bft) O-NO 62 0 min 0,000 mm 0,0 UV-I 0 W/m -7,5 C -8,8 C 11,3 km/h (2 Bft) 100,00 %
30.01.2017 17:42 -6,7 C 94 % 1020,3 hPa 0,0 l/m 6,5 km/h (2 Bft) O-NO 64 0 min 0,000 mm 0,0 UV-I 0 W/m -7,5 C -6,8 C 11,3 km/h (2 Bft) 98,00 %
30.01.2017 17:44 -6,7 C 94 % 1020,4 hPa 0,0 l/m 4,7 km/h (1 Bft) NO 39 0 min 0,000 mm 0,0 UV-I 0 W/m -7,5 C -6,7 C 8,0 km/h (2 Bft) 95,74 %
30.01.2017 17:46 -6,7 C 95 % 1020,3 hPa 0,0 l/m 6,4 km/h (2 Bft) O-NO 62 0 min 0,000 mm 0,0 UV-I 0 W/m -7,4 C -6,6 C 9,7 km/h (2 Bft) 96,00 %
30.01.2017 17:48 -6,7 C 95 % 1020,4 hPa 0,0 l/m 6,1 km/h (2 Bft) O-NO 61 0 min 0,000 mm 0,0 UV-I 0 W/m -7,4 C -6,7 C 8,0 km/h (2 Bft) 100,00 %
30.01.2017 17:50 -6,7 C 95 % 1020,3 hPa 0,0 l/m 5,9 km/h (2 Bft) O-NO 63 0 min 0,000 mm 0,0 UV-I 0 W/m -7,4 C -6,7 C 8,0 km/h (2 Bft) 92,00 %
30.01.2017 17:52 -6,7 C 95 % 1020,3 hPa 0,0 l/m 4,4 km/h (1 Bft) O-NO 61 0 min 0,000 mm 0,0 UV-I 0 W/m -7,4 C -6,7 C 6,4 km/h (2 Bft) 98,00 %
30.01.2017 17:54 -6,7 C 95 % 1020,4 hPa 0,0 l/m 5,4 km/h (1 Bft) O-NO 67 0 min 0,000 mm 0,0 UV-I 0 W/m -7,4 C -6,7 C 9,7 km/h (2 Bft) 100,00 %
30.01.2017 17:56 -6,7 C 95 % 1020,4 hPa 0,0 l/m 5,6 km/h (1 Bft) NO 53 0 min 0,000 mm 0,0 UV-I 0 W/m -7,4 C -6,7 C 8,0 km/h (2 Bft) 100,00 %
30.01.2017 17:58 -6,7 C 95 % 1020,5 hPa 0,0 l/m 5,2 km/h (1 Bft) O-NO 65 0 min 0,000 mm 0,0 UV-I 0 W/m -7,4 C -6,7 C 8,0 km/h (2 Bft) 100,00 %
30.01.2017 18:00 -6,7 C 95 % 1020,5 hPa 0,0 l/m 4,2 km/h (1 Bft) O-NO 67 0 min 0,000 mm 0,0 UV-I 0 W/m -7,4 C -6,7 C 6,4 km/h (2 Bft) 100,00 %
30.01.2017 18:02 -6,7 C 95 % 1020,4 hPa 0,0 l/m 6,2 km/h (2 Bft) NO 55 0 min 0,000 mm 0,0 UV-I 0 W/m -7,4 C -6,7 C 9,7 km/h (2 Bft) 100,00 %
30.01.2017 18:04 -6,7 C 95 % 1020,5 hPa 0,0 l/m 4,8 km/h (1 Bft) O-NO 59 0 min 0,000 mm 0,0 UV-I 0 W/m -7,4 C -6,7 C 6,4 km/h (2 Bft) 98,00 %
30.01.2017 18:06 -6,7 C 95 % 1020,5 hPa 0,0 l/m 3,4 km/h (1 Bft) O-NO 59 0 min 0,000 mm 0,0 UV-I 0 W/m -7,4 C -6,7 C 4,8 km/h (1 Bft) 98,00 %
30.01.2017 18:08 -6,7 C 95 % 1020,5 hPa 0,0 l/m 3,4 km/h (1 Bft) O-NO 59 0 min 0,000 mm 0,0 UV-I 0 W/m -7,4 C -6,7 C 6,4 km/h (2 Bft) 100,00 %
30.01.2017 18:10 -6,7 C 95 % 1020,5 hPa 0,0 l/m 6,1 km/h (2 Bft) NO 44 0 min 0,000 mm 0,0 UV-I 0 W/m -7,4 C -6,7 C 8,0 km/h (2 Bft) 100,00 %
30.01.2017 18:12 -6,7 C 95 % 1020,4 hPa 0,0 l/m 8,3 km/h (2 Bft) NO 53 0 min 0,000 mm 0,0 UV-I 0 W/m -7,4 C -9,0 C 9,7 km/h (2 Bft) 95,74 %
30.01.2017 18:14 -6,7 C 95 % 1020,5 hPa 0,0 l/m 7,1 km/h (2 Bft) O-NO 78 0 min 0,000 mm 0,0 UV-I 0 W/m -7,4 C -7,6 C 11,3 km/h (2 Bft) 97,87 %
30.01.2017 18:16 -6,7 C 95 % 1020,7 hPa 0,0 l/m 5,5 km/h (1 Bft) NO 55 0 min 0,000 mm 0,0 UV-I 0 W/m -7,4 C -6,7 C 8,0 km/h (2 Bft) 100,00 %
30.01.2017 18:18 -6,7 C 95 % 1020,7 hPa 0,0 l/m 4,6 km/h (1 Bft) O-NO 74 0 min 0,000 mm 0,0 UV-I 0 W/m -7,4 C -6,7 C 6,4 km/h (2 Bft) 100,00 %
30.01.2017 18:20 -6,7 C 95 % 1020,8 hPa 0,0 l/m 3,5 km/h (1 Bft) O-NO 71 0 min 0,000 mm 0,0 UV-I 0 W/m -7,4 C -6,7 C 6,4 km/h (2 Bft) 98,00 %
30.01.2017 18:22 -6,7 C 95 % 1020,8 hPa 0,0 l/m 3,6 km/h (1 Bft) O-NO 58 0 min 0,000 mm 0,0 UV-I 0 W/m -7,4 C -6,7 C 4,8 km/h (1 Bft) 98,00 %
30.01.2017 18:24 -6,7 C 95 % 1020,8 hPa 0,0 l/m 1,5 km/h (1 Bft) O-NO 58 0 min 0,000 mm 0,0 UV-I 0 W/m -7,4 C -6,7 C 3,2 km/h (1 Bft) 100,00 %
30.01.2017 18:26 -6,7 C 95 % 1020,9 hPa 0,0 l/m 0,0 km/h (0 Bft) O-NO 58 0 min 0,000 mm 0,0 UV-I 0 W/m -7,4 C -6,7 C 0,0 km/h (0 Bft) 95,74 %
30.01.2017 18:28 -6,7 C 95 % 1020,9 hPa 0,0 l/m 0,1 km/h (0 Bft) O-NO 58 0 min 0,000 mm 0,0 UV-I 0 W/m -7,4 C -6,7 C 1,6 km/h (1 Bft) 95,74 %
30.01.2017 18:30 -6,7 C 95 % 1020,9 hPa 0,0 l/m 1,8 km/h (1 Bft) O-NO 58 0 min 0,000 mm 0,0 UV-I 0 W/m -7,4 C -6,7 C 3,2 km/h (1 Bft) 100,00 %
30.01.2017 18:32 -6,6 C 95 % 1020,9 hPa 0,0 l/m 2,2 km/h (1 Bft) O-NO 58 0 min 0,000 mm 0,0 UV-I 0 W/m -7,3 C -6,6 C 4,8 km/h (1 Bft) 100,00 %
30.01.2017 18:34 -6,6 C 95 % 1020,8 hPa 0,0 l/m 3,8 km/h (1 Bft) O-NO 58 0 min 0,000 mm 0,0 UV-I 0 W/m -7,3 C -6,6 C 4,8 km/h (1 Bft) 100,00 %
30.01.2017 18:36 -6,7 C 95 % 1020,9 hPa 0,0 l/m 0,7 km/h (0 Bft) O-NO 58 0 min 0,000 mm 0,0 UV-I 0 W/m -7,4 C -6,7 C 1,6 km/h (1 Bft) 100,00 %
30.01.2017 18:38 -6,7 C 95 % 1021,0 hPa 0,0 l/m 1,8 km/h (1 Bft) NO 36 0 min 0,000 mm 0,0 UV-I 0 W/m -7,4 C -6,7 C 4,8 km/h (1 Bft) 98,08 %
30.01.2017 18:40 -6,6 C 95 % 1020,8 hPa 0,0 l/m 5,6 km/h (1 Bft) O-NO 63 0 min 0,000 mm 0,0 UV-I 0 W/m -7,3 C -6,6 C 8,0 km/h (2 Bft) 100,00 %
30.01.2017 18:42 -6,6 C 95 % 1020,6 hPa 0,0 l/m 9,5 km/h (2 Bft) O-NO 60 0 min 0,000 mm 0,0 UV-I 0 W/m -7,3 C -10,2 C 12,9 km/h (3 Bft) 100,00 %
30.01.2017 18:44 -6,7 C 95 % 1020,5 hPa 0,0 l/m 10,7 km/h (2 Bft) NO 54 0 min 0,000 mm 0,0 UV-I 0 W/m -7,4 C -11,5 C 16,1 km/h (3 Bft) 100,00 %
30.01.2017 18:46 -6,7 C 95 % 1020,5 hPa 0,0 l/m 9,6 km/h (2 Bft) O-NO 67 0 min 0,000 mm 0,0 UV-I 0 W/m -7,4 C -10,4 C 14,5 km/h (3 Bft) 97,56 %
30.01.2017 18:48 -6,7 C 95 % 1020,5 hPa 0,0 l/m 8,1 km/h (2 Bft) O-NO 78 0 min 0,000 mm 0,0 UV-I 0 W/m -7,4 C -8,8 C 12,9 km/h (3 Bft) 96,23 %
30.01.2017 18:50 -6,7 C 95 % 1020,6 hPa 0,0 l/m 7,0 km/h (2 Bft) O-NO 67 0 min 0,000 mm 0,0 UV-I 0 W/m -7,4 C -7,4 C 12,9 km/h (3 Bft) 97,56 %
30.01.2017 18:52 -6,7 C 95 % 1020,5 hPa 0,0 l/m 9,9 km/h (2 Bft) O-NO 69 0 min 0,000 mm 0,0 UV-I 0 W/m -7,4 C -10,8 C 16,1 km/h (3 Bft) 98,11 %
30.01.2017 18:54 -6,7 C 95 % 1020,5 hPa 0,0 l/m 10,1 km/h (2 Bft) O-NO 58 0 min 0,000 mm 0,0 UV-I 0 W/m -7,4 C -11,0 C 14,5 km/h (3 Bft) 94,74 %
30.01.2017 18:56 -6,7 C 95 % 1020,4 hPa 0,0 l/m 10,6 km/h (2 Bft) O-NO 73 0 min 0,000 mm 0,0 UV-I 0 W/m -7,4 C -11,4 C 16,1 km/h (3 Bft) 94,00 %
30.01.2017 18:58 -6,7 C 95 % 1020,3 hPa 0,0 l/m 13,5 km/h (3 Bft) O-NO 74 0 min 0,000 mm 0,0 UV-I 0 W/m -7,4 C -14,0 C 19,3 km/h (3 Bft) 98,00 %
30.01.2017 19:00 -6,7 C 94 % 1020,3 hPa 0,0 l/m 14,1 km/h (3 Bft) O-NO 77 0 min 0,000 mm 0,0 UV-I 0 W/m -7,5 C -14,4 C 19,3 km/h (3 Bft) 97,37 %
30.01.2017 19:02 -6,7 C 94 % 1020,4 hPa 0,0 l/m 9,5 km/h (2 Bft) O-NO 77 0 min 0,000 mm 0,0 UV-I 0 W/m -7,5 C -10,3 C 14,5 km/h (3 Bft) 96,00 %
30.01.2017 19:04 -6,7 C 94 % 1020,5 hPa 0,0 l/m 7,9 km/h (2 Bft) O 86 0 min 0,000 mm 0,0 UV-I 0 W/m -7,5 C -8,6 C 11,3 km/h (2 Bft) 95,12 %
30.01.2017 19:06 -6,7 C 95 % 1020,3 hPa 0,0 l/m 10,0 km/h (2 Bft) NO 55 0 min 0,000 mm 0,0 UV-I 0 W/m -7,4 C -10,9 C 14,5 km/h (3 Bft) 96,61 %
30.01.2017 19:08 -6,7 C 95 % 1020,3 hPa 0,0 l/m 8,4 km/h (2 Bft) O-NO 60 0 min 0,000 mm 0,0 UV-I 0 W/m -7,4 C -9,1 C 12,9 km/h (3 Bft) 94,74 %
30.01.2017 19:10 -6,7 C 94 % 1020,5 hPa 0,0 l/m 6,7 km/h (2 Bft) O-NO 63 0 min 0,000 mm 0,0 UV-I 0 W/m -7,5 C -7,1 C 12,9 km/h (3 Bft) 98,11 %
30.01.2017 19:12 -6,7 C 94 % 1020,5 hPa 0,0 l/m 7,2 km/h (2 Bft) NO 55 0 min 0,000 mm 0,0 UV-I 0 W/m -7,5 C -7,7 C 11,3 km/h (2 Bft) 96,00 %
30.01.2017 19:14 -6,7 C 95 % 1020,5 hPa 0,0 l/m 8,8 km/h (2 Bft) O-NO 69 0 min 0,000 mm 0,0 UV-I 0 W/m -7,4 C -9,6 C 12,9 km/h (3 Bft) 97,87 %
30.01.2017 19:16 -6,7 C 95 % 1020,6 hPa 0,0 l/m 8,2 km/h (2 Bft) O-NO 73 0 min 0,000 mm 0,0 UV-I 0 W/m -7,4 C -8,9 C 12,9 km/h (3 Bft) 97,73 %
30.01.2017 19:18 -6,7 C 95 % 1020,6 hPa 0,0 l/m 11,2 km/h (2 Bft) O-NO 63 0 min 0,000 mm 0,0 UV-I 0 W/m -7,4 C -12,0 C 16,1 km/h (3 Bft) 97,62 %
30.01.2017 19:20 -6,7 C 94 % 1020,7 hPa 0,0 l/m 5,8 km/h (2 Bft) O-NO 74 0 min 0,000 mm 0,0 UV-I 0 W/m -7,5 C -6,7 C 9,7 km/h (2 Bft) 100,00 %
30.01.2017 19:23 -6,7 C 95 % 1020,7 hPa 0,0 l/m 6,9 km/h (2 Bft) O-NO 69 0 min 0,000 mm 0,0 UV-I 0 W/m -7,4 C -7,3 C 12,9 km/h (3 Bft) 98,57 %
30.01.2017 19:24 -6,7 C 95 % 1020,7 hPa 0,0 l/m 8,0 km/h (2 Bft) NO 51 0 min 0,000 mm 0,0 UV-I 0 W/m -7,4 C -8,7 C 9,7 km/h (2 Bft) 95,83 %
30.01.2017 19:26 -6,7 C 94 % 1020,5 hPa 0,0 l/m 12,4 km/h (3 Bft) O-NO 69 0 min 0,000 mm 0,0 UV-I 0 W/m -7,5 C -13,1 C 16,1 km/h (3 Bft) 97,96 %
30.01.2017 19:29 -6,7 C 94 % 1020,4 hPa 0,0 l/m 11,8 km/h (2 Bft) NO 51 0 min 0,000 mm 0,0 UV-I 0 W/m -7,5 C -12,5 C 17,7 km/h (3 Bft) 100,00 %
30.01.2017 19:30 -6,7 C 94 % 1020,5 hPa 0,0 l/m 7,8 km/h (2 Bft) NO 55 0 min 0,000 mm 0,0 UV-I 0 W/m -7,5 C -8,4 C 12,9 km/h (3 Bft) 100,00 %
30.01.2017 19:32 -6,7 C 94 % 1020,5 hPa 0,0 l/m 9,8 km/h (2 Bft) O-NO 74 0 min 0,000 mm 0,0 UV-I 0 W/m -7,5 C -10,6 C 17,7 km/h (3 Bft) 100,00 %
30.01.2017 19:34 -6,7 C 94 % 1020,5 hPa 0,0 l/m 10,6 km/h (2 Bft) NO 43 0 min 0,000 mm 0,0 UV-I 0 W/m -7,5 C -11,4 C 14,5 km/h (3 Bft) 100,00 %
30.01.2017 19:36 -6,7 C 94 % 1020,4 hPa 0,0 l/m 10,1 km/h (2 Bft) O-NO 69 0 min 0,000 mm 0,0 UV-I 0 W/m -7,5 C -11,0 C 14,5 km/h (3 Bft) 100,00 %
30.01.2017 19:38 -6,7 C 94 % 1020,5 hPa 0,0 l/m 10,7 km/h (2 Bft) O-NO 76 0 min 0,000 mm 0,0 UV-I 0 W/m -7,5 C -11,5 C 16,1 km/h (3 Bft) 100,00 %
30.01.2017 19:40 -6,7 C 94 % 1020,4 hPa 0,0 l/m 14,7 km/h (3 Bft) O-NO 75 0 min 0,000 mm 0,0 UV-I 0 W/m -7,5 C -14,9 C 19,3 km/h (3 Bft) 98,00 %
30.01.2017 19:42 -6,8 C 94 % 1020,3 hPa 0,0 l/m 15,8 km/h (3 Bft) NO 55 0 min 0,000 mm 0,0 UV-I 0 W/m -7,6 C -15,8 C 20,9 km/h (4 Bft) 98,00 %
30.01.2017 19:44 -6,8 C 95 % 1020,3 hPa 0,0 l/m 14,3 km/h (3 Bft) O-NO 67 0 min 0,000 mm 0,0 UV-I 0 W/m -7,5 C -14,7 C 19,3 km/h (3 Bft) 98,00 %
30.01.2017 19:46 -6,8 C 95 % 1020,4 hPa 0,0 l/m 10,6 km/h (2 Bft) O 82 0 min 0,000 mm 0,0 UV-I 0 W/m -7,5 C -11,6 C 14,5 km/h (3 Bft) 100,00 %
30.01.2017 19:48 -6,8 C 95 % 1020,4 hPa 0,0 l/m 12,3 km/h (3 Bft) O 79 0 min 0,000 mm 0,0 UV-I 0 W/m -7,5 C -13,1 C 19,3 km/h (3 Bft) 100,00 %
30.01.2017 19:50 -6,8 C 95 % 1020,5 hPa 0,0 l/m 9,3 km/h (2 Bft) O-NO 63 0 min 0,000 mm 0,0 UV-I 0 W/m -7,5 C -10,2 C 12,9 km/h (3 Bft) 100,00 %
30.01.2017 19:52 -6,8 C 95 % 1020,5 hPa 0,0 l/m 8,8 km/h (2 Bft) O-NO 69 0 min 0,000 mm 0,0 UV-I 0 W/m -7,5 C -9,7 C 14,5 km/h (3 Bft) 100,00 %
30.01.2017 19:54 -6,8 C 95 % 1020,4 hPa 0,0 l/m 11,2 km/h (2 Bft) NO 49 0 min 0,000 mm 0,0 UV-I 0 W/m -7,5 C -12,1 C 16,1 km/h (3 Bft) 98,11 %
30.01.2017 19:56 -6,8 C 95 % 1020,6 hPa 0,0 l/m 8,6 km/h (2 Bft) O-NO 61 0 min 0,000 mm 0,0 UV-I 0 W/m -7,5 C -9,5 C 12,9 km/h (3 Bft) 100,00 %
30.01.2017 19:58 -6,8 C 95 % 1020,6 hPa 0,0 l/m 7,9 km/h (2 Bft) NO 47 0 min 0,000 mm 0,0 UV-I 0 W/m -7,5 C -8,7 C 12,9 km/h (3 Bft) 100,00 %
30.01.2017 20:00 -6,8 C 95 % 1020,7 hPa 0,0 l/m 4,9 km/h (1 Bft) N-NO 28 0 min 0,000 mm 0,0 UV-I 0 W/m -7,5 C -6,8 C 8,0 km/h (2 Bft) 100,00 %
30.01.2017 20:03 -6,8 C 95 % 1020,8 hPa 0,0 l/m 5,9 km/h (2 Bft) O-NO 70 0 min 0,000 mm 0,0 UV-I 0 W/m -7,5 C -6,8 C 9,7 km/h (2 Bft) 100,00 %
30.01.2017 20:04 -6,8 C 95 % 1020,8 hPa 0,0 l/m 7,9 km/h (2 Bft) O-NO 58 0 min 0,000 mm 0,0 UV-I 0 W/m -7,5 C -8,7 C 11,3 km/h (2 Bft) 100,00 %
30.01.2017 20:06 -6,8 C 95 % 1020,8 hPa 0,0 l/m 8,4 km/h (2 Bft) NO 51 0 min 0,000 mm 0,0 UV-I 0 W/m -7,5 C -9,3 C 12,9 km/h (3 Bft) 100,00 %
30.01.2017 20:08 -6,8 C 95 % 1020,6 hPa 0,0 l/m 7,7 km/h (2 Bft) O-NO 76 0 min 0,000 mm 0,0 UV-I 0 W/m -7,5 C -8,4 C 11,3 km/h (2 Bft) 100,00 %
30.01.2017 20:10 -6,8 C 95 % 1020,6 hPa 0,0 l/m 8,2 km/h (2 Bft) O-NO 70 0 min 0,000 mm 0,0 UV-I 0 W/m -7,5 C -9,0 C 12,9 km/h (3 Bft) 100,00 %
30.01.2017 20:12 -6,8 C 95 % 1020,6 hPa 0,0 l/m 9,4 km/h (2 Bft) NO 51 0 min 0,000 mm 0,0 UV-I 0 W/m -7,5 C -10,3 C 14,5 km/h (3 Bft) 100,00 %
30.01.2017 20:14 -6,8 C 95 % 1020,7 hPa 0,0 l/m 5,7 km/h (1 Bft) O-NO 59 0 min 0,000 mm 0,0 UV-I 0 W/m -7,5 C -6,8 C 9,7 km/h (2 Bft) 100,00 %
30.01.2017 20:16 -6,8 C 95 % 1020,6 hPa 0,0 l/m 6,6 km/h (2 Bft) NO 55 0 min 0,000 mm 0,0 UV-I 0 W/m -7,5 C -7,0 C 9,7 km/h (2 Bft) 100,00 %
30.01.2017 20:18 -6,8 C 95 % 1020,6 hPa 0,0 l/m 4,4 km/h (1 Bft) NO 36 0 min 0,000 mm 0,0 UV-I 0 W/m -7,5 C -6,8 C 8,0 km/h (2 Bft) 100,00 %
30.01.2017 20:20 -6,8 C 95 % 1020,5 hPa 0,0 l/m 9,1 km/h (2 Bft) NO 55 0 min 0,000 mm 0,0 UV-I 0 W/m -7,5 C -10,0 C 12,9 km/h (3 Bft) 100,00 %
30.01.2017 20:22 -6,8 C 95 % 1020,5 hPa 0,0 l/m 8,0 km/h (2 Bft) O-NO 67 0 min 0,000 mm 0,0 UV-I 0 W/m -7,5 C -8,8 C 9,7 km/h (2 Bft) 98,11 %
30.01.2017 20:24 -6,8 C 95 % 1020,5 hPa 0,0 l/m 11,1 km/h (2 Bft) O-NO 67 0 min 0,000 mm 0,0 UV-I 0 W/m -7,5 C -12,0 C 14,5 km/h (3 Bft) 100,00 %
30.01.2017 20:26 -6,8 C 95 % 1020,4 hPa 0,0 l/m 11,5 km/h (2 Bft) NO 44 0 min 0,000 mm 0,0 UV-I 0 W/m -7,5 C -12,4 C 17,7 km/h (3 Bft) 98,00 %
30.01.2017 20:28 -6,8 C 95 % 1020,4 hPa 0,0 l/m 10,3 km/h (2 Bft) O-NO 74 0 min 0,000 mm 0,0 UV-I 0 W/m -7,5 C -11,3 C 16,1 km/h (3 Bft) 100,00 %
30.01.2017 20:30 -6,8 C 95 % 1020,5 hPa 0,0 l/m 10,4 km/h (2 Bft) O-NO 74 0 min 0,000 mm 0,0 UV-I 0 W/m -7,5 C -11,4 C 16,1 km/h (3 Bft) 96,00 %
30.01.2017 20:32 -6,8 C 95 % 1020,5 hPa 0,0 l/m 10,0 km/h (2 Bft) O 83 0 min 0,000 mm 0,0 UV-I 0 W/m -7,5 C -11,0 C 16,1 km/h (3 Bft) 100,00 %
30.01.2017 20:34 -6,8 C 95 % 1020,4 hPa 0,0 l/m 10,4 km/h (2 Bft) O-NO 66 0 min 0,000 mm 0,0 UV-I 0 W/m -7,5 C -11,4 C 14,5 km/h (3 Bft) 100,00 %
30.01.2017 20:36 -6,8 C 95 % 1020,5 hPa 0,0 l/m 11,5 km/h (2 Bft) NO 56 0 min 0,000 mm 0,0 UV-I 0 W/m -7,5 C -12,4 C 16,1 km/h (3 Bft) 100,00 %
30.01.2017 20:38 -6,8 C 95 % 1020,5 hPa 0,0 l/m 11,3 km/h (2 Bft) O-NO 60 0 min 0,000 mm 0,0 UV-I 0 W/m -7,5 C -12,2 C 16,1 km/h (3 Bft) 98,18 %
30.01.2017 20:40 -6,8 C 95 % 1020,4 hPa 0,0 l/m 11,4 km/h (2 Bft) NO 42 0 min 0,000 mm 0,0 UV-I 0 W/m -7,5 C -12,3 C 16,1 km/h (3 Bft) 100,00 %
30.01.2017 20:42 -6,8 C 95 % 1020,4 hPa 0,0 l/m 11,8 km/h (2 Bft) O-NO 73 0 min 0,000 mm 0,0 UV-I 0 W/m -7,5 C -12,7 C 14,5 km/h (3 Bft) 100,00 %
30.01.2017 20:44 -6,8 C 95 % 1020,4 hPa 0,0 l/m 8,5 km/h (2 Bft) NO 51 0 min 0,000 mm 0,0 UV-I 0 W/m -7,5 C -9,4 C 12,9 km/h (3 Bft) 98,00 %
30.01.2017 20:46 -6,8 C 95 % 1020,3 hPa 0,0 l/m 9,2 km/h (2 Bft) NO 38 0 min 0,000 mm 0,0 UV-I 0 W/m -7,5 C -10,1 C 12,9 km/h (3 Bft) 100,00 %
30.01.2017 20:48 -6,8 C 95 % 1020,2 hPa 0,0 l/m 12,7 km/h (3 Bft) O-NO 75 0 min 0,000 mm 0,0 UV-I 0 W/m -7,5 C -13,4 C 17,7 km/h (3 Bft) 100,00 %
30.01.2017 20:50 -6,8 C 95 % 1020,3 hPa 0,0 l/m 17,1 km/h (3 Bft) NO 41 0 min 0,000 mm 0,0 UV-I 0 W/m -7,5 C -16,7 C 20,9 km/h (4 Bft) 97,73 %
30.01.2017 20:52 -6,8 C 95 % 1020,1 hPa 0,0 l/m 15,1 km/h (3 Bft) NO 49 0 min 0,000 mm 0,0 UV-I 0 W/m -7,5 C -15,3 C 19,3 km/h (3 Bft) 98,11 %
30.01.2017 20:54 -6,8 C 95 % 1020,1 hPa 0,0 l/m 14,7 km/h (3 Bft) O-NO 63 0 min 0,000 mm 0,0 UV-I 0 W/m -7,5 C -15,0 C 19,3 km/h (3 Bft) 95,74 %
30.01.2017 20:56 -6,8 C 95 % 1020,0 hPa 0,0 l/m 17,1 km/h (3 Bft) O 82 0 min 0,000 mm 0,0 UV-I 0 W/m -7,5 C -16,7 C 24,1 km/h (4 Bft) 97,37 %
30.01.2017 20:58 -6,8 C 95 % 1019,9 hPa 0,0 l/m 16,3 km/h (3 Bft) O-NO 77 0 min 0,000 mm 0,0 UV-I 0 W/m -7,5 C -16,1 C 24,1 km/h (4 Bft) 96,00 %
30.01.2017 21:00 -6,8 C 95 % 1019,7 hPa 0,0 l/m 17,6 km/h (3 Bft) O-SO 116 0 min 0,000 mm 0,0 UV-I 0 W/m -7,5 C -17,0 C 24,1 km/h (4 Bft) 98,00 %
30.01.2017 21:06 -6,8 C 95 % 1019,4 hPa 0,0 l/m 17,6 km/h (3 Bft) O-NO 76 0 min 0,000 mm 0,0 UV-I 0 W/m -7,5 C -17,0 C 25,7 km/h (4 Bft) 100,00 %
30.01.2017 21:09 -6,8 C 95 % 1019,4 hPa 0,0 l/m 12,9 km/h (3 Bft) O-NO 70 0 min 0,000 mm 0,0 UV-I 0 W/m -7,5 C -13,6 C 29,0 km/h (5 Bft) 100,00 %
30.01.2017 21:10 -6,8 C 95 % 1019,4 hPa 0,0 l/m 19,3 km/h (3 Bft) NO 56 0 min 0,000 mm 0,0 UV-I 0 W/m -7,5 C -18,0 C 29,0 km/h (5 Bft) 100,00 %
30.01.2017 21:12 -6,8 C 95 % 1019,5 hPa 0,0 l/m 16,1 km/h (3 Bft) O-NO 74 0 min 0,000 mm 0,0 UV-I 0 W/m -7,5 C -16,0 C 29,0 km/h (5 Bft) 100,00 %
30.01.2017 21:14 -6,8 C 95 % 1019,6 hPa 0,0 l/m 17,7 km/h (3 Bft) O-NO 70 0 min 0,000 mm 0,0 UV-I 0 W/m -7,5 C -17,0 C 29,0 km/h (5 Bft) 100,00 %
30.01.2017 21:16 -6,8 C 95 % 1019,7 hPa 0,0 l/m 8,0 km/h (2 Bft) SO 130 0 min 0,000 mm 0,0 UV-I 0 W/m -7,5 C -8,8 C 29,0 km/h (5 Bft) 100,00 %
30.01.2017 21:18 -6,8 C 95 % 1019,9 hPa 0,0 l/m 15,1 km/h (3 Bft) O 82 0 min 0,000 mm 0,0 UV-I 0 W/m -7,5 C -15,3 C 29,0 km/h (5 Bft) 95,79 %
30.01.2017 21:20 -6,8 C 95 % 1020,0 hPa 0,0 l/m 7,0 km/h (2 Bft) O-SO 103 0 min 0,000 mm 0,0 UV-I 0 W/m -7,5 C -7,5 C 14,5 km/h (3 Bft) 97,44 %
30.01.2017 21:22 -6,8 C 95 % 1020,0 hPa 0,0 l/m 7,1 km/h (2 Bft) O-NO 65 0 min 0,000 mm 0,0 UV-I 0 W/m -7,5 C -7,7 C 12,9 km/h (3 Bft) 98,08 %
30.01.2017 21:24 -6,8 C 95 % 1020,1 hPa 0,0 l/m 6,7 km/h (2 Bft) NO 54 0 min 0,000 mm 0,0 UV-I 0 W/m -7,5 C -7,2 C 9,7 km/h (2 Bft) 98,00 %
30.01.2017 21:26 -6,8 C 95 % 1020,2 hPa 0,0 l/m 3,5 km/h (1 Bft) O-NO 77 0 min 0,000 mm 0,0 UV-I 0 W/m -7,5 C -6,8 C 8,0 km/h (2 Bft) 97,62 %
30.01.2017 21:28 -6,8 C 95 % 1020,2 hPa 0,0 l/m 7,2 km/h (2 Bft) O-NO 67 0 min 0,000 mm 0,0 UV-I 0 W/m -7,5 C -7,8 C 11,3 km/h (2 Bft) 100,00 %
30.01.2017 21:30 -6,8 C 95 % 1020,2 hPa 0,0 l/m 6,4 km/h (2 Bft) O-NO 69 0 min 0,000 mm 0,0 UV-I 0 W/m -7,5 C -6,7 C 8,0 km/h (2 Bft) 94,34 %
30.01.2017 21:32 -6,8 C 95 % 1020,2 hPa 0,0 l/m 6,2 km/h (2 Bft) O-NO 71 0 min 0,000 mm 0,0 UV-I 0 W/m -7,5 C -6,8 C 9,7 km/h (2 Bft) 100,00 %
30.01.2017 21:34 -6,8 C 95 % 1020,2 hPa 0,0 l/m 6,8 km/h (2 Bft) O-NO 63 0 min 0,000 mm 0,0 UV-I 0 W/m -7,5 C -7,3 C 11,3 km/h (2 Bft) 97,37 %
30.01.2017 21:36 -6,8 C 95 % 1020,1 hPa 0,0 l/m 9,4 km/h (2 Bft) O-NO 64 0 min 0,000 mm 0,0 UV-I 0 W/m -7,5 C -10,3 C 12,9 km/h (3 Bft) 100,00 %
30.01.2017 21:38 -6,8 C 95 % 1020,0 hPa 0,0 l/m 12,2 km/h (2 Bft) O-NO 69 0 min 0,000 mm 0,0 UV-I 0 W/m -7,5 C -13,0 C 17,7 km/h (3 Bft) 100,00 %
30.01.2017 21:40 -6,8 C 95 % 1020,0 hPa 0,0 l/m 7,9 km/h (2 Bft) NO 53 0 min 0,000 mm 0,0 UV-I 0 W/m -7,5 C -8,7 C 14,5 km/h (3 Bft) 100,00 %
30.01.2017 21:42 -6,8 C 95 % 1020,0 hPa 0,0 l/m 7,5 km/h (2 Bft) O-NO 65 0 min 0,000 mm 0,0 UV-I 0 W/m -7,5 C -8,2 C 12,9 km/h (3 Bft) 100,00 %
30.01.2017 21:44 -6,8 C 95 % 1019,9 hPa 0,0 l/m 8,0 km/h (2 Bft) O-NO 60 0 min 0,000 mm 0,0 UV-I 0 W/m -7,5 C -8,8 C 9,7 km/h (2 Bft) 100,00 %
30.01.2017 21:46 -6,8 C 95 % 1019,9 hPa 0,0 l/m 9,0 km/h (2 Bft) O 80 0 min 0,000 mm 0,0 UV-I 0 W/m -7,5 C -9,9 C 14,5 km/h (3 Bft) 100,00 %
30.01.2017 21:48 -6,8 C 95 % 1019,9 hPa 0,0 l/m 9,1 km/h (2 Bft) O-NO 57 0 min 0,000 mm 0,0 UV-I 0 W/m -7,5 C -10,0 C 12,9 km/h (3 Bft) 97,56 %
30.01.2017 21:50 -6,8 C 95 % 1020,0 hPa 0,0 l/m 10,0 km/h (2 Bft) O-NO 59 0 min 0,000 mm 0,0 UV-I 0 W/m -7,5 C -11,0 C 14,5 km/h (3 Bft) 96,23 %
30.01.2017 21:52 -6,8 C 95 % 1019,9 hPa 0,0 l/m 8,0 km/h (2 Bft) O-NO 59 0 min 0,000 mm 0,0 UV-I 0 W/m -7,5 C -8,8 C 11,3 km/h (2 Bft) 97,56 %
30.01.2017 21:54 -6,8 C 95 % 1019,8 hPa 0,0 l/m 13,2 km/h (3 Bft) O-NO 69 0 min 0,000 mm 0,0 UV-I 0 W/m -7,5 C -13,8 C 17,7 km/h (3 Bft) 98,00 %
30.01.2017 21:56 -6,8 C 95 % 1019,9 hPa 0,0 l/m 11,7 km/h (2 Bft) NO 46 0 min 0,000 mm 0,0 UV-I 0 W/m -7,5 C -12,6 C 16,1 km/h (3 Bft) 100,00 %
30.01.2017 21:58 -6,8 C 95 % 1019,9 hPa 0,0 l/m 12,4 km/h (3 Bft) O-NO 58 0 min 0,000 mm 0,0 UV-I 0 W/m -7,5 C -13,2 C 17,7 km/h (3 Bft) 98,11 %
30.01.2017 22:00 -6,8 C 95 % 1020,0 hPa 0,0 l/m 9,2 km/h (2 Bft) O-NO 68 0 min 0,000 mm 0,0 UV-I 0 W/m -7,5 C -10,1 C 16,1 km/h (3 Bft) 100,00 %
30.01.2017 22:02 -6,8 C 95 % 1020,0 hPa 0,0 l/m 5,5 km/h (1 Bft) N-NO 16 0 min 0,000 mm 0,0 UV-I 0 W/m -7,5 C -6,8 C 8,0 km/h (2 Bft) 100,00 %
30.01.2017 22:04 -6,8 C 95 % 1020,1 hPa 0,0 l/m 4,1 km/h (1 Bft) O-NO 65 0 min 0,000 mm 0,0 UV-I 0 W/m -7,5 C -6,8 C 6,4 km/h (2 Bft) 96,00 %
30.01.2017 22:06 -6,8 C 95 % 1020,1 hPa 0,0 l/m 4,5 km/h (1 Bft) NO 55 0 min 0,000 mm 0,0 UV-I 0 W/m -7,5 C -6,8 C 6,4 km/h (2 Bft) 100,00 %
30.01.2017 22:08 -6,8 C 95 % 1020,1 hPa 0,0 l/m 7,2 km/h (2 Bft) NO 51 0 min 0,000 mm 0,0 UV-I 0 W/m -7,5 C -7,8 C 12,9 km/h (3 Bft) 97,37 %
30.01.2017 22:10 -6,8 C 95 % 1020,0 hPa 0,0 l/m 10,5 km/h (2 Bft) O-NO 57 0 min 0,000 mm 0,0 UV-I 0 W/m -7,5 C -11,5 C 14,5 km/h (3 Bft) 100,00 %
30.01.2017 22:12 -6,8 C 95 % 1019,9 hPa 0,0 l/m 13,9 km/h (3 Bft) O-NO 61 0 min 0,000 mm 0,0 UV-I 0 W/m -7,5 C -14,4 C 19,3 km/h (3 Bft) 100,00 %
30.01.2017 22:14 -6,8 C 95 % 1019,7 hPa 0,0 l/m 13,0 km/h (3 Bft) NO 55 0 min 0,000 mm 0,0 UV-I 0 W/m -7,5 C -13,7 C 19,3 km/h (3 Bft) 97,37 %
30.01.2017 22:16 -6,8 C 95 % 1019,9 hPa 0,0 l/m 13,0 km/h (3 Bft) O-NO 75 0 min 0,000 mm 0,0 UV-I 0 W/m -7,5 C -13,7 C 16,1 km/h (3 Bft) 98,00 %
30.01.2017 22:18 -6,8 C 95 % 1019,8 hPa 0,0 l/m 16,5 km/h (3 Bft) NO 55 0 min 0,000 mm 0,0 UV-I 0 W/m -7,5 C -16,3 C 20,9 km/h (4 Bft) 100,00 %
30.01.2017 22:20 -6,8 C 95 % 1019,7 hPa 0,0 l/m 17,7 km/h (3 Bft) O-NO 68 0 min 0,000 mm 0,0 UV-I 0 W/m -7,5 C -17,0 C 19,3 km/h (3 Bft) 100,00 %
30.01.2017 22:22 -6,8 C 95 % 1019,6 hPa 0,0 l/m 17,1 km/h (3 Bft) O 86 0 min 0,000 mm 0,0 UV-I 0 W/m -7,5 C -16,7 C 20,9 km/h (4 Bft) 100,00 %
30.01.2017 22:24 -6,8 C 95 % 1019,6 hPa 0,0 l/m 15,7 km/h (3 Bft) NO 48 0 min 0,000 mm 0,0 UV-I 0 W/m -7,5 C -15,7 C 19,3 km/h (3 Bft) 100,00 %
30.01.2017 22:26 -6,8 C 95 % 1019,7 hPa 0,0 l/m 10,3 km/h (2 Bft) NO 46 0 min 0,000 mm 0,0 UV-I 0 W/m -7,5 C -11,3 C 14,5 km/h (3 Bft) 100,00 %
30.01.2017 22:29 -6,8 C 95 % 1019,7 hPa 0,0 l/m 12,9 km/h (3 Bft) NO 52 0 min 0,000 mm 0,0 UV-I 0 W/m -7,5 C -13,6 C 17,7 km/h (3 Bft) 100,00 %
30.01.2017 22:30 -6,8 C 95 % 1019,7 hPa 0,0 l/m 15,4 km/h (3 Bft) O-NO 63 0 min 0,000 mm 0,0 UV-I 0 W/m -7,5 C -15,5 C 17,7 km/h (3 Bft) 100,00 %
30.01.2017 22:32 -6,8 C 95 % 1019,6 hPa 0,0 l/m 14,1 km/h (3 Bft) O-NO 71 0 min 0,000 mm 0,0 UV-I 0 W/m -7,5 C -14,5 C 17,7 km/h (3 Bft) 100,00 %
30.01.2017 22:34 -6,8 C 95 % 1019,6 hPa 0,0 l/m 10,4 km/h (2 Bft) O-NO 59 0 min 0,000 mm 0,0 UV-I 0 W/m -7,5 C -11,4 C 14,5 km/h (3 Bft) 97,56 %
30.01.2017 22:36 -6,8 C 95 % 1019,5 hPa 0,0 l/m 12,7 km/h (3 Bft) O-NO 66 0 min 0,000 mm 0,0 UV-I 0 W/m -7,5 C -13,4 C 17,7 km/h (3 Bft) 100,00 %
30.01.2017 22:38 -6,8 C 95 % 1019,5 hPa 0,0 l/m 13,3 km/h (3 Bft) O-NO 65 0 min 0,000 mm 0,0 UV-I 0 W/m -7,5 C -13,9 C 17,7 km/h (3 Bft) 97,62 %
30.01.2017 22:40 -6,8 C 95 % 1019,5 hPa 0,0 l/m 10,3 km/h (2 Bft) O 85 0 min 0,000 mm 0,0 UV-I 0 W/m -7,5 C -11,3 C 16,1 km/h (3 Bft) 98,11 %
30.01.2017 22:42 -6,8 C 95 % 1019,5 hPa 0,0 l/m 11,3 km/h (2 Bft) O-NO 66 0 min 0,000 mm 0,0 UV-I 0 W/m -7,5 C -12,2 C 16,1 km/h (3 Bft) 98,28 %
30.01.2017 22:44 -6,8 C 95 % 1019,4 hPa 0,0 l/m 12,4 km/h (3 Bft) O-NO 75 0 min 0,000 mm 0,0 UV-I 0 W/m -7,5 C -13,2 C 17,7 km/h (3 Bft) 100,00 %
30.01.2017 22:46 -6,8 C 95 % 1019,5 hPa 0,0 l/m 7,5 km/h (2 Bft) O-NO 63 0 min 0,000 mm 0,0 UV-I 0 W/m -7,5 C -8,2 C 9,7 km/h (2 Bft) 100,00 %
30.01.2017 22:48 -6,8 C 95 % 1019,7 hPa 0,0 l/m 5,4 km/h (1 Bft) NO 56 0 min 0,000 mm 0,0 UV-I 0 W/m -7,5 C -6,8 C 12,9 km/h (3 Bft) 94,74 %
30.01.2017 22:50 -6,8 C 95 % 1019,9 hPa 0,0 l/m 3,6 km/h (1 Bft) NO 43 0 min 0,000 mm 0,0 UV-I 0 W/m -7,5 C -6,8 C 8,0 km/h (2 Bft) 100,00 %
30.01.2017 22:52 -6,8 C 95 % 1020,1 hPa 0,0 l/m 0,8 km/h (0 Bft) NO 43 0 min 0,000 mm 0,0 UV-I 0 W/m -7,5 C -6,8 C 3,2 km/h (1 Bft) 100,00 %
30.01.2017 22:54 -6,8 C 95 % 1020,1 hPa 0,0 l/m 2,1 km/h (1 Bft) NO 40 0 min 0,000 mm 0,0 UV-I 0 W/m -7,5 C -6,8 C 6,4 km/h (2 Bft) 100,00 %
30.01.2017 22:56 -6,8 C 95 % 1020,0 hPa 0,0 l/m 6,8 km/h (2 Bft) O-NO 62 0 min 0,000 mm 0,0 UV-I 0 W/m -7,5 C -7,3 C 8,0 km/h (2 Bft) 97,56 %
30.01.2017 22:58 -6,8 C 95 % 1020,1 hPa 0,0 l/m 5,6 km/h (1 Bft) O-NO 58 0 min 0,000 mm 0,0 UV-I 0 W/m -7,5 C -6,8 C 8,0 km/h (2 Bft) 96,23 %
30.01.2017 23:00 -6,8 C 95 % 1020,0 hPa 0,0 l/m 5,0 km/h (1 Bft) NO 53 0 min 0,000 mm 0,0 UV-I 0 W/m -7,5 C -6,8 C 6,4 km/h (2 Bft) 98,00 %
30.01.2017 23:02 -6,8 C 95 % 1020,0 hPa 0,0 l/m 4,8 km/h (1 Bft) O-NO 65 0 min 0,000 mm 0,0 UV-I 0 W/m -7,5 C -6,8 C 6,4 km/h (2 Bft) 97,37 %
30.01.2017 23:04 -6,8 C 95 % 1020,0 hPa 0,0 l/m 7,1 km/h (2 Bft) O-NO 61 0 min 0,000 mm 0,0 UV-I 0 W/m -7,5 C -7,7 C 9,7 km/h (2 Bft) 98,00 %
30.01.2017 23:06 -6,8 C 95 % 1019,8 hPa 0,0 l/m 10,1 km/h (2 Bft) NO 52 0 min 0,000 mm 0,0 UV-I 0 W/m -7,5 C -11,1 C 16,1 km/h (3 Bft) 94,74 %
30.01.2017 23:08 -6,8 C 95 % 1019,6 hPa 0,0 l/m 13,0 km/h (3 Bft) O-NO 63 0 min 0,000 mm 0,0 UV-I 0 W/m -7,5 C -13,7 C 19,3 km/h (3 Bft) 97,56 %
30.01.2017 23:10 -6,8 C 95 % 1019,6 hPa 0,0 l/m 11,3 km/h (2 Bft) O-NO 73 0 min 0,000 mm 0,0 UV-I 0 W/m -7,5 C -12,2 C 17,7 km/h (3 Bft) 92,86 %
30.01.2017 23:12 -6,8 C 95 % 1019,6 hPa 0,0 l/m 10,4 km/h (2 Bft) O 88 0 min 0,000 mm 0,0 UV-I 0 W/m -7,5 C -11,4 C 16,1 km/h (3 Bft) 95,45 %
30.01.2017 23:14 -6,8 C 95 % 1019,7 hPa 0,0 l/m 9,7 km/h (2 Bft) O-NO 65 0 min 0,000 mm 0,0 UV-I 0 W/m -7,5 C -10,7 C 14,5 km/h (3 Bft) 96,43 %
30.01.2017 23:16 -6,8 C 95 % 1019,7 hPa 0,0 l/m 8,7 km/h (2 Bft) O-NO 57 0 min 0,000 mm 0,0 UV-I 0 W/m -7,5 C -9,6 C 16,1 km/h (3 Bft) 95,83 %
30.01.2017 23:19 -6,8 C 95 % 1019,7 hPa 0,0 l/m 9,8 km/h (2 Bft) O-NO 59 0 min 0,000 mm 0,0 UV-I 0 W/m -7,5 C -10,8 C 14,5 km/h (3 Bft) 96,81 %
30.01.2017 23:20 -6,8 C 95 % 1019,7 hPa 0,0 l/m 9,0 km/h (2 Bft) NO 49 0 min 0,000 mm 0,0 UV-I 0 W/m -7,5 C -9,9 C 14,5 km/h (3 Bft) 92,31 %
30.01.2017 23:22 -6,8 C 95 % 1019,7 hPa 0,0 l/m 10,4 km/h (2 Bft) O-NO 65 0 min 0,000 mm 0,0 UV-I 0 W/m -7,5 C -11,4 C 14,5 km/h (3 Bft) 97,56 %
30.01.2017 23:24 -6,8 C 95 % 1019,8 hPa 0,0 l/m 7,0 km/h (2 Bft) O-NO 63 0 min 0,000 mm 0,0 UV-I 0 W/m -7,5 C -7,5 C 11,3 km/h (2 Bft) 95,74 %
30.01.2017 23:26 -6,7 C 95 % 1019,9 hPa 0,0 l/m 6,7 km/h (2 Bft) NO 56 0 min 0,000 mm 0,0 UV-I 0 W/m -7,4 C -7,1 C 11,3 km/h (2 Bft) 100,00 %
30.01.2017 23:28 -6,7 C 95 % 1019,8 hPa 0,0 l/m 6,0 km/h (2 Bft) NO 52 0 min 0,000 mm 0,0 UV-I 0 W/m -7,4 C -6,7 C 8,0 km/h (2 Bft) 95,24 %
30.01.2017 23:30 -6,7 C 95 % 1019,8 hPa 0,0 l/m 6,1 km/h (2 Bft) O-NO 57 0 min 0,000 mm 0,0 UV-I 0 W/m -7,4 C -6,7 C 9,7 km/h (2 Bft) 100,00 %
30.01.2017 23:32 -6,8 C 95 % 1019,8 hPa 0,0 l/m 8,0 km/h (2 Bft) O-NO 67 0 min 0,000 mm 0,0 UV-I 0 W/m -7,5 C -8,8 C 12,9 km/h (3 Bft) 100,00 %
30.01.2017 23:34 -6,7 C 95 % 1019,7 hPa 0,0 l/m 7,5 km/h (2 Bft) O-NO 57 0 min 0,000 mm 0,0 UV-I 0 W/m -7,4 C -8,1 C 11,3 km/h (2 Bft) 96,43 %
30.01.2017 23:36 -6,7 C 95 % 1019,6 hPa 0,0 l/m 11,1 km/h (2 Bft) O-NO 71 0 min 0,000 mm 0,0 UV-I 0 W/m -7,4 C -11,9 C 14,5 km/h (3 Bft) 97,56 %
30.01.2017 23:38 -6,7 C 95 % 1019,7 hPa 0,0 l/m 9,3 km/h (2 Bft) O-NO 75 0 min 0,000 mm 0,0 UV-I 0 W/m -7,4 C -10,1 C 16,1 km/h (3 Bft) 100,00 %
30.01.2017 23:40 -6,7 C 95 % 1019,6 hPa 0,0 l/m 10,9 km/h (2 Bft) O-NO 72 0 min 0,000 mm 0,0 UV-I 0 W/m -7,4 C -11,7 C 14,5 km/h (3 Bft) 96,43 %
30.01.2017 23:42 -6,7 C 95 % 1019,7 hPa 0,0 l/m 10,4 km/h (2 Bft) NO 38 0 min 0,000 mm 0,0 UV-I 0 W/m -7,4 C -11,2 C 16,1 km/h (3 Bft) 96,15 %
30.01.2017 23:44 -6,7 C 95 % 1019,6 hPa 0,0 l/m 11,1 km/h (2 Bft) NO 50 0 min 0,000 mm 0,0 UV-I 0 W/m -7,4 C -11,9 C 14,5 km/h (3 Bft) 98,53 %
30.01.2017 23:46 -6,7 C 95 % 1019,7 hPa 0,0 l/m 10,7 km/h (2 Bft) O 82 0 min 0,000 mm 0,0 UV-I 0 W/m -7,4 C -11,5 C 16,1 km/h (3 Bft) 98,00 %
30.01.2017 23:48 -6,7 C 95 % 1019,6 hPa 0,0 l/m 10,5 km/h (2 Bft) NO 46 0 min 0,000 mm 0,0 UV-I 0 W/m -7,4 C -11,3 C 17,7 km/h (3 Bft) 100,00 %
30.01.2017 23:50 -6,7 C 95 % 1019,7 hPa 0,0 l/m 10,7 km/h (2 Bft) NO 56 0 min 0,000 mm 0,0 UV-I 0 W/m -7,4 C -11,5 C 14,5 km/h (3 Bft) 100,00 %
30.01.2017 23:52 -6,7 C 95 % 1019,7 hPa 0,0 l/m 10,6 km/h (2 Bft) O-NO 61 0 min 0,000 mm 0,0 UV-I 0 W/m -7,4 C -11,4 C 16,1 km/h (3 Bft) 100,00 %
30.01.2017 23:54 -6,7 C 95 % 1019,7 hPa 0,0 l/m 9,3 km/h (2 Bft) O 81 0 min 0,000 mm 0,0 UV-I 0 W/m -7,4 C -10,1 C 14,5 km/h (3 Bft) 98,00 %
30.01.2017 23:56 -6,7 C 95 % 1019,7 hPa 0,0 l/m 11,9 km/h (2 Bft) NO 44 0 min 0,000 mm 0,0 UV-I 0 W/m -7,4 C -12,6 C 16,1 km/h (3 Bft) 100,00 %
30.01.2017 23:58 -6,7 C 95 % 1019,7 hPa 0,0 l/m 11,2 km/h (2 Bft) NO 53 0 min 0,000 mm 0,0 UV-I 0 W/m -7,4 C -12,0 C 16,1 km/h (3 Bft) 100,00 %
_ Min-Zeit 00:52 00:00 21:06 - 18:26 - - - - - - 00:52 21:10 18:26 16:50
Minimum _ -7,8 C 94 % 1019,4 hPa - 0,0 km/h (0 Bft) - - - - - - -8,6 C -18,0 C 0,0 km/h (0 Bft) 89,47 %
_ Max-Zeit 13:46 12:52 00:00 00:00 21:10 - - 16:48 11:00 11:30 12:50 16:02 13:40 21:09 00:02
Maximum _ -6,4 C 95 % 1026,5 hPa 0,0 l/m 19,3 km/h
NO (3 Bft)
- - 2 min 0,026 mm 0,6 UV-I 159 W/m -7,2 C -6,5 C 29,0 km/h
O-NO (5 Bft)
100,00 %
Durchschnitt _ -7,1 C 94 % 1022,7 hPa #0,0 l/m 6,2 km/h (2 Bft) O-NO - #2 min. #0,178 mm 0,6 UV-I 85 W/m -7,9 C -8,9 C 9,4 km/h (2 Bft) 98,07 %